GFSSGP_850_dewp_000.txt.gz
Dewpoint
2 2 1 -1 1 1 4 2 -1 -1 0 -1 -2 0 1 1 4 5 5 3 1 -0 5 14 15 14 12 11 11 11 11 11 6 4 10 11 10 9 8 8 8 7 7 4 -0 1 4 3 6
2 1 0 1 3 3 2 -1 -0 -2 -3 -3 0 1 1 5 7 6 5 3 1 -0 4 10 15 14 12 10 12 11 11 9 5 5 9 10 9 10 10 10 8 8 3 -1 -2 0 -1 -5 -2
2 3 1 2 3 4 2 -2 -1 -1 -2 -2 -0 3 3 6 7 5 3 1 0 -1 1 6 14 12 12 12 12 11 9 7 5 7 11 10 10 10 9 7 9 9 3 -0 -1 -2 -1 -1 -1
5 4 2 3 4 3 0 -2 -0 -1 -1 -1 -0 1 4 6 7 6 7 2 1 -1 1 2 6 9 13 13 10 10 8 5 5 3 9 10 10 10 10 10 10 10 3 0 -0 -0 -0 -0 1
5 5 5 5 5 2 0 -0 -0 -1 -1 -3 -0 1 4 4 5 6 4 2 3 2 4 2 5 9 13 11 9 9 5 2 3 2 8 11 11 11 11 10 9 10 8 2 2 2 2 2 2
6 4 7 7 4 2 1 0 0 -0 -2 -2 -0 2 3 5 5 6 5 3 5 6 5 4 4 8 10 11 10 9 5 3 2 5 7 10 10 11 11 11 10 11 6 3 3 4 4 5 5
7 6 6 5 4 4 2 1 -2 -2 -3 -2 -0 1 2 4 3 3 5 5 7 8 8 6 5 5 9 12 11 10 6 7 5 4 5 6 8 10 10 9 9 8 3 3 5 8 9 9 10
8 5 7 6 6 5 2 1 1 -3 -4 -2 0 1 1 2 2 3 6 8 9 10 10 9 8 7 5 7 11 10 7 10 7 5 3 0 3 7 8 8 5 2 3 7 8 9 10 10 10
8 8 9 7 6 5 2 2 1 1 0 -0 -0 -0 0 0 1 1 5 7 9 10 11 11 10 9 6 6 8 9 8 10 10 8 2 -2 0 4 4 2 1 5 7 9 10 10 11 10 10
9 9 8 5 4 4 3 3 2 1 1 1 1 1 0 1 1 1 1 4 6 7 9 11 11 10 8 8 8 8 9 9 8 7 2 -3 -1 2 3 3 4 8 9 11 11 10 10 9 9
8 9 7 6 5 5 4 3 3 2 3 2 2 1 1 1 1 1 2 3 4 5 7 9 10 11 9 8 8 8 9 10 9 7 3 2 1 3 6 7 9 10 11 12 10 9 9 9 9
8 8 8 7 7 7 6 6 4 3 3 2 2 3 1 2 1 1 2 1 2 4 6 8 10 11 11 9 9 8 10 12 10 8 7 8 8 8 10 10 11 10 11 10 10 9 9 8 6
7 7 7 7 7 7 7 7 7 7 7 6 4 4 3 1 2 1 1 2 3 3 3 4 8 11 11 11 12 11 12 11 11 11 10 10 10 10 10 12 11 10 10 10 9 8 3 -1 -3
5 5 5 5 6 6 6 6 6 6 6 5 4 2 3 2 1 1 1 1 2 2 2 2 3 9 12 12 13 13 13 12 12 11 11 11 11 11 12 11 11 10 9 9 4 -4 -5 -4 -4
6 6 5 5 5 5 5 7 6 5 5 5 5 4 3 3 2 1 1 1 1 1 2 2 1 6 11 13 14 14 13 13 12 12 11 11 11 11 10 10 10 9 3 -6 -5 -7 -8 -9 -11
6 6 7 4 4 5 6 7 4 3 3 4 4 5 5 4 2 1 1 1 1 2 2 2 1 4 11 14 14 14 13 12 12 11 11 11 11 11 10 10 7 -6 -6 -6 -7 -8 -10 -12 -12
5 6 6 5 3 4 6 5 4 3 3 3 3 3 3 3 2 1 1 1 1 2 2 2 2 5 11 13 14 13 13 13 12 11 11 10 10 9 8 4 -6 -5 -4 -5 -7 -11 -12 -12 -12
5 6 5 5 4 4 6 6 5 3 4 4 4 4 4 3 2 2 2 2 2 1 2 1 3 8 12 13 13 13 12 13 12 11 12 10 10 7 -7 -5 -4 -2 -4 -7 -11 -12 -12 -12 -13
5 6 6 5 3 4 4 4 3 2 3 4 4 4 4 4 3 2 2 2 2 2 1 1 4 10 11 12 13 13 12 12 12 12 11 10 7 -8 -4 -2 -1 -1 -3 -7 -11 -12 -12 -12 -12
5 6 5 4 2 3 3 3 1 1 2 3 3 3 3 3 3 3 3 2 2 3 2 3 6 11 10 12 13 12 11 11 11 11 9 4 -7 -4 -1 0 -0 -1 -2 -6 -10 -11 -11 -12 -15
4 5 4 4 2 1 1 1 -1 -2 -1 -1 0 1 1 2 3 3 3 2 2 4 2 3 8 12 11 14 13 12 11 10 10 8 5 -6 -4 -2 0 0 -0 -1 -2 -4 -8 -11 -12 -14 -21
5 3 3 4 4 4 1 3 -0 -2 0 -1 -1 -0 2 1 2 3 3 2 2 2 4 4 7 12 13 12 13 12 10 10 9 5 -4 -4 -3 0 0 -0 -1 -1 -2 -4 -8 -11 -15 -22 -25
2 2 3 4 5 5 4 5 1 -1 -0 -0 1 1 1 1 1 2 2 2 2 3 4 4 6 9 11 11 12 11 10 9 8 -1 -4 -3 -1 0 -0 -1 -1 -1 -2 -4 -8 -14 -21 -26 -23
0 2 2 2 3 5 2 4 1 -1 -3 1 -0 -0 -0 1 2 2 2 2 2 4 5 6 8 11 11 12 11 10 9 9 5 -4 -3 -3 -1 -0 -1 -2 -2 -2 -3 -6 -11 -19 -26 -25 -21
1 3 4 6 5 4 1 3 -0 -2 -3 -2 -0 -1 -1 -1 1 2 2 2 2 4 6 8 9 11 12 12 12 11 11 10 2 -4 -3 -3 -1 -1 -2 -3 -2 -3 -4 -8 -16 -24 -26 -21 -19
2 2 3 3 5 2 -1 3 1 -2 -4 -4 -5 -2 -1 0 -0 1 2 2 2 5 8 10 12 12 12 12 11 10 9 5 -3 -3 -3 -3 -2 -2 -3 -3 -3 -4 -6 -12 -20 -25 -21 -18 -20
5 4 1 2 0 4 2 1 -0 1 1 -1 -2 -3 -3 -2 -0 1 2 3 4 6 9 10 12 12 12 10 8 7 2 -3 -3 -3 -4 -4 -3 -3 -3 -3 -3 -5 -9 -15 -22 -20 -17 -19 -19
4 2 5 4 5 4 2 1 2 -0 0 -1 -3 -5 -1 -1 0 1 2 4 6 8 10 11 11 11 10 7 5 1 -3 -3 -2 -3 -4 -3 -3 -3 -3 -3 -4 -8 -14 -20 -19 -17 -18 -18 -16
4 5 4 3 4 3 3 -1 -1 -2 0 0 -1 -1 -0 0 1 2 3 5 7 9 10 11 11 11 8 5 1 -1 -2 -2 -2 -4 -3 -3 -3 -3 -3 -3 -6 -11 -17 -17 -16 -16 -16 -15 -14
1 2 2 3 1 2 1 0 -2 3 1 -0 1 -0 -0 1 2 4 5 7 8 9 10 10 10 8 7 3 1 0 -1 -2 -3 -3 -3 -3 -3 -3 -3 -5 -9 -15 -17 -15 -15 -14 -13 -13 -15

GFSSGP_850_dewp_003.txt.gz
Dewpoint
2 2 1 -1 3 2 4 2 0 -0 -0 -1 -3 -0 1 1 4 7 6 6 2 0 5 15 15 15 14 12 10 10 10 9 4 11 11 9 8 8 10 8 6 4 4 1 -1 0 4 3 8
2 2 1 -0 3 4 3 -0 -0 -1 -1 -3 -0 1 1 4 4 6 6 4 2 0 5 14 15 15 14 11 11 11 10 8 4 5 9 8 10 11 11 10 7 5 1 -1 -1 -0 -2 -6 -2
2 2 1 3 4 4 3 -1 -1 -1 -1 -4 -0 2 2 5 6 6 2 4 -0 -1 7 15 15 15 14 11 11 12 9 7 5 9 11 10 10 10 6 8 9 8 1 1 0 -0 1 1 1
4 4 2 4 4 3 1 -2 -1 -0 -0 -1 -2 -0 4 4 7 5 5 6 1 -2 3 14 16 15 13 14 11 12 9 6 6 6 10 10 10 11 10 11 9 9 3 2 2 2 1 1 2
5 4 5 6 4 2 1 -0 -0 0 -0 -1 -2 0 2 4 5 6 7 4 1 -1 3 13 16 15 13 15 14 13 6 4 4 5 10 10 10 11 11 11 10 10 5 2 3 3 4 3 3
6 4 6 7 5 2 1 0 0 0 -0 -1 -2 -0 0 3 5 5 4 3 2 0 2 7 15 13 15 15 14 13 5 3 4 5 10 11 11 11 11 11 10 9 6 3 3 6 8 8 9
7 6 7 6 5 3 2 0 0 0 -1 -2 -2 1 -0 1 6 4 4 3 4 4 3 5 12 13 14 15 15 11 6 6 4 6 7 10 11 11 11 10 10 8 4 3 7 9 9 10 10
8 6 7 6 5 5 1 1 0 -0 -1 -3 -0 1 -0 2 3 3 5 6 7 6 6 7 10 14 14 14 14 13 7 11 7 4 2 3 7 10 9 9 8 5 3 7 9 10 10 11 10
8 9 9 7 6 4 2 2 1 1 1 0 0 -0 0 0 1 3 3 6 8 9 9 10 11 13 14 13 14 13 8 11 10 7 2 -1 2 6 7 6 2 3 7 9 10 10 10 10 9
8 10 9 5 4 4 3 3 2 2 1 2 2 1 1 1 1 1 2 2 5 7 10 11 11 11 12 13 13 12 8 9 9 8 3 -3 -0 3 1 1 3 7 9 9 10 11 9 8 8
8 8 7 6 5 5 5 4 4 3 4 3 3 1 2 1 2 2 2 3 3 6 8 10 11 12 11 9 12 11 9 8 8 7 3 -0 0 3 3 6 8 10 10 11 10 9 9 8 6
8 8 8 7 6 7 7 6 7 4 4 4 2 4 4 3 2 2 2 3 3 3 6 8 10 11 12 10 8 9 9 10 11 8 2 5 5 6 9 10 10 10 10 11 10 9 8 4 -3
7 7 7 7 7 7 7 8 7 7 7 7 6 6 5 4 2 1 2 3 3 3 3 4 6 9 11 12 10 10 9 11 11 8 7 8 9 10 11 11 10 10 10 9 9 7 0 -5 -6
5 5 5 5 5 5 6 6 6 6 5 5 5 5 5 3 2 2 1 1 2 2 2 2 3 5 9 12 11 11 11 12 10 10 10 10 11 11 11 11 10 10 9 8 0 -6 -7 -7 -9
5 6 5 4 4 4 5 6 6 5 5 5 4 3 3 3 2 2 1 1 1 1 1 1 2 3 5 11 13 13 13 12 12 11 11 11 11 11 11 10 10 9 4 -6 -6 -6 -8 -9 -11
5 5 7 3 4 4 4 5 4 3 4 4 4 3 3 2 2 2 2 1 1 1 1 2 2 2 3 11 13 13 13 12 12 11 11 11 11 11 10 10 9 -1 -5 -5 -6 -8 -12 -14 -14
5 5 7 5 3 3 5 6 3 3 4 4 3 3 3 4 2 2 3 2 2 1 1 2 2 2 2 10 12 12 13 12 12 11 11 11 10 10 9 8 -3 -5 -4 -5 -8 -13 -15 -14 -14
4 6 5 4 3 3 4 5 3 3 3 3 3 3 3 4 4 3 3 2 2 2 2 2 2 2 3 9 13 13 13 12 12 12 12 11 10 9 6 -7 -5 -2 -2 -4 -8 -11 -13 -13 -14
4 5 5 3 2 4 4 3 2 1 1 1 1 2 2 1 2 3 3 3 3 2 2 2 1 2 3 9 13 13 12 13 13 12 12 11 9 7 -9 -4 -1 -0 -1 -1 -4 -7 -11 -13 -16
4 4 4 2 2 3 3 3 1 -0 -0 -0 0 1 2 1 1 1 2 2 3 3 2 2 2 3 4 8 10 12 12 13 12 12 11 10 6 -8 -4 -0 0 0 -0 -1 -2 -4 -9 -14 -19
3 4 2 2 2 1 2 1 -3 -5 -4 -2 -1 -1 -0 -0 -1 -0 0 2 2 2 2 4 3 5 8 8 11 12 12 12 11 10 9 3 -6 -5 -1 0 -0 -0 -1 -1 -1 -3 -9 -17 -24
4 2 3 4 4 4 0 3 -3 -2 -3 -4 -3 -2 -2 -1 -1 -2 -1 -1 2 2 3 5 5 7 8 9 11 10 11 11 11 9 6 1 -5 -2 0 -0 -1 -1 -1 -1 -2 -5 -12 -22 -25
2 1 2 3 5 4 3 4 -0 -2 -2 -2 -3 -3 -2 -1 -1 -2 -3 -2 1 2 3 4 6 8 10 12 12 11 11 11 9 7 7 -5 -4 -1 -0 -1 -1 -1 -1 -2 -3 -8 -16 -24 -24
1 2 2 2 3 4 1 3 0 -3 -4 -4 -3 -4 -3 -2 -1 -1 0 -0 1 3 4 5 5 7 12 13 11 12 11 10 9 7 -2 -4 -3 -1 -1 -1 -2 -2 -2 -2 -4 -10 -19 -24 -20
1 5 5 5 5 3 -0 3 -0 -4 -5 -5 -5 -3 -3 -3 -1 -2 1 1 2 2 3 5 5 7 11 13 11 12 10 9 9 6 -4 -4 -3 -1 -1 -2 -2 -2 -2 -3 -6 -13 -20 -20 -18
3 3 4 4 3 2 -0 3 1 -3 -4 -5 -5 -5 -6 -5 -6 -2 0 2 2 2 3 4 6 8 12 12 12 11 10 9 8 2 -4 -3 -3 -2 -2 -3 -2 -2 -3 -5 -9 -15 -18 -17 -18
5 5 1 4 3 4 1 -1 -4 -5 -5 -4 -4 -6 -6 -8 -7 -6 -3 2 2 3 4 5 7 10 11 12 10 11 10 9 5 -4 -4 -4 -4 -3 -3 -3 -3 -3 -4 -7 -11 -15 -16 -17 -16
3 2 5 4 5 4 0 -0 0 -4 -8 -6 -2 -2 -2 -2 -5 -7 -3 1 3 4 5 8 9 10 11 11 11 11 10 6 -2 -4 -4 -5 -4 -3 -3 -3 -3 -4 -6 -9 -13 -15 -16 -15 -13
4 5 5 5 5 4 2 -2 -4 -5 -5 -1 -1 -1 -0 -1 -3 -5 -4 2 4 6 8 9 10 11 10 11 10 8 3 -3 -4 -3 -4 -5 -4 -3 -4 -3 -4 -5 -8 -12 -15 -15 -14 -12 -12
1 2 2 4 3 4 2 1 -5 -5 0 -1 -1 0 0 0 -0 -1 -0 2 6 8 10 11 11 10 10 9 6 2 -3 -3 -2 -3 -4 -4 -4 -4 -3 -3 -5 -8 -11 -14 -15 -14 -13 -13 -14

GFSSGP_850_dewp_006.txt.gz
Dewpoint
2 2 2 2 2 1 1 -0 -2 -0 0 -1 -3 -2 1 1 5 6 6 6 5 5 13 14 15 15 13 12 10 9 8 5 9 11 10 10 10 10 10 7 4 2 2 -0 0 3 6 8 11
2 2 2 1 2 3 0 -1 -2 -1 -1 -3 -1 0 1 2 5 8 8 5 4 5 15 16 15 15 14 12 10 10 9 6 3 11 8 8 10 10 10 4 4 1 -0 -1 0 -0 -3 -3 -1
3 2 2 2 2 2 1 -1 -3 -1 -1 -2 -0 2 2 3 8 9 5 2 2 7 10 15 14 15 14 12 11 11 9 5 3 8 10 10 8 7 7 9 7 4 1 1 1 1 2 2 2
5 4 2 2 2 1 0 -2 -2 -1 -1 -1 -2 -1 2 3 8 8 5 5 2 10 11 11 13 15 14 14 13 12 8 5 3 10 10 10 11 11 10 10 8 8 2 2 2 3 2 2 2
5 3 2 3 2 -0 -0 -1 -0 -1 -1 -1 -1 -1 -1 3 4 6 7 5 6 13 15 13 14 15 14 14 14 13 8 5 3 10 10 10 11 11 11 11 10 9 5 3 3 4 11 6 6
4 3 3 3 1 -0 0 -1 -1 -1 -1 -1 -1 -1 -1 2 4 4 6 4 5 9 15 14 15 15 14 14 14 13 6 2 2 9 10 10 10 12 11 11 10 8 6 5 5 8 9 9 10
3 3 2 1 1 0 0 -0 -1 -1 -2 -1 -1 -1 -0 3 6 5 5 4 4 9 14 14 14 15 14 14 14 13 6 3 3 7 10 11 11 11 12 12 10 9 4 3 7 9 10 10 10
5 3 3 3 2 2 -1 0 -1 -1 -2 -2 -1 -1 -1 4 6 4 6 5 6 9 14 14 14 13 14 14 14 12 7 7 3 3 5 9 11 11 11 10 9 9 3 6 9 10 11 11 10
7 5 4 3 3 1 1 1 1 -0 -1 -0 0 0 1 0 4 7 8 9 11 11 14 14 14 14 14 14 14 13 8 12 7 3 -0 1 5 8 9 7 6 3 3 7 9 10 10 9 8
5 5 3 0 2 1 1 1 1 1 1 0 1 1 2 1 2 10 11 12 12 13 10 8 14 15 14 13 13 13 11 11 11 7 1 -2 -0 4 5 2 1 4 8 9 9 10 9 8 8
5 5 2 4 4 3 2 3 3 2 2 1 1 1 2 3 5 7 8 9 12 13 13 9 10 14 14 13 13 13 12 13 12 7 3 -4 -2 2 1 4 8 10 10 9 10 10 9 8 5
5 4 4 4 5 6 6 5 5 3 1 1 2 2 4 4 4 3 6 8 10 13 12 8 9 10 12 14 13 14 13 12 12 10 4 -1 -0 1 6 11 9 10 9 9 9 9 8 3 -5
6 3 5 5 6 6 5 5 5 4 4 5 5 5 5 5 4 3 3 6 9 10 9 9 7 8 10 13 14 14 13 12 12 11 3 7 8 10 9 10 9 10 9 9 9 5 -5 -6 -7
4 5 4 4 4 4 5 4 4 4 4 4 4 3 4 4 4 3 3 3 6 7 5 8 5 5 7 11 12 13 13 13 12 11 7 10 11 10 11 10 10 10 10 8 -2 -6 -6 -8 -9
5 5 2 2 3 3 4 4 3 1 2 2 3 2 2 2 3 4 3 3 2 4 7 4 5 4 5 10 13 13 13 12 12 12 11 11 10 10 10 10 10 10 8 -5 -5 -6 -9 -13 -16
4 4 5 2 2 1 2 3 -0 3 3 2 2 2 1 1 1 2 3 3 3 3 2 2 2 3 3 8 13 13 13 12 13 12 11 11 10 10 10 10 9 9 -5 -5 -5 -8 -13 -15 -15
3 3 4 2 1 2 3 3 1 1 2 3 1 2 2 3 2 1 2 3 3 3 3 2 2 2 5 12 12 13 13 13 12 11 11 10 11 10 10 9 8 -5 -4 -3 -5 -7 -10 -13 -16
1 4 2 1 0 2 2 2 0 1 1 1 1 2 2 3 3 2 2 2 2 3 2 1 2 2 4 12 13 12 13 13 12 12 11 11 11 10 9 8 -6 -3 -1 -1 -2 -3 -6 -11 -17
0 2 2 1 0 2 1 1 -0 -1 -1 -0 0 0 0 1 2 3 3 4 3 3 2 2 2 2 3 7 8 11 12 12 12 12 12 12 11 9 7 -7 -3 0 -0 -1 -1 -2 -5 -10 -18
2 2 2 -0 -1 0 0 0 -1 -2 -2 -2 -2 -1 -1 -1 0 1 3 3 3 3 3 2 2 2 3 5 8 8 11 12 12 12 12 11 10 7 -5 -3 0 0 -0 -0 -0 -1 -5 -11 -19
2 3 2 2 -0 -1 1 1 -3 -6 -6 -6 -4 -4 -4 -3 -2 -0 0 1 3 3 2 3 2 3 4 7 11 11 11 12 12 12 11 10 4 -1 -5 -1 -0 -0 -0 -0 -0 -1 -4 -13 -19
3 -1 0 2 2 3 -1 3 -3 -5 -5 -5 -5 -4 -4 -3 -3 -2 -1 -1 1 2 2 2 3 4 5 8 10 10 8 11 12 12 11 8 1 -5 -2 -0 -0 -0 -0 -0 -0 -2 -5 -13 -20
2 -0 0 1 2 2 1 5 -2 -4 -3 -4 -5 -6 -6 -5 -4 -2 -2 -1 -0 0 -1 2 3 5 5 7 10 12 11 12 11 11 10 5 -3 -3 -1 -0 -1 -1 -1 -1 -1 -2 -7 -13 -18
-0 1 1 1 2 5 1 0 -1 -4 -5 -7 -7 -6 -7 -4 -3 -2 1 1 0 3 0 3 5 7 7 9 11 12 11 10 11 10 7 -0 -3 -2 -1 -1 -1 -1 -1 -1 -2 -3 -7 -14 -17
1 3 3 5 5 3 -5 -2 -2 -5 -6 -6 -7 -8 -7 -5 -3 -2 -0 1 2 3 0 3 6 6 8 11 12 12 12 11 11 8 5 3 -3 -2 -1 -1 -2 -2 -2 -2 -2 -5 -9 -14 -16
2 2 2 1 -2 -2 -4 1 -3 -7 -7 -6 -6 -7 -7 -5 -5 -6 -2 1 4 5 1 4 7 7 8 12 12 13 12 11 10 8 6 -0 -4 -2 -2 -2 -3 -2 -2 -3 -4 -6 -10 -14 -16
2 5 1 4 3 5 -1 -1 -5 -6 -5 -6 -7 -8 -3 -2 -1 -2 -4 -0 5 6 3 6 8 8 9 12 12 12 11 10 8 7 2 -4 -3 -3 -2 -3 -3 -3 -3 -4 -5 -8 -12 -15 -15
2 1 4 5 4 3 -1 -1 -3 -6 -7 -9 -9 -5 -3 -2 -0 -0 -2 1 5 7 6 8 8 8 10 10 12 12 10 9 8 6 -1 -4 -4 -4 -3 -4 -4 -3 -4 -5 -7 -10 -13 -14 -13
3 4 5 3 4 2 0 -4 -8 -6 -5 -2 -3 -3 -1 0 1 2 -1 3 6 7 8 8 7 8 9 11 12 11 10 9 7 1 -4 -4 -5 -5 -4 -4 -4 -4 -5 -6 -9 -12 -14 -14 -14
-1 1 1 5 5 5 2 0 -8 -7 -8 -4 -4 -3 -1 1 3 3 1 5 7 7 7 7 8 9 11 11 11 10 10 7 2 -4 -5 -5 -5 -5 -5 -5 -4 -5 -6 -8 -10 -13 -15 -16 -16

GFSSGP_850_dewp_009.txt.gz
Dewpoint
3 5 4 2 2 1 2 -0 -4 -2 -3 -3 -1 -2 1 1 3 7 11 12 12 14 15 13 14 14 12 11 10 9 7 7 12 11 10 10 11 10 10 8 3 0 -2 -3 -1 4 7 10 10
5 4 3 1 3 3 1 -2 -2 -5 -2 -2 -2 -1 -0 2 3 9 11 9 12 14 15 15 14 15 13 11 10 9 7 3 11 10 6 9 9 8 6 4 1 -1 -1 -2 -1 -1 -4 -2 1
3 3 2 2 2 2 1 -1 -3 -3 -2 -1 -1 1 1 3 7 8 11 8 12 14 15 15 13 14 13 11 10 10 6 2 3 9 9 9 10 9 7 7 6 2 0 0 0 1 2 1 2
5 3 1 3 2 -0 -1 -2 -4 -2 -3 -1 -1 -1 2 4 7 9 11 11 11 14 15 16 15 14 14 14 11 11 6 3 7 10 9 9 7 8 10 9 9 6 2 2 2 5 8 4 3
5 2 3 2 1 -2 -3 -3 -2 -3 -3 -2 -1 -0 0 5 8 11 11 11 12 14 16 15 15 14 14 14 13 12 5 3 8 10 10 10 11 11 11 11 9 9 4 3 4 9 10 8 9
3 1 3 2 0 -1 -3 -2 -2 -3 -3 -3 -2 -1 -0 5 8 11 12 12 11 13 15 15 15 14 14 14 13 13 6 2 7 10 10 10 10 11 11 11 10 9 6 3 7 8 10 10 10
4 3 2 1 -0 -2 -3 -2 -2 -2 -3 -3 -3 -2 -0 2 10 11 12 12 12 13 14 15 15 14 14 14 13 13 7 2 5 9 10 10 10 11 11 12 11 10 6 3 8 9 10 10 10
4 2 3 1 -0 -1 -3 -3 -1 -2 -3 -3 -2 -2 -2 6 11 12 12 12 12 13 14 15 15 15 14 14 13 13 8 3 2 6 9 10 11 11 11 11 11 10 4 3 8 9 10 9 8
6 6 4 2 -0 -1 -3 -2 -1 -2 -2 -3 -2 -2 1 5 10 11 12 12 13 13 14 14 14 14 15 13 13 13 11 9 3 2 3 7 11 11 11 9 8 5 2 6 8 8 10 8 6
5 5 2 -2 -3 -1 -2 -1 -1 -0 -1 -3 -2 -1 1 3 6 9 10 11 12 13 13 13 13 13 15 14 13 13 12 10 7 4 -0 7 9 9 11 5 3 1 5 8 8 9 9 8 7
3 4 -0 -1 2 2 1 -0 -1 -0 1 -1 -2 -1 0 2 3 6 7 8 11 12 13 14 14 14 14 15 15 13 13 13 13 12 9 7 1 2 4 4 4 9 8 9 9 9 8 7 3
3 1 1 0 1 4 3 1 1 1 0 -0 -1 -0 1 2 2 3 4 6 7 11 12 14 14 15 14 14 14 14 13 13 13 12 11 7 9 6 9 11 12 11 9 8 9 9 7 -3 -6
4 3 0 1 3 3 3 3 3 3 3 2 2 2 3 3 3 3 3 4 6 9 12 13 14 13 15 14 14 14 13 12 12 13 12 10 10 10 11 10 9 8 9 9 9 5 -5 -6 -8
2 3 2 3 3 3 4 3 2 2 2 2 2 3 3 3 3 3 3 3 4 7 10 12 14 13 12 14 15 14 13 12 12 13 12 11 11 11 9 9 10 9 9 9 3 -5 -7 -8 -13
4 5 2 2 2 2 2 3 3 1 1 1 1 1 1 1 1 2 3 3 3 4 7 10 12 14 9 12 14 14 13 13 13 13 11 11 12 11 10 10 10 9 9 4 -5 -6 -7 -11 -15
4 3 5 1 1 0 1 3 -1 0 1 1 0 -0 -1 -0 0 1 2 3 3 3 4 7 10 12 14 7 12 14 13 13 13 12 12 12 11 9 10 10 9 9 7 -5 -4 -4 -6 -9 -14
3 4 3 2 -1 0 2 3 -1 0 -0 -1 -0 1 0 1 -0 -1 0 1 2 3 3 3 6 10 13 8 12 14 14 13 13 13 13 11 10 10 10 9 9 9 -5 -2 -2 -3 -4 -8 -13
3 4 2 -0 -3 0 1 1 -1 -2 -2 0 0 -0 -1 -0 0 1 0 -0 2 3 3 3 4 6 11 12 13 14 13 13 13 12 11 11 10 11 10 10 9 -4 -2 -1 -1 -1 -3 -7 -14
0 0 -1 -2 -3 -1 -1 -1 -3 -4 -4 -2 -2 -2 -1 -1 -1 1 2 1 1 2 3 3 3 6 9 12 12 13 13 13 13 12 11 11 11 11 10 9 -1 -2 -0 -0 -0 -1 -2 -7 -14
1 1 1 -2 -3 -1 -1 -1 -3 -4 -4 -4 -4 -3 -3 -3 -2 -1 -0 2 3 3 4 4 5 7 10 11 8 13 13 13 13 12 11 11 12 10 9 4 -5 -0 -0 0 0 0 -3 -6 -12
1 2 1 1 -1 -1 -0 0 -2 -4 -4 -5 -5 -5 -4 -4 -3 -3 -2 -0 2 2 3 4 6 9 10 6 7 13 13 12 12 12 12 12 12 9 6 -5 -1 -0 -0 0 0 0 -2 -7 -12
2 -1 -1 0 2 3 -1 3 -3 -7 -6 -6 -6 -6 -6 -5 -5 -4 -4 -2 -1 2 3 4 7 11 9 5 8 11 7 12 12 11 12 11 10 5 0 -3 -0 -0 -0 0 0 -0 -1 -6 -12
1 0 0 0 2 2 0 2 -2 -7 -7 -9 -9 -6 -6 -5 -6 -6 -4 -4 -3 -1 2 4 8 11 12 6 8 11 11 12 12 12 12 10 8 4 -2 -1 -1 -1 -1 -0 -0 -0 -2 -5 -11
-0 0 0 0 2 5 0 -1 -2 -6 -10 -10 -10 -8 -8 -8 -7 -5 -4 -4 -2 -2 1 3 8 10 11 6 11 10 10 10 11 11 11 10 7 -1 -2 -1 -1 -1 -1 -1 -0 -1 -2 -5 -10
1 2 4 5 6 4 -6 -4 -4 -8 -9 -10 -9 -8 -8 -8 -8 -6 -4 -2 1 -0 0 5 11 11 11 9 9 11 10 10 11 10 11 10 6 -1 -2 -1 -1 -2 -1 -1 -1 -1 -2 -6 -11
2 1 3 2 -1 -2 -5 -2 -5 -8 -10 -9 -8 -8 -8 -8 -8 -3 -2 -5 -0 2 2 8 11 11 10 9 9 11 10 10 11 10 10 9 4 -1 -2 -1 -2 -2 -2 -2 -2 -2 -3 -7 -11
2 4 0 3 1 3 -2 -4 -6 -8 -8 -8 -8 -8 -8 -9 -3 -2 -0 -2 -3 1 3 8 10 11 9 9 11 10 10 11 10 10 9 5 -2 -1 -2 -2 -3 -2 -2 -2 -3 -3 -5 -9 -12
1 -1 4 5 4 2 -3 -4 -4 -7 -8 -10 -9 -9 -9 -6 -3 -1 1 0 -2 2 6 8 10 10 10 10 10 10 11 11 10 10 4 -0 0 -3 -2 -3 -3 -3 -3 -3 -3 -5 -7 -10 -13
2 3 5 2 4 5 4 -1 -7 -7 -6 -5 -3 -5 -4 -3 -2 1 2 1 0 5 7 9 9 9 9 9 10 10 10 10 9 5 2 3 -2 -3 -4 -4 -4 -3 -3 -4 -5 -6 -9 -12 -14
-1 1 1 5 3 4 3 2 -6 -7 -7 -8 -6 -6 -5 -6 -2 2 3 1 4 7 8 8 9 8 6 8 10 10 10 9 4 3 1 -2 -4 -4 -5 -5 -4 -4 -4 -5 -6 -9 -12 -15 -17

GFSSGP_850_dewp_012.txt.gz
Dewpoint
2 6 4 3 6 5 5 3 -3 -2 -3 -3 -2 -2 -1 -1 6 13 12 12 12 9 9 12 12 10 8 7 7 7 5 12 11 8 11 12 11 10 8 5 -2 -4 -5 -3 -1 3 9 10 9
2 5 3 3 6 6 4 1 -1 -4 -2 -2 -3 -3 -1 1 7 10 12 12 14 13 9 9 10 10 11 9 8 7 4 12 9 7 10 11 9 8 -0 -1 -2 -2 -3 -3 -3 -3 -6 -4 -2
2 5 3 5 5 5 4 -0 -2 -3 -3 -2 -2 -2 -1 5 7 11 11 12 15 15 12 11 13 13 12 10 9 6 3 6 8 6 8 9 8 6 4 6 2 0 -0 -1 -1 -0 -1 -1 -0
5 4 2 4 4 2 1 -1 -3 -3 -4 -2 -1 -1 2 4 8 9 8 12 14 15 15 13 14 14 14 12 10 7 2 2 8 8 8 10 7 8 8 8 7 3 2 2 4 8 6 5 6
5 4 5 4 3 1 -2 -3 -3 -2 -3 -3 -2 -1 3 6 7 9 9 11 13 15 15 15 13 14 13 13 11 6 2 4 8 8 7 7 9 10 10 8 7 5 3 3 7 9 8 9 10
4 2 5 5 3 -0 -2 -4 -3 -2 -3 -4 -3 -3 2 6 9 11 11 11 13 14 15 15 13 14 14 13 11 6 2 1 7 9 9 10 10 11 11 10 8 6 2 3 7 9 11 10 10
5 5 5 3 2 -0 -2 -4 -2 -2 -2 -3 -4 -3 0 7 9 11 12 11 12 15 16 14 13 14 14 13 12 9 4 0 6 8 9 10 10 11 11 11 11 10 4 3 8 9 9 9 8
4 5 6 3 2 1 -2 -4 -2 -2 -2 -3 -2 -2 0 9 11 12 12 12 12 14 15 15 14 14 14 13 13 9 5 1 5 6 9 10 10 11 11 12 11 11 4 4 7 8 8 8 6
4 6 6 4 2 1 -3 -2 -3 -2 -2 -3 -2 -2 1 9 11 12 12 12 12 13 14 15 14 14 14 13 13 12 9 3 1 6 6 9 10 11 11 10 9 7 2 5 7 6 8 7 6
4 8 7 2 -0 -0 1 -2 -2 -1 -1 -2 -2 -3 1 2 7 11 12 12 12 13 14 14 14 15 14 15 14 13 10 6 2 3 3 6 10 11 9 8 6 2 3 6 7 8 8 7 6
4 6 2 0 -1 -0 2 2 0 -1 1 -1 -2 -3 -1 1 3 7 10 10 12 12 13 13 13 14 14 14 13 13 12 9 6 6 4 9 9 9 10 5 2 5 7 6 7 7 7 6 -2
4 2 2 1 1 1 3 2 2 1 -0 -1 -1 -1 -1 1 2 3 5 7 9 11 12 13 13 13 14 14 14 13 13 11 10 11 10 8 4 4 6 11 11 11 9 7 8 8 7 -4 -6
3 2 0 0 1 1 2 3 3 3 2 2 1 1 1 2 2 2 2 3 5 9 11 13 13 14 14 13 14 13 12 13 11 12 12 8 7 5 10 11 11 9 8 8 9 7 -4 -7 -8
2 2 3 2 2 2 3 3 3 2 2 2 2 2 2 2 3 3 3 3 3 6 10 12 13 14 15 14 14 14 12 12 12 12 12 9 9 10 12 11 8 8 9 9 8 -3 -6 -6 -10
3 5 4 3 2 3 2 3 3 2 2 2 1 1 2 2 2 3 3 3 3 3 7 11 13 13 13 14 14 14 13 13 12 12 12 10 11 11 11 9 10 10 9 8 -3 -4 -4 -6 -10
4 4 6 1 1 1 2 5 1 -0 1 1 1 1 -0 1 1 1 2 2 2 3 4 8 11 13 12 9 14 14 13 13 12 12 12 11 11 11 11 10 10 10 9 1 -4 -3 -4 -6 -10
4 5 5 3 1 1 1 3 1 -0 -1 -0 0 -0 0 -0 -1 -0 0 0 2 3 3 5 9 12 12 10 12 13 13 13 13 12 12 11 11 11 9 10 9 9 7 -4 -2 -2 -2 -5 -10
4 5 3 2 0 -0 1 2 -1 -1 -2 -2 -1 -0 0 0 -0 0 0 -1 -0 1 2 3 6 10 12 9 11 13 13 13 12 12 12 12 12 10 10 10 9 9 -4 -1 -1 -1 -2 -5 -11
2 3 2 -1 -3 -2 -1 -2 -2 -3 -4 -4 -3 -2 -2 -1 -1 -1 -0 0 1 -0 1 3 3 4 10 12 12 12 13 12 12 12 12 12 11 10 10 10 9 6 -2 -1 -0 -0 -1 -4 -11
2 3 2 -0 -2 -1 -1 -0 -2 -3 -3 -4 -4 -4 -4 -3 -2 -2 -1 -0 1 1 0 2 3 4 5 11 10 10 12 12 12 13 13 12 11 10 10 9 8 -4 -1 -0 0 0 -0 -2 -9
2 2 2 1 -0 -1 -1 0 -1 -4 -3 -3 -4 -4 -4 -4 -4 -3 -3 -2 -0 1 2 3 3 4 4 10 11 12 13 12 12 12 13 11 11 11 11 9 2 -3 -0 0 1 1 0 -1 -6
2 -0 0 1 2 3 -0 4 -1 -4 -6 -5 -5 -5 -5 -5 -5 -5 -4 -4 -2 -0 1 3 4 4 5 8 11 9 9 12 12 12 12 12 11 11 10 7 -3 -1 -0 0 0 0 0 -1 -4
1 0 1 1 2 2 1 3 -1 -4 -4 -7 -9 -8 -7 -6 -6 -5 -5 -5 -4 -4 0 1 3 4 7 9 10 10 11 12 12 12 11 11 11 10 8 2 -2 -1 -0 -0 -0 0 0 -1 -3
-1 1 0 1 2 3 2 1 -2 -5 -5 -7 -10 -11 -8 -8 -7 -6 -7 -5 -4 -4 -4 1 2 4 9 9 11 9 11 12 12 11 11 11 10 9 4 -0 -1 -1 -1 -1 -0 -0 -0 -1 -3
1 2 5 5 5 4 -2 -0 -3 -6 -7 -9 -9 -9 -10 -10 -9 -8 -8 -3 -2 -3 -3 -4 3 4 9 10 11 11 11 11 10 11 11 11 9 7 4 -1 -1 -1 -1 -1 -1 -1 -1 -1 -3
3 2 4 4 4 3 -1 2 -3 -8 -9 -10 -9 -9 -9 -8 -8 -8 -3 -2 -1 -1 -2 -1 1 6 10 11 11 11 10 10 10 11 11 10 9 8 3 1 -1 -1 -1 -1 -1 -1 -1 -2 -4
2 3 1 4 2 3 0 -4 -6 -7 -7 -8 -9 -9 -8 -8 -8 -7 -3 -1 0 -0 0 1 3 6 10 11 11 10 10 9 9 10 10 10 9 6 4 -1 -2 -2 -2 -2 -2 -2 -2 -3 -5
1 -1 4 4 3 3 -1 -2 -2 -5 -6 -6 -7 -6 -5 -5 -4 -3 -2 0 0 -0 -1 2 5 5 10 11 11 9 10 10 9 10 9 9 8 5 -1 -2 -2 -2 -3 -3 -2 -2 -3 -4 -7
2 3 3 3 4 4 4 -0 -6 -5 -6 -6 -5 -4 -5 -4 -4 -5 -3 1 1 -0 -1 1 6 8 9 10 9 9 9 9 9 9 8 8 6 -0 -2 -3 -3 -3 -3 -3 -2 -3 -3 -5 -10
0 2 2 5 2 3 4 3 -4 -4 -6 -7 -7 -7 -6 -6 -5 -4 1 1 1 1 2 5 6 9 10 9 9 9 9 9 7 4 6 5 1 -2 -3 -4 -4 -4 -3 -3 -3 -3 -5 -8 -13

GFSSGP_850_dewp_015.txt.gz
Dewpoint
3 3 4 4 5 4 5 4 1 -2 -2 -2 -3 -2 -2 -0 3 11 10 11 12 8 11 6 4 2 3 3 1 -1 8 9 5 11 12 12 11 9 5 -1 -5 -5 -4 -2 -0 10 9 9 9
3 2 4 3 6 7 6 2 1 -3 -2 -3 -3 -4 -2 9 9 11 11 12 12 9 10 7 7 4 4 3 2 1 8 8 8 10 12 11 10 4 -3 -3 -3 -3 -3 -3 -4 -6 -4 -3 -5
2 4 5 5 5 6 5 0 -2 -2 -3 -2 -1 -2 -1 8 10 10 11 12 12 10 10 9 8 6 6 5 3 1 3 5 5 8 10 10 7 1 2 0 -0 -0 -1 -1 -1 -1 -1 -1 -0
3 5 4 4 5 3 2 0 -3 -3 -3 -4 -1 -1 4 8 8 10 11 11 14 12 9 9 8 7 9 6 2 -0 -2 3 5 6 9 9 6 4 4 3 1 0 1 2 6 4 5 6 6
5 6 5 4 3 1 -0 -1 -2 -2 -3 -3 -2 -1 6 9 8 7 11 12 14 14 11 11 11 12 9 7 0 -3 -2 4 7 7 9 8 7 8 6 4 2 1 1 4 7 7 9 8 8
5 4 6 7 5 1 -1 -2 -3 -2 -2 -3 -3 -3 2 8 5 8 11 12 14 15 15 14 12 13 11 9 -1 -4 -3 4 7 5 6 7 10 11 10 6 3 0 1 4 6 9 9 9 8
5 5 5 4 3 2 -0 -2 -2 -2 -3 -3 -3 -3 7 10 11 10 10 12 14 15 15 16 14 13 13 12 7 -2 -3 -0 7 8 9 9 10 11 11 11 6 2 0 3 6 7 7 8 6
5 5 6 5 4 3 -1 -2 -3 -2 -2 -2 -2 -2 10 11 11 11 11 12 13 15 15 15 14 13 13 13 11 4 -1 -2 2 6 9 9 10 11 11 11 10 9 1 3 6 6 7 7 5
4 7 7 6 5 3 -0 0 -1 -2 -2 -2 -2 -2 7 10 12 12 11 11 13 14 14 15 14 13 13 13 13 11 5 -1 0 5 9 10 10 11 12 11 10 8 1 4 6 6 7 7 6
4 7 7 4 2 1 0 2 2 -1 -1 -2 -2 -2 7 4 9 12 12 12 12 13 14 15 15 13 14 14 13 12 9 3 -1 2 5 9 10 10 10 9 8 5 3 6 7 7 7 7 5
4 6 5 4 3 1 2 2 2 1 0 -1 -2 -2 1 1 2 8 11 12 12 13 14 14 15 14 13 13 13 13 12 8 2 0 2 7 9 8 9 7 5 3 5 7 6 6 7 6 -3
5 3 3 2 2 2 2 2 3 3 1 2 0 -0 0 1 2 3 10 11 11 12 13 13 14 13 14 13 13 13 13 12 7 3 1 5 7 9 9 8 8 9 9 7 7 8 7 -2 -7
3 2 2 2 1 2 1 2 3 3 3 2 1 1 2 1 2 3 4 6 8 11 12 13 13 13 13 13 13 13 13 11 8 6 9 6 8 6 8 10 11 10 9 7 8 8 -1 -6 -6
2 2 3 3 3 3 3 3 3 3 2 2 2 2 2 2 2 2 2 2 3 6 11 12 13 13 13 14 14 13 13 12 12 11 11 10 4 5 9 11 11 10 7 8 9 4 -5 -4 -7
3 4 4 3 3 3 2 4 4 3 3 3 2 2 1 2 2 2 2 2 3 3 7 11 12 13 13 14 14 13 13 12 12 11 12 11 7 7 9 11 11 8 9 9 8 -4 -3 -5 -7
4 4 7 3 2 3 3 5 2 1 2 2 2 2 1 1 1 1 2 3 3 3 4 8 10 12 12 12 13 14 13 13 12 12 12 11 9 10 10 10 9 9 9 9 -1 -3 -3 -4 -7
4 6 6 5 1 2 3 4 1 1 0 0 0 1 1 1 0 1 1 1 2 3 2 4 7 8 10 12 12 12 13 13 12 12 12 11 10 11 11 11 9 10 9 7 -3 -2 -2 -4 -8
5 6 3 3 1 1 1 2 1 -0 -1 -2 -2 -1 0 0 -0 -0 -0 -0 0 1 1 2 5 8 9 10 11 11 13 12 12 12 12 11 11 11 11 11 10 9 9 2 -2 -1 -1 -3 -9
3 3 3 1 -1 -1 -1 -0 -2 -4 -4 -3 -4 -4 -3 -2 -1 0 -0 -1 0 -1 -0 1 4 8 10 10 11 12 12 12 12 12 12 11 11 11 11 9 10 9 9 -3 -1 -0 -1 -3 -8
2 4 3 0 -1 -1 -0 -0 -2 -3 -3 -3 -3 -4 -4 -4 -4 -2 -1 -1 -1 -1 -0 -1 -0 5 9 9 9 10 10 12 12 12 12 12 11 11 11 10 10 9 6 -2 -0 -0 -0 -1 -4
2 3 2 2 0 -1 -0 0 -1 -3 -3 -3 -3 -3 -4 -4 -4 -4 -4 -3 -2 -2 -1 1 0 3 7 10 9 10 11 11 12 12 12 12 11 12 11 10 9 7 -1 -1 0 0 0 -0 -2
3 0 1 2 2 3 -0 4 1 -2 -4 -5 -3 -3 -4 -4 -4 -5 -5 -4 -4 -3 -3 -1 1 3 4 5 7 7 9 10 11 12 12 11 12 12 11 10 9 4 -3 -1 0 0 0 0 -0
1 0 1 1 2 2 1 2 1 -2 -3 -5 -7 -9 -9 -6 -5 -5 -6 -6 -5 -5 -4 -2 -0 2 4 5 6 6 6 9 9 10 11 11 11 11 11 10 7 -1 -1 -0 -0 -0 0 0 0
-0 0 0 1 1 2 1 1 -1 -4 -5 -6 -8 -10 -11 -9 -8 -6 -7 -6 -5 -5 -5 -4 -2 1 2 4 5 6 6 7 9 10 11 11 11 10 10 9 6 -1 -1 -0 -0 -1 -0 0 0
1 1 1 4 5 3 -0 2 -1 -6 -7 -7 -8 -9 -10 -10 -9 -9 -8 -8 -5 -3 -3 -3 -4 -3 1 1 5 6 6 7 8 10 11 11 10 10 10 7 6 -1 -1 -1 -1 -1 -1 -0 -0
2 1 2 4 4 3 -0 2 -2 -6 -7 -8 -9 -9 -9 -9 -10 -9 -7 -6 -3 -2 -3 -3 -2 -3 -3 5 6 8 8 10 10 11 11 10 10 10 9 7 2 -1 -1 -1 -1 -1 -1 -1 -1
2 3 0 2 1 1 1 -2 -5 -7 -8 -7 -7 -7 -7 -9 -9 -8 -4 -2 -1 -1 -3 -3 -1 -1 -1 2 7 8 10 10 10 11 10 10 10 9 8 4 0 -1 1 -2 -2 -2 -1 -1 -1
1 -0 2 0 2 4 1 -1 -1 -5 -6 -6 -4 -5 -5 -4 -4 -4 -4 -4 -3 -3 -4 -3 -1 0 0 2 6 8 9 9 10 10 10 9 9 7 5 3 -1 3 -2 -2 -2 -2 -2 -2 -2
2 2 2 2 3 3 4 1 -5 -4 -5 -5 -7 -7 -5 -5 -6 -6 -6 -6 -5 -6 -7 -5 -2 1 3 4 6 9 10 9 10 10 9 9 8 5 3 0 3 -2 -3 -3 -3 -3 -2 -2 -3
0 1 2 2 1 2 2 2 -4 -5 -5 -5 -4 -4 -5 -4 -3 -4 -5 -4 -6 -5 -3 -1 -0 4 4 6 7 8 9 10 9 8 8 8 7 3 2 3 -2 -3 -4 -4 -3 -3 -3 -3 -7

GFSSGP_850_dewp_018.txt.gz
Dewpoint
3 2 4 3 3 4 5 5 2 2 -2 -2 -3 -2 -2 3 3 8 9 11 12 11 9 8 1 0 -1 -1 -3 -6 -3 -3 1 8 10 11 10 9 5 -4 -7 -6 -4 -3 11 11 10 10 10
4 3 4 4 6 7 6 2 2 0 -2 -3 -3 -2 -0 9 9 9 10 11 12 9 8 7 3 2 1 -1 -5 -5 -3 -0 12 12 12 11 10 -3 -7 -6 -6 -5 -5 -3 5 8 7 2 -5
3 2 4 5 5 7 5 2 -1 -2 -3 -2 -2 -2 3 8 9 7 10 10 12 9 7 6 6 4 3 -1 -5 -5 -4 0 6 11 12 11 4 -4 -4 -3 -3 -4 -3 -3 -3 -3 -2 -1 1
2 5 5 5 7 4 3 0 -0 -2 -3 -3 -1 -1 6 8 9 9 9 9 11 10 7 7 7 6 5 1 -4 -5 -4 -1 0 7 11 8 -1 0 -0 -1 -1 -0 1 3 2 3 4 5 5
5 5 5 5 4 2 0 0 -0 -1 -3 -3 -2 -1 6 8 9 8 8 8 11 9 8 8 9 8 6 3 -1 -5 -4 0 3 7 7 9 1 3 2 1 1 2 5 9 6 8 8 8 8
6 5 7 6 5 2 0 -1 -2 -2 -3 -3 -2 -3 6 8 8 6 9 10 12 11 9 10 10 10 9 6 0 -4 -3 -0 2 7 7 5 8 8 5 3 1 1 4 6 8 8 8 7 5
5 4 6 5 4 3 1 -1 -2 -2 -2 -3 -3 -2 9 10 10 8 11 13 14 14 12 12 11 11 10 7 2 -2 -1 -0 3 5 5 8 10 11 10 6 3 1 4 6 7 6 7 6 4
5 4 6 4 4 3 0 -1 -2 -2 -2 -3 -2 4 10 9 11 12 12 13 14 14 14 14 14 13 11 10 6 1 0 2 4 7 8 10 10 11 11 10 8 5 2 4 5 6 6 6 5
5 6 7 6 5 3 1 1 -0 -1 -2 -2 -2 0 2 9 11 11 11 13 14 14 12 12 14 13 11 11 10 7 1 2 4 7 9 9 10 12 12 11 10 8 2 4 5 6 7 7 6
4 7 7 4 3 3 1 2 2 -0 -1 -2 -2 2 8 10 11 11 11 12 13 13 13 11 13 13 12 12 12 10 5 0 3 6 7 9 10 11 11 11 10 7 2 5 5 6 7 7 5
4 6 4 4 4 3 2 2 2 1 0 -1 -1 5 9 11 12 10 12 11 11 12 13 13 12 13 13 13 13 12 9 4 0 4 6 8 8 9 10 10 8 5 2 4 6 6 7 6 -1
5 4 3 3 3 3 2 1 3 3 1 1 2 1 6 10 12 12 11 11 11 12 12 13 13 13 14 13 13 12 12 9 3 -0 3 4 5 6 7 7 6 3 3 5 6 7 7 3 -5
3 3 3 2 2 3 2 2 2 3 3 1 2 3 2 2 1 7 11 12 12 11 11 12 12 13 13 13 13 13 13 12 10 4 1 1 2 4 6 8 7 6 7 7 6 8 7 -3 -6
2 2 2 2 2 3 3 3 2 2 1 1 1 1 2 2 2 2 4 8 11 12 12 11 12 12 13 13 13 13 13 12 11 8 4 2 2 5 7 8 9 8 8 7 8 8 3 -5 -5
3 4 3 3 3 3 3 3 4 2 2 2 1 -1 -1 1 1 2 2 2 3 3 6 12 11 11 11 12 13 13 13 13 12 11 9 9 8 6 4 7 9 9 10 7 8 7 -3 -4 -5
4 4 6 3 2 2 3 5 2 1 2 2 2 1 1 -2 -1 1 2 2 2 3 3 7 11 11 11 12 13 13 13 12 12 12 11 10 11 7 5 8 9 11 9 9 9 3 -3 -3 -4
4 6 6 5 2 2 3 5 2 1 1 1 1 1 0 -0 -0 -1 -0 1 1 2 2 3 10 10 11 11 11 11 12 12 12 12 11 12 11 10 7 8 10 11 9 9 8 -3 -2 -2 -6
5 6 4 4 1 1 2 4 2 1 0 -0 -1 -2 -2 -2 0 0 0 -0 0 1 1 2 2 8 9 10 9 10 12 12 12 11 12 12 12 11 10 11 10 10 9 9 6 -2 -1 -3 -7
3 4 4 2 -0 -1 -1 -1 -2 -3 -3 -3 -4 -4 -4 -3 -2 -1 -0 0 -0 0 0 0 1 2 8 9 9 9 11 12 11 12 12 11 12 11 10 11 11 11 9 9 2 -1 -1 -3 -7
4 4 4 1 -1 -1 -0 -0 -2 -3 -3 -3 -3 -4 -4 -5 -5 -4 -3 -2 -1 -0 -1 -0 -0 -0 3 8 8 9 8 10 10 12 12 12 11 11 10 11 11 10 9 8 -1 -1 -1 -1 -4
3 3 2 2 0 -1 -0 -2 -3 -3 -3 -4 -3 -4 -4 -4 -4 -5 -4 -3 -3 -2 -1 -1 -1 1 -0 2 8 9 9 10 11 11 11 12 11 11 11 11 11 10 9 6 -2 -1 -0 -1 -2
3 0 1 1 1 3 -0 3 0 -2 -4 -5 -5 -5 -4 -4 -4 -4 -6 -5 -5 -5 -5 -4 -2 -2 1 2 5 9 9 9 9 10 11 11 11 11 11 11 11 10 9 2 -2 -0 -0 -0 -0
2 -0 0 1 1 1 1 3 -0 -3 -3 -4 -6 -6 -7 -8 -7 -6 -6 -6 -6 -6 -6 -6 -5 -3 -1 2 4 7 8 8 8 8 9 9 10 11 11 11 11 10 8 -0 -1 -0 -0 -0 0
0 -0 0 1 1 1 0 2 -1 -4 -4 -7 -8 -9 -10 -10 -9 -7 -6 -6 -6 -6 -5 -5 -5 -4 -3 1 3 6 8 8 9 8 9 9 10 11 10 11 11 10 6 -1 -1 -0 -0 -0 -0
-0 0 1 -0 0 2 -0 2 0 -4 -6 -7 -7 -8 -9 -9 -10 -9 -9 -8 -8 -5 -4 -4 -4 -4 -4 -3 2 5 7 8 7 7 8 8 8 11 10 10 10 8 3 -1 -0 -0 -1 -1 -0
1 0 1 1 3 3 -0 2 -1 -5 -6 -7 -8 -8 -8 -9 -9 -9 -9 -8 -5 -3 -4 -3 -3 -4 -4 -3 -3 3 5 6 8 7 6 7 7 9 10 9 9 7 1 -0 -0 -1 -1 -1 -1
2 2 -0 1 0 -0 1 -1 -5 -7 -8 -6 -5 -5 -5 -5 -6 -8 -9 -3 -1 -1 -1 -2 -3 -3 -3 -3 -1 0 4 6 6 7 7 8 8 10 10 9 7 2 2 -1 -1 -1 -1 -2 -2
0 -0 1 -2 -0 3 1 -0 -2 -5 -6 -5 -6 -6 -5 -5 -5 -5 -4 -3 -4 -5 -5 -6 -4 -4 -5 -4 -2 0 2 6 7 7 7 8 10 11 9 9 4 1 -1 -1 -1 1 1 -2 -2
2 2 1 1 1 2 4 2 -4 -5 -6 -5 -6 -4 -3 -2 -2 -2 -5 -5 -4 -5 -6 -6 -7 -8 -9 -7 -1 1 3 6 7 8 9 10 10 10 8 8 3 -0 -2 0 3 1 -3 -3 -3
0 1 1 0 -0 1 1 2 -4 -5 -5 -4 -3 -1 1 1 -1 -2 -4 -4 -3 -3 -5 -5 -5 -5 -4 -3 -1 1 4 8 8 8 10 10 9 9 8 6 1 -2 2 1 0 -3 -4 -3 -3

GFSSGP_850_dewp_021.txt.gz
Dewpoint
4 3 3 4 3 4 5 4 2 2 -2 -2 -2 -2 -1 0 4 7 10 9 9 10 11 10 4 3 2 -1 -0 0 0 7 12 12 12 10 8 8 5 -2 -7 -7 -3 13 12 11 11 10 10
4 3 3 4 5 6 4 2 2 -0 -2 -2 -3 -2 4 9 9 8 10 9 11 10 7 8 3 1 -0 -0 -2 -2 -1 3 8 9 11 10 8 -6 -7 -7 -7 -5 -1 11 10 9 8 5 -3
4 3 4 4 6 6 4 2 -1 -1 -2 -2 -2 -1 4 7 9 8 8 9 11 10 7 4 3 2 1 -1 -2 0 -1 8 13 13 12 10 0 -7 -6 -6 -5 -5 -5 -2 2 -1 -3 -2 -0
3 3 3 5 7 5 3 0 -0 -0 -1 -3 -1 0 7 8 9 8 9 8 11 10 6 4 3 4 2 -1 -3 -1 -1 8 13 12 11 8 -5 -5 -4 -4 -3 -2 -1 -1 0 2 4 4 5
5 5 5 6 5 3 1 1 -0 -1 -2 -3 -2 0 5 8 8 9 9 8 10 10 8 6 4 5 5 0 -3 -2 -0 1 5 9 9 1 -3 -2 -2 -1 0 2 6 7 7 7 8 8 7
5 5 6 5 4 2 0 -0 -1 -2 -1 -2 -2 -0 5 6 6 7 8 9 12 10 9 8 6 7 6 3 -2 -3 1 1 1 5 5 -1 0 -0 -1 -0 1 4 6 8 9 10 8 6 5
6 5 7 4 3 2 1 -0 -1 -2 -2 -2 -3 -1 8 6 6 6 9 11 13 11 8 9 7 8 8 4 -0 -3 1 3 2 4 6 6 9 5 1 0 0 3 6 10 11 7 7 6 4
5 4 5 4 4 2 0 -1 -1 -2 -1 -2 -3 8 10 4 7 8 11 12 14 14 11 8 8 8 8 5 1 -3 1 3 4 4 5 9 10 11 9 5 2 1 7 6 6 6 6 6 5
5 6 7 4 3 2 1 1 0 0 -1 -2 -2 1 2 7 9 10 12 14 14 14 13 12 13 13 11 8 3 -1 -1 4 5 6 6 9 10 11 11 10 7 6 2 5 6 6 6 6 6
5 7 7 4 3 3 2 2 2 1 -0 -2 -2 -1 2 10 10 9 10 11 13 13 13 13 14 14 13 11 10 5 0 2 5 7 8 9 9 11 11 11 10 9 3 4 5 5 6 6 6
4 6 4 4 4 4 2 2 1 2 2 -1 -1 8 11 11 11 10 8 7 5 8 12 11 12 13 13 12 11 10 5 1 2 6 7 9 9 11 11 11 11 9 5 4 5 5 6 6 3
5 4 4 4 3 3 2 2 2 2 1 1 2 3 11 12 12 12 11 10 10 9 9 10 11 12 13 13 12 11 11 6 1 3 6 8 8 10 10 10 10 8 5 4 5 6 7 7 0
4 3 3 3 3 3 3 2 2 2 1 0 2 2 2 6 11 12 12 11 11 10 10 12 12 11 12 13 13 13 12 11 7 1 4 6 7 7 8 9 8 6 4 5 7 6 7 6 -3
3 3 2 2 2 2 3 3 2 2 1 1 1 1 1 2 2 2 2 11 12 11 10 10 11 11 12 12 12 13 13 12 12 9 3 2 4 6 8 8 8 6 7 7 6 7 8 3 -4
3 4 3 3 3 3 3 4 4 2 1 2 1 1 0 -0 0 1 2 3 9 12 12 12 11 11 12 13 13 13 12 13 12 11 11 5 2 4 7 8 8 9 7 8 7 8 7 -2 -4
4 4 6 3 2 2 3 5 2 1 2 2 1 0 -1 -1 -1 -1 -1 1 2 2 3 4 9 11 11 11 11 12 13 13 13 12 10 7 7 7 8 8 8 9 9 10 8 8 6 -3 -3
4 6 6 4 2 2 3 5 1 1 1 1 1 -0 -1 -0 -1 -1 -1 -2 0 2 2 2 2 7 11 11 11 11 11 13 13 13 11 10 10 10 11 6 7 9 10 10 8 9 3 -3 -3
5 6 5 5 1 1 1 2 2 2 1 1 1 1 0 -0 -1 -1 -1 -0 -0 -1 1 1 1 2 5 10 11 11 11 12 13 12 11 11 11 11 11 9 8 9 11 10 9 8 -1 -2 -4
2 4 4 2 0 -0 -0 -1 -2 -3 -3 -3 -3 -2 -1 -1 -2 -1 -1 -1 0 0 -0 -0 1 1 1 8 10 10 10 10 12 12 11 11 11 12 12 10 10 10 11 10 9 8 -2 -1 -5
5 6 5 2 -0 -0 -0 0 -2 -3 -3 -3 -3 -3 -4 -4 -4 -4 -2 -1 -2 -1 -1 -0 0 0 0 2 6 9 9 9 10 10 10 11 11 11 11 10 10 10 10 10 9 7 -2 -1 -4
4 4 3 3 0 -1 -0 -1 -3 -5 -4 -4 -4 -4 -4 -4 -5 -6 -6 -6 -4 -3 -2 -3 -1 -1 -1 -0 1 9 10 10 9 10 11 11 11 11 11 10 10 10 10 10 9 6 -1 -1 -2
3 0 1 1 1 3 -0 3 0 -3 -4 -4 -5 -5 -6 -5 -5 -5 -5 -5 -5 -6 -4 -3 -4 -4 -3 -2 1 4 7 9 9 8 9 10 10 10 11 10 10 10 10 11 9 4 -1 -0 -1
2 -0 0 0 1 1 1 2 0 -4 -4 -6 -7 -7 -7 -10 -9 -10 -9 -8 -6 -6 -6 -5 -5 -5 -4 -3 -3 2 5 8 8 9 9 9 9 9 10 10 11 11 11 11 9 3 -1 -0 -0
-0 -0 -0 0 0 1 -0 1 -1 -5 -5 -6 -7 -7 -8 -9 -9 -10 -9 -7 -6 -6 -6 -6 -6 -6 -5 -5 -3 -2 4 6 7 9 9 8 8 8 9 10 10 10 10 11 9 2 -0 -0 -0
-1 0 -0 -1 0 1 -0 2 -0 -3 -5 -7 -6 -8 -8 -8 -9 -9 -9 -9 -9 -9 -8 -6 -6 -6 -5 -5 -4 -2 1 4 5 7 9 8 8 8 8 9 9 10 10 11 8 0 -0 -0 -0
1 0 -0 -1 1 2 -0 3 -2 -5 -6 -7 -6 -5 -5 -5 -4 -4 -5 -8 -9 -6 -7 -6 -5 -4 -3 -3 -3 -3 -3 0 4 7 7 9 8 7 7 8 10 10 10 10 6 0 -0 -0 -1
2 1 -1 1 -1 -1 0 -2 -6 -7 -7 -6 -6 -6 -4 -3 -3 -2 -1 -2 -2 -0 -1 -2 -2 -3 -4 -4 -4 -4 -3 -1 2 4 7 8 8 7 7 7 9 10 10 10 5 2 -1 -1 -1
0 -0 1 -2 -3 2 -0 0 -2 -5 -6 -5 -6 -4 -3 -2 1 0 -1 -1 -1 -3 -2 -5 -5 -4 -4 -4 -6 -6 -6 -4 -1 2 6 6 7 8 7 8 9 9 8 7 5 1 -1 -1 -0
2 2 1 -0 0 1 3 0 -4 -5 -6 -5 -4 -3 -2 0 2 2 2 1 -2 -3 -5 -3 -5 -6 -6 -6 -6 -6 -6 -5 -1 0 5 7 8 8 8 9 8 8 7 4 2 0 -1 1 2
0 1 1 -0 -1 0 1 2 -4 -4 -5 -4 -3 -1 1 2 3 3 2 1 0 -1 -0 -0 -0 -2 -4 -4 -4 -6 -6 -2 1 3 4 8 9 9 9 9 8 6 2 1 0 -3 1 2 2

GFSSGP_850_dewp_027.txt.gz
Dewpoint
4 4 3 2 3 4 4 2 2 3 1 -2 -2 -1 1 1 7 7 8 10 7 6 6 12 13 14 11 10 6 11 13 13 12 12 12 11 11 10 7 5 -1 0 13 13 13 13 10 9 9
4 4 3 3 4 4 2 1 2 1 -1 -1 -2 4 4 7 9 8 10 10 8 5 5 3 3 0 2 4 5 13 14 13 12 12 12 10 7 1 -7 -9 -8 10 11 11 9 9 9 5 -4
4 4 3 5 4 4 2 0 1 0 -2 -2 -2 -0 3 9 9 8 8 7 9 5 4 3 -1 -0 0 0 2 14 14 13 13 13 9 7 -8 -9 -8 -7 -5 3 9 7 6 4 -3 -3 -3
4 4 3 5 6 4 -0 0 -0 -0 -1 -2 -2 1 7 9 9 8 9 9 8 8 6 3 -2 -1 -2 -3 -1 4 13 13 12 11 9 -4 -7 -7 -7 -7 -7 -1 3 2 -2 -2 1 2 2
4 4 6 6 5 3 2 1 0 0 -1 -2 -2 -1 4 9 9 8 9 9 9 9 7 3 -1 -0 -1 -3 -1 -0 8 13 13 12 8 -6 -5 -5 -5 -4 -4 -3 -2 -0 3 5 6 6 5
4 3 6 7 5 2 1 0 -0 -1 -2 -2 -2 -1 4 8 9 8 9 9 11 10 8 4 3 2 -0 -4 -3 -2 9 14 13 11 7 -4 -4 -2 -1 1 2 4 7 7 9 10 7 4 3
5 5 6 5 5 3 0 -1 -1 -1 -2 -2 -2 -1 1 6 7 7 9 10 11 11 10 7 4 3 2 -2 -4 -3 7 13 12 11 5 -2 -2 -1 -0 2 5 9 9 10 11 8 6 4 2
5 4 6 4 3 3 -1 -2 -2 -2 -1 -2 -2 -1 1 6 6 7 9 10 11 11 10 8 5 4 3 1 -3 -4 -1 2 11 13 7 0 1 0 -0 1 5 8 11 11 9 6 5 4 4
4 6 6 5 3 1 0 -0 1 0 0 -1 -2 -2 2 4 7 8 9 10 11 11 11 10 8 5 5 5 1 -2 -3 -0 1 9 11 6 6 5 3 2 2 6 11 8 6 5 5 6 5
5 6 5 2 1 1 1 1 1 1 1 -0 -1 4 2 4 9 8 8 6 8 11 11 11 9 7 7 7 5 3 -1 -1 0 2 10 9 10 11 10 8 5 3 3 5 5 5 5 6 6
5 6 4 4 1 2 3 3 2 1 2 0 0 4 9 9 12 11 11 11 9 10 11 12 10 9 11 11 10 7 1 -2 1 2 3 6 9 10 11 11 9 9 7 3 4 5 5 5 6
5 4 3 3 4 4 4 3 2 2 1 1 1 1 2 11 13 13 12 11 12 11 11 12 12 12 12 13 12 11 9 3 0 2 4 5 7 9 10 11 11 10 9 7 3 4 5 6 6
4 4 4 3 3 3 3 3 2 2 1 0 1 1 1 2 9 11 12 13 13 11 11 11 12 13 13 13 13 12 12 10 7 2 3 5 6 8 8 10 11 11 10 8 4 3 5 6 6
4 3 3 3 3 3 3 3 2 2 0 0 1 0 1 1 1 3 9 11 11 11 10 11 12 12 13 12 12 12 11 12 11 10 6 2 4 6 8 9 10 11 10 9 5 5 6 6 7
3 4 3 3 2 2 2 3 4 1 1 0 -1 -0 1 1 1 0 1 2 3 5 8 11 11 11 11 12 12 12 11 11 11 11 12 10 3 5 7 8 9 9 9 7 5 6 6 6 7
4 4 6 3 3 2 1 1 2 1 2 2 1 1 1 -1 -1 -0 -0 -0 -1 0 1 3 10 11 10 9 10 10 10 10 11 11 12 12 11 6 5 6 8 8 8 7 7 7 7 7 7
5 6 6 4 3 3 3 5 2 1 1 0 0 -0 0 0 -1 -3 -3 -2 -2 -2 -2 -1 2 9 11 9 9 9 9 10 10 10 11 12 12 12 10 7 7 8 8 8 9 8 8 8 7
6 6 5 4 1 3 3 3 1 -0 -2 -2 -2 -0 1 0 -0 -1 -1 -2 -2 -1 -1 -1 -1 3 7 10 10 9 9 10 9 9 9 10 11 12 12 11 6 6 8 9 9 9 9 8 7
3 4 5 3 1 1 2 1 -0 -1 -2 -2 -2 -2 -2 -1 -1 -1 -1 -2 -1 -1 -1 -1 -1 -1 1 2 4 5 3 6 9 9 9 9 10 11 12 11 8 6 8 9 9 9 10 8 7
3 4 4 3 -0 -0 0 0 -1 -2 -2 -2 -2 -3 -3 -3 -4 -5 -5 -5 -5 -4 -4 -4 -2 -0 0 0 2 2 2 3 4 7 8 9 9 9 10 11 10 10 10 9 9 10 10 9 6
5 5 4 4 0 -1 -0 1 -2 -4 -5 -6 -7 -7 -6 -5 -6 -9 -9 -7 -6 -6 -6 -6 -5 -2 -1 -0 0 1 2 4 4 4 6 7 9 9 8 9 9 11 11 9 8 9 9 9 8
6 2 2 1 2 4 -1 4 -1 -3 -6 -7 -7 -7 -8 -9 -7 -6 -7 -8 -7 -6 -5 -5 -5 -5 -4 -2 -2 0 1 2 2 2 3 5 8 9 9 9 9 9 10 10 9 9 9 10 9
3 -0 0 0 1 -0 0 1 -3 -6 -6 -6 -7 -4 -3 -3 -3 -3 -3 -4 -5 -8 -7 -6 -5 -5 -5 -3 -3 -3 -1 -1 -1 1 3 6 7 8 9 8 8 8 9 10 9 9 8 10 10
-1 -1 -1 -1 -0 2 -1 -0 -4 -6 -5 -5 -6 -5 -3 -2 -2 -3 -3 -3 -4 -5 -6 -7 -6 -6 -5 -5 -4 -3 -3 -4 -3 -2 -1 -0 4 6 9 9 8 9 8 9 9 10 9 9 10
-0 2 3 0 2 3 -1 1 -3 -5 -5 -5 -6 -4 -1 -0 -0 0 0 -1 -2 -3 -4 -4 -6 -4 -4 -5 -5 -5 -5 -4 -3 -2 1 3 2 4 5 8 8 9 8 8 9 10 10 9 10
1 1 3 0 -1 -1 -0 2 -3 -5 -6 -6 -5 -2 -0 0 2 2 2 2 1 0 -1 -2 -3 -2 -1 -2 -2 -2 -3 -3 -2 -3 -2 2 5 7 7 6 7 9 9 8 8 10 10 9 9
1 2 -2 0 -1 0 -2 -4 -7 -6 -6 -6 -4 -3 -1 0 3 2 2 2 2 1 0 0 -1 -3 -2 -3 -3 -3 -3 -2 -1 -0 1 4 5 5 7 7 8 8 8 9 8 10 11 9 9
0 -1 2 -0 -1 -1 -3 -2 -4 -5 -6 -5 -4 -3 -1 2 3 2 2 2 2 2 1 0 0 -1 -3 -2 -4 -4 -5 -5 -5 -5 -5 -1 2 4 6 6 7 8 9 9 10 10 10 8 7
1 2 0 -0 0 1 -1 -4 -5 -5 -6 -4 -4 -3 -1 3 2 2 2 2 2 3 2 2 1 1 -0 1 0 -1 -3 -4 -4 -5 -6 -7 -7 -4 3 7 9 9 10 10 10 10 8 7 4
-0 1 -1 1 0 1 1 -1 -5 -4 -5 -5 -4 -2 2 3 2 2 2 2 2 3 3 2 2 2 1 1 1 0 -1 -2 -3 -4 -5 -6 -7 -7 -2 6 9 9 9 9 9 8 7 5 3

GFSSGP_850_dewp_030.txt.gz
Dewpoint
3 3 3 3 3 1 0 -1 -1 1 1 -2 -2 -1 -0 1 3 4 8 11 11 14 15 13 15 15 15 14 14 14 14 14 13 12 12 11 11 11 9 6 1 10 14 14 14 12 8 8 6
4 4 3 3 3 2 -1 -2 -1 0 -0 -0 -1 -1 3 4 9 11 12 10 10 15 15 14 13 15 14 11 13 14 13 14 12 12 12 10 8 5 -2 -6 -0 12 13 13 13 11 6 -0 -5
4 4 4 3 3 2 -1 -2 -3 -1 -1 -2 -1 0 2 8 11 12 11 9 14 15 14 13 5 8 4 4 5 14 13 14 13 12 10 6 -4 -9 -9 -6 5 9 11 10 9 4 -4 -3 -3
5 4 3 4 4 1 -1 -1 -1 -1 -1 -2 -2 -0 6 8 11 12 8 9 14 14 14 5 -0 3 3 5 11 14 13 14 14 11 7 -5 -9 -9 -9 -6 1 6 7 5 -0 -3 -0 1 2
5 4 5 5 3 1 -0 -1 -0 -1 -2 -2 -2 -1 4 9 9 8 10 11 14 14 14 9 1 1 1 -1 2 14 14 14 13 10 4 -8 -8 -7 -7 -6 -3 -0 -1 -2 1 3 5 4 4
5 4 6 6 4 2 1 -0 -1 -2 -3 -3 -2 -2 4 8 9 10 10 14 15 14 14 13 4 2 2 1 1 8 13 13 13 11 3 -6 -6 -5 -4 -3 -2 -0 2 5 10 8 5 3 3
5 6 6 4 4 3 1 -0 -0 -3 -3 -5 -2 -2 3 11 8 8 11 15 12 14 14 14 9 3 3 -0 1 2 9 14 13 12 4 -4 -4 -3 -1 2 5 9 7 11 11 7 5 3 2
4 4 5 4 5 3 1 -0 -2 -3 -4 -2 -2 -2 1 11 8 8 9 15 11 14 13 14 13 5 5 4 5 8 13 14 13 11 6 -1 -2 -1 0 3 6 8 10 11 11 5 5 4 3
5 5 6 5 4 2 -1 -2 -1 -1 -2 -1 -2 0 6 4 8 10 10 10 11 11 12 13 13 12 12 13 5 6 8 12 13 12 6 1 8 2 1 3 5 9 10 10 5 4 4 5 5
2 4 2 1 1 1 -1 -2 -1 -0 -0 -1 0 3 2 1 9 11 11 11 11 11 10 10 10 12 12 12 10 5 6 6 11 12 10 10 12 12 11 3 3 6 9 6 4 4 4 5 5
2 2 0 1 0 -0 -0 -0 1 -1 0 -1 -1 2 9 6 11 14 13 13 12 12 11 10 10 12 11 12 13 13 12 11 12 12 13 12 13 12 11 11 6 5 5 4 4 4 5 5 5
4 1 0 2 3 2 1 1 1 0 -2 0 2 2 3 12 13 14 13 11 10 11 12 12 11 10 9 11 12 13 12 10 10 10 12 13 12 13 13 12 12 11 9 7 4 4 4 4 5
3 3 2 3 4 4 3 2 1 1 1 1 2 1 2 3 9 13 14 13 10 11 11 11 12 12 11 11 13 13 12 11 7 10 11 12 12 12 12 13 12 11 11 10 7 4 4 5 5
3 3 2 3 3 3 3 3 3 1 1 1 0 -1 0 1 2 4 9 11 13 13 13 11 11 12 12 12 12 12 12 12 11 10 8 9 10 10 12 12 10 12 12 11 9 5 4 5 6
3 4 3 3 2 2 2 3 3 1 -1 -1 -2 -2 0 0 1 2 3 5 6 8 11 14 10 11 11 11 12 12 12 12 10 11 11 9 6 9 11 11 8 13 12 11 10 7 4 6 6
3 2 5 0 1 2 1 -0 -1 -0 0 -1 -1 -2 -1 -1 -0 1 1 2 2 2 2 6 6 8 11 11 10 11 11 11 10 10 11 12 11 9 9 11 8 8 10 10 9 6 6 7 6
2 0 1 2 2 -0 1 -2 -2 -1 1 -0 -0 -1 -1 0 0 -1 -3 -1 -1 0 1 1 0 1 2 7 11 10 8 9 10 10 10 11 11 12 11 10 11 9 8 9 9 7 7 7 7
3 0 2 -0 1 3 3 1 1 1 0 -1 -1 -2 -2 -1 -0 -0 -0 -0 -2 -2 -2 -2 -2 -2 -0 5 6 11 10 9 10 8 8 10 10 11 11 11 10 11 8 8 9 8 8 8 7
1 1 1 1 1 2 1 1 1 -0 -1 -1 -2 -3 -3 -2 -2 -2 -2 -1 -1 -1 -1 -1 -1 -1 -1 5 4 6 10 9 9 8 7 9 9 9 9 11 11 11 9 7 8 9 9 8 8
2 2 2 2 -0 0 0 1 -1 -2 -2 -2 -2 -2 -2 -2 -3 -5 -6 -5 -5 -3 -2 -2 -2 -2 -1 -1 4 6 5 7 9 5 6 8 8 7 9 9 10 10 11 7 7 9 9 9 9
3 3 4 2 1 -1 -0 -0 -1 -4 -4 -6 -7 -7 -6 -5 -7 -6 -5 -7 -7 -6 -5 -4 -4 -4 -4 -2 -1 6 9 9 5 4 3 3 7 8 9 9 9 9 10 9 8 9 9 9 9
4 3 3 2 3 2 -1 -1 -1 -5 -6 -6 -6 -6 -4 -3 -2 -1 -1 -2 -5 -6 -5 -5 -5 -6 -6 -4 -2 5 10 7 2 1 2 2 3 5 10 8 9 9 8 9 9 10 8 8 9
3 2 1 1 2 2 0 1 -3 -6 -5 -4 -4 -3 -2 -2 -1 -1 -1 -3 -4 -4 -6 -7 -6 -6 -5 -5 -4 -0 9 10 10 10 5 2 2 3 5 7 8 9 9 8 10 11 9 8 9
-1 -0 -0 0 1 6 0 -0 -5 -6 -6 -5 -5 -3 -1 -0 0 1 1 -1 -1 -3 -4 -5 -7 -6 -4 -5 -5 -4 0 8 10 9 10 8 3 2 6 7 7 8 9 9 8 10 10 9 9
0 3 7 6 7 4 -1 -0 -4 -6 -6 -6 -4 -1 -1 0 1 2 2 2 1 -0 -1 -3 -4 -5 -4 -3 -4 -5 -4 4 10 10 10 9 9 2 2 3 7 7 7 8 9 9 11 10 9
2 3 5 4 1 -1 -1 -1 -4 -5 -6 -6 -4 -2 -0 1 2 3 2 3 2 1 1 0 -1 -2 -3 -2 -2 -1 -1 -3 -2 -2 -1 5 11 5 3 6 8 8 7 9 9 9 9 10 10
2 5 -2 2 -1 2 -4 -4 -6 -5 -5 -5 -5 -2 1 2 3 3 3 3 2 2 1 1 0 -0 -1 -2 -2 -3 -3 -3 7 9 5 -1 -1 2 9 8 9 9 10 9 9 9 9 9 10
1 -1 3 4 4 1 -5 -5 -4 -4 -5 -5 -3 -1 1 3 3 2 2 2 2 2 2 2 1 1 0 -1 -2 -2 -3 -4 -4 -3 -4 -5 -5 -2 1 4 6 8 9 10 10 10 10 10 10
1 2 0 -0 0 1 -5 -5 -7 -5 -4 -3 -3 -2 -0 3 2 1 1 2 2 2 2 3 2 2 2 1 0 -1 -0 -1 -3 -3 -3 -4 -4 -5 -5 -3 1 5 7 9 9 9 9 9 9
-0 0 -2 1 3 1 1 -3 -6 -5 -5 -5 -3 -2 1 3 2 1 1 2 2 1 2 2 2 2 2 2 1 1 1 0 -1 -1 -2 -3 -4 -3 -2 -2 2 5 8 9 8 9 9 8 7

GFSSGP_850_dewp_033.txt.gz
Dewpoint
3 6 5 4 3 1 1 -2 -4 -1 -2 -3 -2 -3 -3 -1 3 7 13 14 13 15 15 9 15 15 14 12 14 12 14 14 13 13 13 12 11 10 8 6 2 13 12 14 13 11 6 5 1
6 7 4 3 4 4 1 -3 -2 -2 -2 -1 -1 -2 -2 -1 8 13 14 13 14 15 15 13 13 15 15 13 14 14 14 14 13 12 11 9 7 3 -1 -1 10 13 13 13 12 11 3 -5 -7
3 6 4 3 4 4 1 -3 -5 -1 -2 -2 -2 -1 1 7 10 12 14 13 14 14 14 14 5 15 15 13 13 14 14 13 13 12 9 5 -3 -9 -7 -1 10 13 12 13 12 6 -5 -5 -3
5 5 4 5 4 2 -1 -3 -5 -1 -2 -2 -2 -0 4 10 11 13 14 13 14 14 14 14 9 13 14 14 14 14 14 14 14 12 6 -5 -10 -9 -7 -5 4 9 9 5 2 -5 -0 1 2
7 5 5 5 3 1 -1 -3 -2 -1 -2 -2 -2 -0 5 12 12 14 14 14 14 13 14 11 8 8 7 15 14 14 14 14 14 11 4 -9 -9 -9 -8 -4 1 4 3 -2 -2 2 4 4 3
5 4 6 6 4 0 -1 -2 -2 -2 -2 -3 -2 -2 7 13 13 14 14 14 14 13 14 12 9 3 3 10 11 14 14 14 13 10 2 -7 -8 -8 -7 -5 -2 -2 -2 2 5 5 3 2 1
8 6 7 4 2 2 -0 -1 -2 -4 -3 -3 -2 -2 6 12 14 14 14 14 14 14 14 14 6 2 3 3 5 13 14 13 13 10 4 -5 -5 -5 -4 -3 -2 1 5 11 9 5 3 2 1
8 7 7 5 3 2 -0 -1 -1 -2 -3 -3 -2 -2 1 12 10 12 14 14 14 14 14 13 13 4 3 0 2 8 11 13 13 12 6 -3 -2 -2 0 1 5 5 8 11 10 5 4 3 3
4 8 9 6 3 2 -1 0 -1 -2 -4 -3 -3 -0 8 13 7 9 14 15 14 15 14 13 13 12 12 13 5 7 13 14 13 13 10 -1 -2 -1 1 5 7 7 11 11 9 4 4 4 4
4 7 6 2 1 2 0 -1 -3 -1 -3 -4 -2 3 10 9 6 10 12 13 13 15 15 14 13 12 13 13 11 9 12 13 13 13 9 5 11 7 5 5 5 9 11 9 6 4 4 5 4
2 3 2 -0 0 1 -0 -1 -3 -1 -3 -4 -4 1 10 12 5 12 14 14 14 14 16 14 14 13 13 13 13 12 12 12 13 13 13 12 11 12 11 11 2 5 7 6 4 4 4 5 4
2 0 -2 -1 0 1 -1 -1 -1 -2 -4 -3 -1 2 3 11 12 13 14 14 14 13 14 12 12 14 13 13 13 13 13 12 11 12 13 12 12 12 12 12 11 10 11 11 5 4 4 4 5
3 -1 -1 0 2 1 -1 -2 -1 -2 -1 1 1 2 1 2 8 12 13 13 14 14 11 11 11 12 14 14 14 14 13 13 12 12 12 12 12 12 12 12 12 12 12 11 9 5 3 4 4
2 2 1 1 3 3 2 -0 0 -0 -1 -0 -1 -1 -1 1 2 5 11 12 13 14 14 11 12 12 12 13 14 15 14 13 12 12 12 12 12 12 12 12 12 12 13 12 10 8 5 3 3
2 3 2 1 1 2 2 2 2 0 -0 -1 -2 -2 -2 -3 -2 1 3 6 9 10 12 14 13 11 11 12 13 15 14 14 13 12 12 12 12 12 11 12 12 13 12 12 11 8 5 3 3
3 3 4 1 2 1 2 2 -1 -0 -0 -1 -2 -3 -4 -4 -3 -2 1 2 3 4 5 8 12 14 13 13 14 14 14 14 14 13 13 13 12 12 11 11 11 11 12 11 11 8 7 6 5
3 2 2 0 -0 1 2 1 -3 -3 -2 -2 -3 -3 -3 -3 -2 -3 -3 -0 1 2 3 3 5 10 13 14 13 10 13 14 14 14 14 13 13 13 12 12 12 11 12 11 11 9 9 6 5
1 0 -2 -2 2 1 1 1 -3 -1 -2 -2 -3 -3 -3 -3 -3 -2 -2 -3 -1 -0 0 1 2 3 7 11 13 8 6 10 13 13 13 14 13 13 13 12 12 12 11 12 10 8 8 7 6
-4 -1 -3 -4 0 1 1 -0 -2 -1 -1 -2 -3 -3 -4 -4 -4 -2 -1 -1 -1 -1 -0 1 1 1 2 4 8 10 5 2 5 11 13 14 13 13 13 12 12 12 12 12 11 8 8 8 7
0 -0 -1 -1 -0 1 -2 -0 -2 -2 -2 -3 -4 -4 -4 -4 -4 -3 -5 -4 -3 -3 -2 -1 0 1 1 1 3 7 10 2 1 3 8 10 11 11 13 12 10 11 11 12 11 9 8 8 8
-0 -0 -1 1 1 -0 0 -0 -1 -3 -3 -3 -5 -5 -5 -4 -4 -6 -4 -2 -1 -2 -5 -4 -2 -1 -1 -0 1 3 8 11 11 8 6 7 9 11 13 14 12 12 12 12 11 10 9 7 8
1 -1 1 2 2 -1 -1 -6 -1 -3 -5 -6 -6 -7 -6 -4 -3 -1 -1 0 1 -2 -6 -5 -5 -5 -5 -4 -3 -1 4 9 11 11 11 8 6 6 7 14 12 11 11 11 9 10 9 8 8
2 1 2 3 3 3 1 1 -2 -5 -4 -4 -4 -3 -2 -2 -1 -1 1 1 1 0 -4 -5 -6 -3 -2 -5 -5 -4 -1 4 9 10 11 11 11 7 4 10 13 12 11 9 9 10 9 9 8
1 1 2 2 2 6 2 -1 -3 -5 -6 -4 -4 -3 -2 -2 -0 1 2 2 2 2 -2 -3 -5 -5 -4 -4 -4 -4 -2 4 7 9 10 10 11 11 12 11 12 12 12 10 9 9 10 10 9
1 3 7 7 8 6 -1 0 -3 -6 -7 -6 -5 -3 -2 -1 1 2 2 3 3 2 1 -0 -0 -1 -2 -2 -1 1 -0 -0 5 8 9 10 10 11 12 11 10 11 12 12 11 10 10 9 10
3 3 6 6 5 3 -2 0 -3 -7 -7 -6 -3 -2 -1 1 2 3 3 3 3 3 3 1 1 1 1 1 -0 1 1 3 2 3 8 10 8 9 10 10 8 7 10 11 10 10 10 10 10
4 5 -1 2 -2 1 -2 -4 -6 -6 -6 -7 -5 -3 -0 1 3 3 2 2 2 3 3 3 3 3 3 2 1 1 2 3 4 7 8 9 9 9 9 9 11 10 8 9 9 10 9 9 9
3 0 5 5 7 0 -3 -7 -4 -4 -5 -5 -5 -2 0 2 3 2 2 2 2 3 3 3 3 3 2 2 1 1 2 3 1 -1 5 8 7 6 -2 5 8 10 10 9 9 9 9 8 9
2 3 1 1 1 3 -4 -6 -6 -5 -5 -3 -3 -2 -1 2 3 2 1 2 2 2 2 2 3 3 2 2 1 1 2 2 1 1 1 4 6 3 -2 -3 -0 4 7 9 8 8 8 8 7
-0 0 -0 2 4 0 1 -2 -7 -4 -4 -4 -3 -1 -1 3 2 2 1 1 2 2 2 2 2 2 2 2 2 2 2 4 4 5 3 2 -0 -1 -2 -1 0 0 4 7 6 6 7 6 6

GFSSGP_850_dewp_036.txt.gz
Dewpoint
3 3 7 5 7 5 5 1 -4 -1 -3 -3 -2 -3 -2 -1 11 14 12 12 13 12 8 6 10 9 14 15 11 12 14 14 13 13 13 12 11 9 6 2 11 11 13 13 11 9 3 -1 -2
3 7 6 4 7 7 4 -0 -1 -3 -1 -1 -1 -2 -3 9 11 13 14 13 15 15 10 11 15 15 13 12 13 14 14 14 13 13 12 8 4 1 -1 9 13 13 13 12 11 8 -6 -8 -8
5 6 6 7 7 7 5 -1 -3 -1 -2 -2 -2 -3 -1 9 11 13 14 14 15 15 13 11 14 15 15 14 15 14 14 14 13 12 9 1 -7 -10 -7 11 13 13 13 13 12 -2 -5 -4 -2
4 6 5 7 6 4 2 -3 -4 -1 -2 -2 -1 0 8 11 12 13 13 14 14 14 14 10 10 8 14 13 14 13 14 14 13 12 5 -6 -10 -9 -8 -2 11 11 10 7 -0 -3 -0 1 1
7 7 7 7 6 3 0 -3 -3 -2 -2 -2 -2 3 11 12 13 13 14 14 14 14 15 13 6 10 4 9 10 14 13 13 13 10 2 -9 -9 -9 -7 -0 3 6 2 -3 -2 2 3 2 1
9 6 8 8 5 2 0 -3 -2 -2 -2 -3 -2 4 12 13 14 13 14 14 13 14 14 12 3 4 3 2 12 14 14 14 13 10 1 -8 -8 -8 -7 -2 1 0 -3 -1 4 4 2 1 0
8 9 8 7 5 3 1 -2 -2 -3 -3 -3 -2 1 12 14 14 14 14 14 13 14 14 8 1 0 1 5 11 14 14 13 13 10 1 -7 -6 -6 -6 -4 -4 -3 1 6 4 3 2 1 0
7 7 9 7 7 5 0 -1 -1 -2 -3 -3 -2 5 13 15 14 14 14 14 14 14 14 12 5 1 0 -0 4 12 14 14 13 11 5 -6 -5 -4 -3 -1 1 2 6 9 5 2 2 2 2
7 9 10 9 8 5 -0 0 -1 -2 -3 -3 -2 6 13 13 11 14 14 14 14 14 14 13 13 6 3 1 1 3 12 13 13 11 9 -2 -4 -3 0 2 7 6 8 9 6 2 3 3 3
5 9 8 6 6 5 1 -0 -0 -2 -2 -3 -1 7 11 7 8 13 15 14 14 15 14 13 13 12 12 12 5 4 9 13 13 13 8 2 -2 0 0 2 3 6 9 8 6 3 3 3 4
4 7 6 7 6 3 1 -0 -1 -2 -1 -3 -3 5 11 9 9 8 10 9 11 13 14 14 13 13 13 13 12 6 10 12 11 10 6 4 7 11 9 6 5 4 6 6 4 3 3 3 3
4 3 2 1 1 1 1 -1 -1 -2 -2 -3 -3 3 9 10 8 6 8 12 12 14 13 14 14 13 13 13 13 11 11 11 10 12 12 10 10 11 11 8 9 2 2 4 2 2 4 3 4
4 2 0 0 2 2 0 -1 -1 -1 -1 1 1 1 2 5 10 10 9 13 14 12 13 13 13 14 13 13 13 13 13 12 11 11 12 12 11 12 11 12 12 11 9 9 9 6 4 2 3
2 2 1 -0 2 2 1 -1 -1 -1 -1 0 0 -0 0 1 2 8 11 11 13 14 13 10 10 11 12 14 13 13 14 13 13 11 11 12 13 12 12 11 12 12 12 12 11 10 7 5 3
2 3 2 1 2 2 2 3 1 -1 -1 -1 -0 -1 -1 -2 -1 1 3 9 12 13 13 12 10 9 11 12 13 14 13 14 14 13 12 11 11 12 12 12 11 11 12 12 12 11 9 6 4
3 3 5 2 1 1 2 4 1 -0 0 0 -1 -1 -2 -2 -3 -3 -1 2 4 8 10 12 13 13 12 10 12 14 14 14 14 13 13 12 12 12 12 12 11 11 10 12 12 11 10 7 5
4 5 5 3 1 2 2 3 -0 -1 -0 -0 -0 -1 -3 -3 -4 -3 -3 -3 1 2 4 5 6 11 12 10 12 13 13 14 14 13 12 13 13 12 12 12 11 11 12 11 12 11 11 9 7
6 4 3 3 2 2 3 3 -1 -2 -2 -3 -2 -3 -3 -3 -3 -3 -3 -3 -3 -1 1 2 2 3 6 12 13 13 11 12 13 14 14 12 12 12 11 11 12 11 11 12 11 10 11 10 8
0 1 1 -1 1 2 2 2 -0 -2 -1 -1 -2 -2 -3 -4 -4 -4 -3 -2 -1 -1 -0 0 1 1 1 2 7 11 11 7 7 8 9 14 14 13 11 10 9 12 11 11 11 11 11 9 7
-1 0 -0 -2 0 1 0 1 -1 -2 -1 -1 -2 -3 -4 -4 -5 -3 -2 -2 -2 -2 -2 -2 -1 -0 0 1 2 4 7 9 7 4 4 8 10 13 14 12 11 9 12 12 11 12 11 10 7
0 1 -1 1 1 -0 0 0 -1 -2 -3 -3 -3 -4 -3 -4 -4 -5 -4 -2 -1 -3 -4 -3 -2 -1 0 1 1 2 3 4 10 10 6 0 3 10 11 13 12 13 11 12 11 11 11 11 8
1 -1 -1 2 3 3 -0 -3 -2 -1 -2 -4 -5 -6 -6 -5 -5 -3 -1 0 1 1 -4 -5 -4 -4 -4 -3 -1 0 0 0 2 7 9 8 7 5 5 9 11 11 12 12 12 10 9 11 10
1 1 2 2 3 3 2 2 -1 -3 -3 -4 -4 -3 -3 -3 -2 -1 0 0 2 1 -3 -4 -4 -3 0 -1 -3 -5 -5 -4 -2 5 9 11 11 10 9 9 8 11 11 12 12 12 10 8 9
1 2 2 2 3 6 3 1 -0 -2 -4 -4 -3 -3 -2 -2 -0 0 2 2 2 1 -1 -2 -2 -2 -2 -1 -1 -2 -2 -4 -3 2 7 9 10 10 10 10 11 11 10 11 11 11 11 11 10
2 3 7 7 6 6 -0 1 -1 -6 -5 -4 -4 -2 -2 -1 1 2 3 3 3 2 1 1 0 -0 -0 -0 -1 -1 1 3 1 -1 5 7 9 10 10 10 11 11 10 10 10 11 11 10 10
3 3 6 5 6 4 -1 2 -2 -6 -6 -5 -3 -2 -1 0 2 3 3 2 2 2 2 2 1 1 1 2 1 0 0 1 2 4 4 3 7 9 10 10 10 9 10 10 9 9 9 10 9
5 6 -1 3 -2 3 -0 -3 -5 -6 -6 -4 -4 -3 -1 1 3 2 2 2 1 2 2 2 2 2 2 2 2 1 1 2 2 2 5 8 9 9 9 8 8 9 8 9 9 8 8 8 9
3 1 5 5 4 3 -1 -2 -2 -4 -4 -6 -4 -5 -1 1 3 2 2 2 2 2 2 1 1 1 2 2 2 1 1 2 2 2 -0 2 7 7 5 -0 -1 4 8 8 8 8 8 8 9
4 5 3 2 3 6 1 -3 -5 -5 -6 -5 -5 -3 -1 0 3 2 2 2 2 2 2 2 2 2 2 2 2 2 2 3 4 4 5 4 4 6 4 1 -1 -1 -1 3 5 7 7 7 7
3 4 3 6 4 1 2 -1 -6 -5 -4 -3 -3 -2 -1 1 3 2 1 1 1 2 2 2 2 1 2 2 2 2 2 3 3 4 5 5 5 4 1 0 0 0 -0 -1 -0 3 3 3 6

GFSSGP_850_dewp_042.txt.gz
Dewpoint
4 3 4 5 5 5 7 5 -2 -2 -1 -2 -2 7 10 9 10 8 13 12 12 12 4 4 11 10 14 11 12 12 11 11 12 10 10 7 6 2 4 10 13 13 11 8 -2 -7 -3 1 6
4 3 5 5 7 8 6 2 1 -2 -2 -2 -2 6 10 13 13 13 14 13 12 11 4 4 9 9 10 11 12 12 13 12 11 9 6 2 -0 12 12 11 13 13 10 6 -7 -10 -9 -8 -3
4 3 5 6 7 7 6 1 -1 -2 -2 -2 -2 7 10 13 12 13 12 13 13 9 5 6 7 13 10 11 13 13 13 13 11 9 -1 -6 -4 13 13 13 13 13 11 5 -6 -5 -6 -6 -7
4 4 5 7 9 6 4 3 -1 -2 -2 -2 3 11 12 13 12 12 13 13 14 10 8 8 12 15 11 12 13 13 13 13 13 6 -7 -12 -9 12 11 11 11 11 10 -3 -2 -1 -1 -1 -1
4 5 9 7 7 5 3 3 -1 -2 -2 -2 3 11 13 13 13 13 13 14 14 11 10 15 14 13 13 13 14 14 14 13 11 4 -10 -12 -11 -10 5 7 6 4 -1 -3 0 0 0 1 1
6 7 10 10 7 4 3 3 1 -2 -2 5 11 13 13 13 14 14 14 15 14 12 10 9 13 11 14 14 14 13 13 12 7 3 -9 -10 -10 -9 -5 -2 1 -2 -4 0 1 -1 -1 -1 -0
6 9 10 9 8 7 4 5 -1 -3 -3 -1 10 12 14 13 14 14 15 14 14 13 12 12 9 5 13 13 12 14 14 12 4 2 -7 -9 -9 -8 -4 -1 -1 -3 -1 2 -0 -1 -1 -1 -1
5 7 8 8 8 8 6 5 3 -3 -3 0 10 13 14 14 14 14 14 14 14 14 14 13 12 3 8 10 9 13 13 12 5 -2 -7 -7 -7 -7 -5 -4 -4 -2 2 2 1 0 -0 -0 -1
6 9 9 8 8 8 6 6 5 -0 1 4 8 12 13 13 14 14 14 14 14 14 13 11 6 3 2 5 4 11 12 11 8 2 -4 -8 -7 -6 -5 -4 -3 -1 3 4 2 1 1 1 1
7 8 7 5 5 7 7 7 7 2 2 11 12 13 14 14 14 14 14 14 14 14 13 10 5 1 0 1 2 3 6 9 7 4 1 -5 -6 -5 -4 -3 -0 1 3 6 4 2 2 2 2
8 8 5 4 4 8 8 7 7 4 -1 7 11 13 14 13 12 13 14 13 13 14 13 13 12 11 4 1 0 1 2 4 6 6 4 3 -3 -4 -3 -1 0 2 2 5 6 4 1 2 2
9 6 5 6 8 7 8 8 7 3 -0 -1 -2 4 11 10 11 11 13 14 14 14 13 13 13 12 11 9 8 5 2 2 5 5 6 5 3 -1 -0 0 0 1 1 2 3 3 3 2 2
5 6 6 7 8 8 8 7 7 6 1 -1 2 6 4 8 9 11 13 14 14 14 13 13 13 12 11 11 10 10 9 4 5 8 7 9 9 5 5 7 8 9 7 7 3 1 2 2 2
5 4 6 7 8 8 8 7 7 3 0 4 8 10 8 7 6 8 7 9 12 14 13 12 12 12 11 11 12 11 10 11 11 11 11 10 10 10 10 10 10 11 11 10 10 8 7 7 7
4 5 4 4 4 4 6 7 6 3 2 2 2 2 2 4 8 6 8 10 10 9 9 12 13 12 11 11 11 12 12 12 12 12 13 12 11 10 10 11 11 12 12 11 11 11 10 9 9
4 4 6 3 3 3 4 6 4 2 1 -0 0 -0 -1 -1 -1 -0 4 6 8 11 12 12 12 12 12 12 12 12 12 11 13 13 13 13 13 12 11 11 10 11 12 12 11 10 11 11 10
6 7 5 4 3 3 1 3 1 0 1 -0 0 -0 -1 -1 -2 -2 -2 -0 4 4 7 9 12 13 13 12 12 12 12 12 12 13 13 13 13 12 12 11 11 11 12 12 11 11 11 11 10
6 6 4 4 3 3 4 3 1 -0 -1 -1 -0 0 -0 -0 -1 -1 -2 -3 -3 -1 3 7 9 7 8 12 12 12 12 13 13 13 12 13 13 13 13 12 12 11 12 12 11 11 11 11 11
4 3 5 3 2 3 3 3 2 1 -1 -1 -0 -0 -0 -2 -3 -3 -3 -3 -3 -3 -3 3 3 2 3 7 10 10 10 10 10 11 11 10 10 11 11 11 11 12 12 12 11 11 11 10 10
3 4 3 1 1 3 3 4 2 1 0 -1 -2 -2 -2 -3 -3 -4 -3 -3 -3 -3 -2 -1 0 1 1 2 4 6 8 8 11 10 11 11 11 11 11 10 10 10 11 12 11 11 11 10 9
3 4 2 2 1 0 1 1 1 0 -0 0 -1 -2 -3 -2 -3 -4 -3 -3 -2 -2 -2 -2 -2 -1 -1 -0 0 1 2 2 4 6 6 7 7 8 10 9 10 11 10 10 10 10 11 10 9
4 -1 -0 2 3 5 -1 4 -2 -1 -0 -1 -1 -2 -2 -2 -4 -4 -4 -3 -3 -3 -3 -4 -4 -4 -4 -3 -2 -1 -1 0 1 1 2 2 2 2 3 5 7 7 8 10 10 10 10 11 11
2 -0 2 2 3 3 1 1 -1 -2 -1 -1 -2 -3 -3 -4 -4 -3 -2 -2 -2 -3 -4 -6 -6 -5 -5 -4 -4 -4 -3 -3 -3 -2 -1 -1 -1 -1 0 4 7 8 8 7 10 9 10 10 10
1 2 2 2 2 4 3 2 1 -1 -2 -3 -5 -5 -6 -4 -1 -0 -0 -0 -1 -0 -1 -3 -3 -3 -3 -4 -5 -5 -5 -5 -5 -4 -4 -4 -4 -4 -2 1 5 7 10 9 9 9 10 10 10
1 2 4 6 4 4 1 2 1 -2 -4 -4 -3 -3 -3 -1 0 1 1 1 1 1 0 -0 -0 -0 -0 -1 -1 -1 -1 -1 -2 -3 -3 -2 -3 -4 -2 5 8 10 9 10 9 9 9 8 7
2 1 3 5 5 4 -1 3 -0 -5 -6 -5 -3 -2 -2 -1 0 1 1 2 1 1 1 1 1 0 0 0 0 0 0 1 1 1 0 0 0 1 1 3 6 9 8 7 7 8 8 6 7
4 5 0 1 -0 1 1 -1 -4 -4 -3 -3 -3 -2 -2 -1 2 2 2 2 1 1 1 1 1 1 0 0 -0 -0 0 1 1 2 2 1 1 3 7 7 7 7 6 7 6 5 4 6 7
3 1 4 2 3 3 0 0 -1 -3 -2 -2 -2 -1 -1 1 2 2 2 2 2 1 1 1 1 1 1 0 0 0 1 1 1 2 2 2 2 2 5 7 6 7 4 -0 -3 -2 -2 0 1
4 5 4 3 3 4 2 -0 -6 -4 -3 -2 -2 -1 1 2 2 2 2 2 2 2 1 2 2 1 1 1 1 1 1 2 2 2 3 3 3 4 4 5 5 4 1 -1 -1 -0 0 0 1
4 4 3 6 4 1 1 0 -6 -6 -5 -3 -3 -2 -3 0 2 2 2 2 2 1 1 1 1 1 1 1 1 1 1 1 2 2 3 4 4 4 4 4 4 3 1 1 1 1 1 2 3

GFSSGP_850_dewp_045.txt.gz
Dewpoint
4 3 2 3 6 5 6 5 0 -2 -2 -2 -2 3 4 10 9 7 11 8 9 3 4 14 11 12 13 15 13 13 13 13 12 6 6 4 2 4 8 12 12 10 6 -5 -8 -1 4 9 8
4 3 3 5 6 8 6 3 2 -2 -2 5 7 9 11 12 12 13 12 12 11 5 3 14 13 12 11 12 14 14 14 12 5 3 0 -1 4 8 11 13 13 11 4 -7 -11 -9 -6 -1 4
5 3 4 5 7 7 5 2 3 -1 -1 -2 2 9 12 12 12 12 13 12 13 10 2 13 10 14 10 12 12 13 14 10 5 -1 -6 -5 11 13 12 13 12 11 6 -6 -6 -8 -9 -7 -2
4 5 5 7 8 6 4 3 2 -1 -2 -2 6 11 13 13 11 11 12 13 12 9 3 8 9 11 11 11 13 13 12 10 9 1 -10 -8 13 13 11 11 11 9 2 -4 -2 -2 -3 -4 -5
4 5 8 7 7 6 3 3 3 1 -1 -1 7 12 13 13 13 12 13 13 12 7 5 7 11 13 10 12 14 12 9 4 9 1 -11 -10 6 5 8 8 6 4 -4 -2 -1 -1 -0 -0 -0
5 7 9 10 8 5 4 5 3 -1 -2 7 11 13 13 13 13 13 14 14 13 9 7 9 15 13 11 13 13 13 12 8 3 -3 -10 -10 -9 -2 5 5 3 -2 -3 0 -1 -1 -1 -0 1
7 8 9 9 9 7 5 5 2 2 -3 2 10 13 14 14 14 14 15 15 14 11 9 8 10 12 13 14 14 14 12 10 3 -5 -10 -9 -8 -8 -5 -2 -1 -4 -0 1 -0 -1 -1 -1 0
7 7 9 8 8 8 6 6 6 6 -2 6 11 13 13 14 14 15 15 14 14 12 11 9 7 10 14 14 14 14 14 12 6 -1 -9 -9 -9 -7 -4 -3 -3 -4 0 1 0 -0 -0 -0 0
6 8 8 8 8 7 6 7 6 4 4 8 10 12 12 14 14 15 15 14 14 14 14 14 13 8 10 12 11 13 13 12 10 4 -4 -7 -7 -7 -5 -4 -4 -2 1 1 1 0 0 1 0
8 9 7 4 5 8 7 7 7 6 5 9 12 13 13 14 14 15 14 14 14 14 13 12 11 6 5 9 8 8 10 10 9 8 3 -6 -6 -5 -5 -4 -3 -1 2 4 3 1 1 2 2
8 8 5 5 5 8 8 7 7 6 4 2 6 13 13 14 14 14 14 14 13 13 13 9 6 3 2 3 5 5 5 8 8 9 6 4 -4 -5 -4 -3 -2 0 1 2 4 4 2 1 2
8 6 5 6 7 6 7 7 8 7 5 4 3 14 12 12 13 14 14 13 13 13 13 12 12 9 4 2 2 2 3 4 6 6 6 4 4 -2 -4 -4 -2 -1 -0 1 2 4 4 3 2
7 6 5 7 8 7 7 8 9 7 5 3 1 10 10 10 11 13 13 13 13 13 12 12 12 12 11 9 9 7 7 6 3 5 6 6 6 5 0 2 5 7 8 6 6 5 2 2 2
6 6 7 7 7 7 7 7 8 6 5 3 6 10 9 10 11 13 13 13 13 13 13 12 11 11 11 11 11 11 11 10 7 8 9 9 9 9 9 9 9 9 9 10 10 10 10 8 8
5 7 8 8 7 8 8 9 9 5 5 5 4 9 8 10 11 11 11 12 13 13 13 12 12 12 12 11 11 11 11 11 11 11 12 12 11 10 10 10 10 10 11 11 12 11 11 10 10
5 6 8 6 7 7 6 7 7 5 5 4 2 4 7 7 8 8 8 9 9 9 12 11 13 12 12 12 11 11 12 11 11 12 12 12 12 12 12 11 10 10 11 12 12 12 12 11 11
5 7 6 5 5 6 5 5 3 3 4 3 2 0 -1 -1 -1 -1 2 6 7 8 11 12 12 12 13 12 12 12 12 12 12 12 12 13 13 12 12 12 11 11 11 11 12 12 12 12 11
7 6 5 5 4 6 6 3 4 4 4 1 1 1 -0 -1 -1 -1 -2 -2 5 4 5 8 12 13 13 13 13 13 13 13 13 13 13 12 12 13 13 13 13 12 12 12 12 12 12 12 11
4 4 5 3 3 4 6 3 4 4 4 -1 -1 -0 -0 -0 -1 -1 -2 -2 -2 -2 0 4 6 9 11 11 11 13 12 12 12 12 13 13 13 12 12 12 12 12 12 12 12 12 12 11 11
4 4 4 2 2 4 3 4 2 1 2 1 -0 -1 -0 -1 -2 -3 -3 -3 -2 -3 -2 -1 2 4 4 4 5 9 10 10 9 9 10 11 12 11 10 11 11 11 11 11 11 10 10 10 10
3 4 3 3 2 1 2 3 3 2 1 1 0 -0 -2 -2 -2 -3 -3 -3 -2 -2 -2 -1 -1 0 1 1 2 3 5 6 6 6 6 9 11 11 12 11 10 11 11 10 10 10 10 10 10
5 0 1 2 3 6 1 7 0 1 1 0 0 0 -0 -2 -3 -3 -3 -3 -2 -2 -2 -2 -2 -2 -2 -2 -2 -1 -1 -0 1 1 1 2 3 3 4 3 3 5 6 6 8 8 9 10 10
3 -1 0 2 3 2 1 3 1 -3 -2 -1 -1 -0 -1 -1 -3 -4 -3 -3 -3 -3 -3 -4 -4 -4 -4 -4 -3 -2 -2 -2 -2 -2 -2 -1 -1 -0 0 0 0 0 5 6 8 9 10 9 10
1 1 1 2 2 5 3 3 2 -1 -3 -4 -4 -3 -2 -2 -4 -3 -2 -2 -2 -2 -2 -3 -4 -4 -5 -5 -4 -3 -3 -3 -4 -4 -4 -4 -4 -4 -4 -4 -3 -1 4 7 9 10 10 9 8
1 2 7 6 4 4 1 2 1 -2 -4 -4 -4 -5 -3 -3 -3 -1 -1 -0 -1 -1 -0 -1 -1 -2 -2 -2 -2 -2 -2 -2 -2 -2 -2 -2 -3 -3 -3 -3 -2 4 8 9 10 9 9 7 7
2 1 3 5 5 4 -0 3 1 -3 -4 -4 -4 -4 -5 -3 -1 -0 0 -0 0 0 0 -0 -0 -0 -0 -1 -1 -1 -1 -1 -1 -0 0 1 1 0 -0 0 2 4 7 10 9 8 7 7 8
4 2 -1 1 -1 1 1 -1 -5 -5 -4 -4 -3 -3 -3 -1 1 1 1 1 1 1 1 1 1 1 1 0 -0 -1 -1 -1 -1 -0 1 1 2 2 1 4 6 6 6 7 7 7 7 5 2
3 1 3 1 1 3 1 0 -1 -4 -4 -3 -2 -2 -1 0 1 2 2 2 2 1 1 1 1 1 1 1 1 0 0 0 1 1 1 2 2 2 2 3 7 6 5 5 3 -0 -2 -1 -1
4 4 3 2 1 2 3 -0 -4 -5 -5 -3 -2 -2 -2 -1 1 2 2 2 2 2 2 2 1 1 1 1 1 1 1 1 1 1 2 2 3 3 4 4 5 5 4 3 1 -0 -0 -0 -0
3 4 3 3 3 1 1 1 -6 -6 -6 -3 -2 -2 -2 -1 1 2 2 2 2 2 2 2 1 1 1 1 1 1 1 1 1 1 2 2 3 3 3 4 4 3 3 2 1 1 1 1 1

GFSSGP_850_dewp_051.txt.gz
Dewpoint
4 3 3 4 3 4 3 2 2 1 -2 -2 -3 0 3 8 6 4 10 3 4 1 7 9 8 9 9 10 12 13 13 11 6 2 1 5 8 13 10 7 0 -8 -11 -4 2 5 7 9 9
4 4 4 3 5 4 3 3 3 2 -0 5 7 9 10 11 10 10 9 4 2 2 5 8 9 9 11 11 12 13 13 7 3 -1 0 6 9 12 12 9 4 -8 -11 -10 -4 2 5 5 6
5 6 4 5 6 4 2 3 4 3 2 1 5 10 11 13 12 10 7 5 2 2 6 13 10 13 11 12 12 12 13 7 1 -4 5 7 10 12 12 7 4 -5 -6 -9 -9 -6 -3 0 1
5 5 4 6 6 4 3 4 4 3 -1 -1 2 11 13 13 12 11 7 5 3 3 8 11 14 13 14 13 13 12 10 7 1 -4 10 10 10 12 13 7 3 -4 -3 -4 -5 -5 -4 -4 -2
5 5 6 7 6 5 4 3 5 3 0 -0 8 11 13 14 13 13 8 7 5 6 12 13 14 12 12 13 14 13 9 6 0 -4 13 13 14 13 4 4 2 -3 -2 -2 -2 -3 -3 -2 -1
6 6 7 8 6 5 5 5 4 5 1 5 10 12 13 13 13 13 12 10 5 7 15 13 14 11 12 13 14 13 10 5 -2 -9 3 13 13 9 3 2 -1 -3 -1 -2 -2 -2 -2 -2 -1
7 8 7 6 6 7 5 5 6 6 3 3 11 12 13 14 14 13 13 12 10 6 14 12 15 11 12 14 15 13 11 8 2 -8 -9 -6 -6 -3 3 1 -2 -3 -0 -1 -2 -2 -2 -2 -2
7 7 8 7 7 7 6 6 6 5 4 6 12 11 13 14 14 14 13 12 10 8 10 13 13 12 11 15 14 13 13 11 5 -3 -8 -8 -7 -7 -3 -1 -2 -2 1 -0 -1 -1 -1 -1 -1
7 10 9 8 7 7 6 6 6 5 6 8 10 10 13 14 14 14 14 12 10 9 9 11 14 14 12 14 14 14 14 12 9 2 -7 -7 -7 -6 -3 -2 -2 -3 1 1 1 -0 -0 -0 0
8 8 8 5 6 8 7 7 7 5 3 4 5 4 13 15 15 14 14 13 12 11 10 12 13 14 13 14 15 14 12 11 11 7 1 -6 -6 -6 -4 -2 -3 -3 1 3 3 2 1 1 1
9 8 6 5 6 6 7 7 7 6 6 5 6 4 8 14 14 14 13 13 13 12 12 12 12 12 13 14 14 12 7 9 10 9 7 2 -5 -5 -5 -4 -3 -2 0 2 3 4 5 5 4
9 6 5 6 7 6 6 6 7 6 5 5 5 4 5 13 15 14 13 13 13 13 14 13 13 13 13 13 14 13 9 6 7 8 8 5 4 1 -4 -3 -2 -1 1 1 2 3 3 4 3
7 7 8 7 7 6 6 6 6 6 4 4 4 3 4 10 13 12 11 12 13 13 13 13 11 10 9 9 12 11 8 6 6 6 6 6 5 5 5 -0 -1 1 3 7 9 8 9 9 9
7 7 6 7 7 7 7 6 6 4 4 4 4 3 4 6 12 12 10 11 12 13 13 12 11 10 6 5 6 5 5 5 7 6 5 7 7 8 9 8 6 7 8 9 10 10 11 11 10
7 8 8 8 8 8 7 6 7 5 4 4 4 4 4 2 11 11 10 10 9 11 13 12 12 12 11 10 8 8 9 10 10 9 8 9 11 11 11 10 10 10 10 10 11 11 11 11 11
7 7 9 8 7 8 6 8 5 4 5 5 4 4 4 3 4 10 11 10 9 11 13 13 13 12 12 11 11 10 11 11 11 11 11 11 11 12 12 12 11 12 11 11 11 11 11 11 11
7 8 8 10 7 8 6 7 4 4 6 5 4 5 5 4 2 3 11 11 10 11 12 13 13 13 12 12 12 12 12 11 11 12 12 11 11 12 12 12 12 12 12 13 13 12 12 12 12
7 7 7 8 8 8 7 5 3 5 5 4 4 5 5 5 1 0 3 10 10 10 10 11 10 12 12 12 12 12 12 12 12 11 11 12 12 12 12 12 13 13 13 13 13 12 12 11 11
4 5 5 5 7 7 7 6 4 5 6 7 6 6 5 5 2 -1 -1 0 7 10 10 10 11 11 12 12 12 12 11 12 12 11 12 12 12 12 12 13 13 13 12 11 10 10 10 10 10
4 5 5 3 7 7 7 7 5 5 5 4 5 5 5 5 4 -1 -0 -1 -1 0 6 7 8 10 10 10 10 11 11 11 11 11 11 12 12 12 12 11 10 11 12 12 11 11 11 11 10
3 4 4 4 6 3 6 7 6 3 4 4 3 3 4 5 4 0 -1 -1 -2 -2 -1 2 2 5 6 8 9 10 11 11 10 9 10 11 12 12 12 12 12 12 12 12 11 12 10 9 10
5 2 3 4 6 7 3 7 4 5 3 3 4 4 4 4 3 1 -1 -1 -2 -2 -2 -1 -0 1 3 5 7 8 7 5 3 2 2 3 4 5 5 4 4 4 4 4 4 4 5 7 9
3 1 2 2 3 3 2 6 4 1 4 3 2 2 1 1 2 1 0 -1 -2 -2 -1 -1 -1 -0 -0 -1 -1 -1 -1 -2 -2 -3 -3 -2 -1 -1 -1 -1 -1 -1 -1 -2 -2 -1 0 4 10
0 1 1 1 3 7 3 5 4 1 -0 -1 1 1 1 1 1 1 -0 -2 -3 -2 -1 -2 -2 -2 -2 -3 -3 -4 -4 -5 -5 -5 -5 -5 -5 -4 -4 -4 -4 -5 -5 -4 -4 -2 -1 7 10
1 2 6 7 6 6 0 3 3 -1 -3 -4 -4 -4 -2 0 -0 -0 -0 -2 -3 -2 -2 -2 -2 -2 -3 -3 -3 -3 -3 -3 -3 -3 -3 -3 -3 -3 -2 -2 -1 -1 -2 -2 -2 -1 6 7 10
2 1 4 6 6 5 0 4 1 -2 -4 -5 -5 -4 -4 -4 -5 -3 -1 -2 -2 -1 -1 -1 -1 -1 -2 -2 -2 -2 -1 -1 -1 -1 -2 -2 -2 -2 -2 -1 -1 0 2 4 4 5 10 8 10
3 4 -2 1 -1 2 1 -1 -4 -6 -6 -6 -6 -5 -5 -5 -4 -4 -2 -1 -0 0 0 -0 -0 -1 -1 -0 0 0 0 0 0 -0 -1 -1 -1 -1 -0 -0 0 2 5 7 7 6 7 8 8
1 -0 4 2 3 4 0 -1 -1 -4 -5 -6 -6 -6 -5 -4 -4 -3 -2 1 2 1 1 0 0 -0 0 1 1 1 1 1 1 1 0 0 0 1 1 1 2 3 4 6 6 5 5 4 3
3 3 2 1 1 3 2 -1 -5 -4 -6 -6 -6 -6 -4 -3 -3 -2 1 2 2 1 1 1 1 1 2 1 1 1 1 1 1 1 1 1 1 2 2 3 3 4 5 5 5 4 3 2 1
3 2 1 3 3 1 1 2 -5 -6 -6 -6 -5 -4 -3 -3 -1 1 2 2 2 1 1 1 2 2 2 1 1 1 0 0 1 1 1 1 1 2 2 3 3 4 4 4 4 3 2 2 2

GFSSGP_850_dewp_054.txt.gz
Dewpoint
4 2 2 4 2 -0 -0 -1 -0 -0 -3 -1 -2 0 5 4 2 6 11 4 9 11 14 13 13 14 14 13 13 14 14 10 6 5 4 7 12 7 5 -2 -10 -11 -2 4 5 7 8 9 7
4 3 4 4 2 2 -0 -1 -0 0 0 1 5 5 5 6 12 10 12 6 6 10 13 14 13 12 12 13 13 13 11 5 1 1 6 8 12 11 8 1 -9 -12 -7 -1 3 3 4 5 3
4 4 3 2 1 1 -2 0 2 2 2 2 4 9 9 11 14 14 13 8 13 13 14 14 13 11 13 12 12 13 10 3 -1 2 7 9 12 11 6 1 -6 -8 -10 -8 -4 -2 -0 -1 -3
7 5 4 2 1 -0 -1 2 4 1 -1 1 3 9 13 13 14 14 11 13 14 14 14 13 11 13 11 13 12 12 8 4 -1 6 7 10 12 11 5 0 -4 -4 -5 -7 -6 -5 -4 -3 -1
5 4 2 3 0 0 3 4 4 2 -0 1 5 9 13 15 14 14 14 14 14 14 15 12 14 13 13 13 13 11 8 3 -3 11 11 11 12 11 5 1 -3 -3 -3 -3 -4 -4 -3 -1 -0
5 5 2 3 1 3 3 5 3 2 -0 6 7 10 13 14 15 14 15 14 14 14 15 14 15 14 13 14 14 12 9 1 -7 10 14 14 14 10 5 1 -3 -2 -2 -3 -2 -2 -2 -1 -1
3 4 3 1 2 6 4 5 4 1 1 6 9 10 14 15 15 16 15 14 14 15 15 15 14 12 12 13 14 13 8 2 -6 -4 3 10 5 4 5 2 -3 -1 -1 -2 -2 -2 -2 -1 -1
5 3 5 3 4 5 6 6 6 2 4 10 13 12 13 14 15 16 15 15 14 15 15 16 15 13 13 13 14 13 11 7 0 -8 -5 -2 -2 -2 2 0 -3 -1 -0 -1 -1 -1 -1 -1 -0
7 8 7 5 3 5 6 5 6 6 7 7 6 6 9 14 15 15 15 14 14 15 15 15 15 14 15 14 14 14 14 11 5 -2 -7 -6 0 -5 -2 -1 -2 -1 1 -0 -0 -0 0 0 1
8 9 6 4 5 6 6 6 6 5 5 5 5 6 12 14 15 15 14 13 14 14 15 15 15 15 15 14 14 14 14 12 11 5 -2 -4 -5 -4 -2 -2 -2 -3 1 2 2 2 2 1 2
7 8 5 5 6 6 6 6 6 4 5 5 5 5 11 14 14 14 15 14 14 13 14 14 14 14 15 14 14 14 14 13 12 10 8 1 -5 -5 -4 -3 -3 -2 1 3 4 5 5 6 5
8 6 4 4 7 6 5 6 5 5 6 6 6 5 7 13 14 14 14 15 14 14 14 13 13 13 14 14 14 14 13 12 12 10 9 7 4 -2 -4 -3 -2 -1 1 5 3 4 3 4 4
7 6 6 5 7 7 6 5 6 6 6 5 5 5 5 9 13 14 15 14 14 14 14 14 14 13 13 13 14 14 13 11 12 9 8 7 6 5 4 -0 -2 -1 1 3 8 8 9 10 9
5 7 6 5 7 7 7 6 6 2 5 5 5 5 5 5 11 12 13 14 14 14 14 14 13 13 13 12 12 13 13 12 11 7 6 6 7 7 8 9 4 3 6 8 9 10 10 10 10
5 6 6 6 5 5 6 7 6 4 4 4 4 4 4 4 5 11 13 12 12 13 13 13 12 10 9 7 7 11 9 9 8 9 7 6 9 9 10 10 10 10 10 10 10 10 11 11 11
4 5 8 6 7 6 6 6 3 4 4 4 3 4 4 3 3 5 10 10 11 11 12 13 13 12 12 11 10 8 9 9 10 10 10 9 10 11 11 12 11 11 12 11 11 11 11 11 12
5 6 6 9 5 7 6 5 4 4 4 3 3 3 4 3 3 2 6 10 9 10 11 12 12 13 12 12 12 11 11 11 11 11 11 11 11 11 11 12 12 12 12 12 12 12 13 12 12
2 3 6 9 7 7 7 6 3 3 4 3 2 2 3 4 3 3 0 9 10 9 10 11 12 13 13 12 13 12 12 11 11 11 11 11 11 12 12 12 12 13 13 12 12 12 12 12 12
0 3 5 7 7 8 7 6 4 3 4 4 3 2 2 4 3 3 -1 0 9 10 10 9 10 10 11 11 12 12 11 11 12 12 12 12 12 12 12 12 12 12 12 13 13 12 11 11 11
3 3 3 4 6 7 7 6 4 2 2 3 3 2 3 4 4 2 0 -0 -1 6 9 9 10 11 12 12 12 12 11 11 12 12 12 12 12 12 12 12 11 11 11 10 11 12 12 11 11
2 2 3 3 5 5 5 6 5 3 2 2 2 2 3 3 4 3 3 -1 -1 -1 1 7 8 9 9 10 11 10 11 10 11 11 11 10 9 10 10 11 11 12 12 11 12 12 12 11 11
3 1 2 3 3 3 3 1 2 2 3 2 2 2 2 3 4 4 3 0 -1 -2 -2 -0 4 7 7 8 9 9 10 10 10 10 7 5 4 4 4 5 6 6 5 4 3 2 3 5 7
3 1 2 1 1 3 4 4 -2 1 2 1 1 2 2 3 4 3 3 2 0 -1 -2 -1 -0 1 3 5 6 6 5 3 1 -0 -1 -2 -2 -3 -2 -1 -1 -1 -1 -2 -3 -3 -2 -1 1
0 2 2 3 3 6 2 3 -0 -0 -1 -1 -1 1 2 2 2 2 2 1 1 -1 -2 -1 -1 0 0 -0 -1 -2 -2 -2 -3 -4 -4 -5 -5 -5 -4 -5 -4 -4 -5 -5 -4 -4 -4 -2 1
1 2 6 6 7 4 1 3 -1 -1 -2 -4 -4 -4 -1 1 2 2 1 1 1 -1 -2 -1 -1 -1 -2 -2 -3 -3 -4 -4 -4 -4 -4 -3 -3 -3 -2 -2 -2 -2 -2 -1 -1 -1 -1 -1 5
2 -1 3 4 4 2 0 4 -1 -3 -4 -4 -4 -4 -4 -4 -2 1 2 2 0 -1 -2 -1 -1 -2 -2 -2 -2 -2 -3 -3 -2 -2 -2 -2 -2 -2 -2 -2 -2 -1 -1 1 2 4 3 3 9
4 5 -2 2 0 3 0 -1 -3 -6 -6 -6 -6 -5 -4 -4 -4 -4 -4 0 -0 -1 -1 -1 -1 -1 -1 -2 -2 -2 -1 -1 -0 -0 -0 -0 -1 -1 -1 -1 -1 -0 1 3 7 7 7 8 8
2 -1 3 4 5 2 -1 -1 -5 -4 -4 -6 -6 -6 -5 -3 -4 -5 -4 -2 -0 0 1 0 1 -0 -1 -1 -1 -0 0 0 1 1 1 1 1 0 0 1 1 2 3 4 5 6 6 5 5
3 3 3 1 2 2 -1 -4 -5 -4 -5 -5 -5 -4 -3 -3 -2 -1 -0 0 1 1 1 1 1 -0 -0 0 1 1 1 1 1 1 1 1 1 1 1 1 2 3 4 5 5 5 4 3 2
1 1 1 3 5 2 2 -2 -6 -6 -6 -5 -4 -3 -2 -4 -3 0 2 1 2 2 2 1 1 1 1 1 1 1 1 0 -0 -0 0 1 1 1 1 2 2 3 3 4 4 3 3 3 2

GFSSGP_850_dewp_057.txt.gz
Dewpoint
5 3 2 6 3 -0 2 1 -2 -0 -1 -2 -1 2 4 5 3 12 11 12 13 14 13 12 12 13 13 13 13 14 14 12 7 6 11 10 6 4 -4 -11 -10 -1 3 3 4 7 8 5 2
11 3 5 3 3 1 1 -1 -0 -0 -2 0 2 2 4 9 11 13 13 12 12 14 14 14 13 13 13 13 13 13 12 4 2 5 10 13 10 6 -3 -10 -11 -4 0 3 4 4 3 1 -4
8 6 3 2 1 -1 -1 -2 -2 -1 1 1 0 6 7 12 13 12 13 12 12 13 14 14 14 12 12 13 13 12 7 2 2 6 9 12 11 7 1 -6 -9 -10 -6 -2 0 1 -0 -3 -2
7 5 3 3 2 -2 -4 -2 -2 -0 -1 1 2 5 12 14 13 14 13 12 13 13 14 10 12 12 12 11 12 12 6 1 2 6 9 13 12 9 3 -4 -4 -6 -7 -6 -4 -3 -3 -2 -2
7 3 2 2 2 -2 -3 1 2 -2 -2 1 4 9 12 15 15 14 13 12 13 13 15 12 12 14 12 12 11 7 5 -2 6 7 10 13 13 6 2 -3 -3 -4 -4 -5 -4 -3 -2 -2 -2
5 3 3 3 1 -1 -1 3 2 -0 -2 4 5 7 14 15 15 14 13 13 13 13 15 12 12 13 13 13 11 8 5 -4 9 12 13 14 13 6 3 -2 -3 -3 -3 -3 -3 -2 -2 -1 -1
4 5 4 2 1 1 2 4 2 -1 -1 6 8 6 14 15 15 14 14 13 13 14 14 14 14 14 14 14 13 11 5 -4 3 13 14 13 9 5 3 0 -2 -1 -2 -2 -2 -2 -2 -1 -1
4 5 5 2 2 4 3 5 5 2 3 10 11 10 13 14 15 14 14 13 13 14 15 15 15 14 13 14 14 12 9 0 -5 5 7 3 -1 2 2 -1 -3 -1 -1 -2 -2 -2 -1 -1 -0
6 9 9 5 2 4 5 4 5 6 6 7 7 7 10 14 15 14 14 13 13 15 14 15 15 14 15 15 14 14 12 8 -1 -6 -2 -1 7 -4 3 0 -2 -1 0 -0 -1 -0 -0 0 0
7 10 7 5 3 5 5 3 5 5 6 6 5 8 13 14 15 15 14 14 12 14 15 15 14 14 15 15 14 13 13 12 8 2 -6 6 11 10 9 -1 -1 -3 1 1 1 2 2 2 3
7 7 5 4 4 5 6 6 5 4 5 5 5 7 14 15 15 15 15 14 13 13 15 14 14 14 14 15 13 14 13 14 14 13 11 9 8 -0 -2 1 -2 -2 -1 2 3 4 4 7 5
8 5 5 5 7 5 4 5 5 4 5 5 5 5 10 14 14 14 14 14 13 13 13 13 14 14 14 14 13 14 13 13 13 13 13 10 6 0 9 10 10 7 10 11 12 11 11 10 7
9 5 5 7 6 6 6 5 5 5 5 5 5 5 5 11 14 14 14 14 14 13 13 14 15 15 14 14 14 14 14 13 13 13 13 12 11 6 7 9 9 9 10 10 11 12 11 11 12
6 6 5 5 5 6 6 6 6 3 4 5 5 4 5 5 12 14 14 14 14 14 14 14 14 14 14 14 14 13 13 13 12 12 13 13 12 11 9 11 9 9 9 11 11 12 12 12 12
4 6 6 5 4 4 5 5 5 4 4 4 4 3 4 5 5 12 14 14 14 15 14 14 14 15 14 14 14 13 14 13 12 12 13 12 12 12 12 12 12 12 11 11 12 12 12 12 12
7 8 9 5 4 3 4 5 2 4 4 4 4 3 3 4 4 4 9 13 14 14 15 14 15 13 13 13 13 13 12 12 12 13 13 12 8 10 13 13 13 13 13 12 12 13 12 12 12
4 7 7 5 3 4 5 3 2 2 2 3 3 2 3 3 4 4 2 11 13 14 13 13 13 13 13 13 13 13 12 13 13 13 13 13 12 11 11 13 13 13 13 13 13 13 13 13 13
2 -1 2 5 6 5 7 5 3 3 4 3 3 3 2 2 4 4 3 3 13 14 13 10 12 13 12 13 13 13 13 13 13 13 13 13 13 13 13 13 13 13 14 14 13 13 12 13 13
-3 -2 1 2 5 7 6 6 4 3 2 3 3 2 2 2 2 4 3 1 5 13 14 11 11 12 12 14 13 13 13 13 14 13 13 13 13 13 13 13 14 14 14 14 13 13 13 12 12
-3 -1 3 4 5 7 6 7 4 3 2 2 2 1 1 1 2 4 3 -0 1 7 13 13 10 11 11 13 13 13 14 14 14 14 13 13 13 14 14 14 14 14 14 13 13 13 13 13 12
0 -1 0 4 6 5 6 8 6 3 2 1 1 1 1 1 2 4 3 -0 -1 1 8 13 13 12 13 13 14 13 13 12 11 11 11 11 10 11 11 11 11 12 13 12 12 12 13 11 11
1 -2 -0 2 5 5 3 3 2 2 2 1 1 1 1 1 2 3 4 0 -0 -1 -1 4 9 8 9 10 11 11 11 12 13 12 9 10 9 8 6 5 3 3 3 3 3 3 3 3 7
0 -0 1 1 2 -2 3 3 -2 -1 0 0 0 0 1 1 2 3 4 1 1 -1 -1 -2 -0 3 6 9 10 11 12 11 10 9 7 2 0 -1 -2 -3 -4 -4 -3 -2 -1 -2 -2 -2 -1
1 0 0 0 -0 4 1 1 -2 -3 -1 -3 -3 -2 -0 1 1 3 4 3 2 1 0 -1 -1 -0 1 2 5 7 7 6 2 -0 -1 -2 -3 -4 -5 -5 -6 -5 -5 -5 -5 -4 -4 -2 1
0 1 5 5 6 5 0 0 -1 -3 -3 -4 -3 -3 -3 -1 -0 2 3 3 2 2 1 -1 -1 -0 -0 1 1 0 -1 -2 -3 -3 -4 -4 -4 -4 -4 -5 -4 -3 -3 -3 -3 -2 -1 -1 1
2 -0 2 3 3 1 0 2 -2 -4 -4 -4 -4 -4 -4 -3 -3 1 2 2 2 1 1 -1 -1 -1 -0 -1 -1 -2 -3 -3 -3 -3 -3 -3 -3 -2 -2 -2 -2 -2 -2 -2 -1 3 4 5 5
1 3 -1 2 -0 2 0 -2 -4 -5 -5 -6 -6 -6 -5 -4 -4 -3 -0 2 3 3 1 0 -1 -0 -1 -1 -2 -2 -2 -3 -3 -2 -1 -1 -0 -0 -0 -1 -1 -1 -1 0 2 6 7 7 8
1 -1 2 4 5 -0 -1 -3 -5 -5 -5 -6 -5 -4 -4 -4 -3 -3 -2 -2 1 2 2 3 2 -0 -1 -1 -1 -2 -2 -1 -0 0 0 0 1 1 1 1 0 1 1 2 3 5 6 6 7
3 3 2 1 2 3 -3 -4 -6 -4 -4 -4 -3 -3 -2 -2 -2 -1 -0 -0 1 1 2 1 1 0 -0 -1 -1 -1 0 0 0 1 1 0 0 1 1 1 1 2 2 3 4 5 5 5 4
1 1 1 3 4 0 1 -1 -7 -5 -5 -4 -3 -3 -2 -1 -0 1 1 2 3 3 2 1 1 1 0 -0 -0 1 1 1 1 1 -0 -1 -1 -0 1 1 2 2 3 3 4 4 4 4 3

GFSSGP_850_dewp_060.txt.gz
Dewpoint
6 4 3 7 9 5 4 2 2 4 1 1 0 2 4 12 11 14 11 12 11 6 9 11 12 12 12 13 13 13 11 6 6 12 7 4 1 -6 -11 -7 -1 4 11 10 6 5 1 -4 -4
9 10 5 7 7 5 2 -0 1 3 -1 0 2 4 7 13 12 11 12 12 12 5 8 10 13 13 13 13 12 11 5 3 6 13 12 8 4 -4 -10 -8 -1 2 3 4 2 0 -3 -4 -3
10 8 6 7 6 5 1 -0 -0 -1 0 1 1 6 13 14 12 12 12 13 14 9 9 12 13 13 13 13 11 6 1 2 6 12 12 10 5 -2 -7 -9 -7 -2 -0 -0 -1 -4 -4 -3 -4
9 7 6 4 4 2 -1 -3 -2 0 1 2 1 12 13 14 14 13 12 13 14 14 12 13 14 13 13 12 10 5 -0 2 6 10 12 10 6 -1 -5 -6 -7 -7 -5 -4 -4 -4 -3 -3 -3
10 4 5 5 3 1 -3 2 1 0 -2 0 3 10 14 13 14 13 12 13 14 14 14 14 12 11 11 11 9 3 -1 1 6 9 13 11 7 0 -4 -4 -5 -5 -5 -5 -4 -3 -2 -2 -2
9 6 5 4 3 1 1 2 1 0 -2 1 1 12 15 13 14 13 12 13 13 14 14 11 13 14 12 12 7 4 -3 3 7 11 14 13 8 3 -2 -3 -3 -3 -3 -3 -3 -3 -2 -2 -2
9 7 7 3 2 0 4 3 3 0 -1 7 9 2 14 13 14 13 12 13 13 15 14 11 14 12 13 12 10 7 -3 5 8 12 14 12 2 2 -0 -3 -2 -2 -3 -3 -2 -2 -2 -2 -1
7 7 6 5 2 3 5 5 5 4 6 9 9 12 14 13 13 13 13 13 13 15 14 12 13 13 13 13 13 8 0 -0 11 13 13 6 -0 2 1 -3 -2 -2 -2 -3 -2 -2 -2 -1 -1
6 9 8 6 3 5 4 5 4 4 7 7 7 9 13 13 12 14 13 13 14 14 14 14 14 14 14 13 13 12 8 -1 2 6 6 3 1 -4 1 -1 -3 -1 -1 -1 -1 -1 -1 -1 -0
8 10 7 4 4 5 5 4 4 5 6 5 8 12 13 14 11 14 13 13 13 14 14 14 14 14 14 14 13 13 11 7 1 -5 -5 -0 12 7 -3 -1 -2 -3 -1 0 1 1 1 1 1
8 8 6 5 6 4 5 5 5 5 7 5 6 11 14 14 14 13 13 13 14 13 13 14 14 15 13 13 13 13 12 11 12 9 1 8 9 7 2 -1 -2 -2 -3 0 3 3 4 2 3
8 6 6 8 6 7 6 5 5 6 5 5 5 7 12 14 15 15 13 12 14 13 13 14 13 15 14 14 14 13 11 13 12 13 11 10 6 -0 1 5 2 -1 0 4 9 7 11 10 8
8 6 8 8 7 7 6 5 5 6 5 4 4 5 8 13 14 14 13 13 13 13 13 13 13 13 13 13 13 13 13 13 12 13 12 12 9 5 1 5 7 4 7 9 10 10 11 11 12
6 7 7 8 8 8 6 5 5 5 4 5 4 4 5 9 13 14 14 14 13 13 13 13 13 13 13 13 13 13 13 13 12 13 12 11 12 9 6 8 7 6 6 7 9 10 12 12 12
5 6 7 7 7 6 5 6 6 4 4 4 4 4 4 5 11 13 13 13 13 13 13 13 13 13 13 13 13 13 13 13 12 12 12 12 11 11 11 11 12 11 9 9 11 11 11 11 10
5 6 8 7 8 6 5 7 4 4 3 4 4 3 3 4 4 9 13 13 13 14 14 14 13 13 13 13 13 13 13 13 13 12 12 12 10 10 11 11 12 12 13 12 11 11 12 12 12
6 7 7 8 5 5 4 4 2 1 3 3 4 4 3 3 4 4 6 13 14 14 14 14 14 14 13 13 12 12 13 13 12 12 13 13 11 11 11 12 13 13 12 12 13 13 13 12 12
8 7 6 7 6 4 5 5 3 2 2 3 3 3 3 2 3 4 4 8 13 14 14 14 14 13 13 13 13 12 12 12 12 13 13 13 13 13 12 12 13 13 13 13 13 12 12 12 12
3 4 5 5 5 4 6 5 4 2 3 4 4 2 3 3 2 4 4 4 10 13 14 13 12 12 13 13 13 13 13 13 13 13 13 13 14 14 14 13 13 13 13 13 12 12 13 12 12
-1 1 5 4 5 5 6 6 4 3 3 3 3 3 3 3 2 3 4 3 4 11 12 13 11 11 12 12 12 13 13 13 12 13 13 13 13 14 13 13 14 13 13 12 12 12 12 11 11
1 -1 6 6 6 5 6 7 6 4 3 3 2 2 2 3 2 3 4 3 3 5 11 12 13 12 12 12 13 13 13 13 13 14 13 14 13 13 12 12 12 12 13 13 12 12 11 11 11
1 -3 2 6 7 8 5 5 6 5 4 3 2 1 1 1 1 2 3 4 3 2 5 10 12 13 13 13 12 11 10 12 12 13 13 11 10 10 11 9 7 4 2 -0 -1 -1 0 2 4
2 1 4 6 5 4 6 5 -1 4 3 3 1 1 1 1 1 2 4 4 3 0 0 1 8 10 9 9 10 9 10 12 12 13 12 11 10 6 1 -1 -2 -3 -4 -4 -3 -2 -2 -2 -1
-0 1 1 1 2 5 2 2 1 0 -0 -2 -2 0 0 0 1 1 4 3 1 -0 -1 -1 -1 3 8 9 9 10 10 10 11 11 10 5 -0 -2 -3 -4 -5 -5 -5 -5 -5 -4 -3 -2 -1
0 2 6 6 5 5 0 2 0 -2 -3 -4 -4 -4 -3 -2 0 1 2 4 4 2 1 -0 -1 -1 2 5 1 1 6 6 6 2 -1 -3 -3 -4 -4 -4 -4 -4 -3 -3 -2 -2 -2 -1 -0
2 2 6 4 5 4 0 3 -1 -4 -5 -4 -4 -3 -3 -3 -3 -1 2 2 4 4 2 2 1 -1 -1 2 0 1 2 -0 -2 -3 -3 -3 -3 -3 -3 -2 -2 -1 -2 -2 -2 -1 -1 3 6
3 4 -1 4 -0 4 2 -1 -3 -4 -6 -6 -6 -6 -5 -5 -4 -3 1 2 3 3 2 1 1 -1 -1 -1 -1 -1 -1 -2 -2 -3 -3 -2 -2 -1 -1 -1 -0 -0 -0 -0 -0 0 1 7 8
3 -1 3 5 3 0 0 -2 -2 -4 -4 -3 -3 -2 -2 -2 -3 -3 -3 0 2 2 2 2 1 2 1 -1 -1 -1 -1 -2 -2 -2 -1 -1 -0 -0 0 0 1 1 1 1 2 3 4 6 7
3 4 3 3 4 7 2 -1 -5 -4 -3 -2 -2 -2 -2 -2 -1 -1 -1 -2 -1 2 3 3 2 2 2 2 3 -1 -1 -2 -1 -0 0 -0 0 0 -1 -1 -0 1 1 2 3 4 5 6 5
3 2 1 5 4 2 2 0 -5 -4 -4 -4 -3 -3 -2 -2 -2 -1 0 1 1 2 2 3 3 2 2 2 1 1 0 -0 -1 -1 -0 1 1 -0 -1 -1 0 1 1 2 4 3 4 5 5

GFSSGP_850_dewp_063.txt.gz
Dewpoint
5 4 4 7 7 7 6 2 2 6 4 2 2 4 13 12 13 12 14 13 13 10 8 9 10 11 12 13 12 10 6 7 14 7 1 -3 -11 -11 -8 -2 7 12 6 1 1 -3 -4 -4 -5
5 8 7 7 8 7 3 0 0 6 5 1 3 8 12 13 12 14 14 14 9 8 9 10 11 12 13 12 11 6 5 9 10 6 4 -3 -10 -10 -2 -1 -2 -2 0 -0 -3 -4 -3 -3 -5
7 9 7 8 7 7 4 -1 -1 2 1 0 4 7 13 13 12 13 14 14 9 8 10 12 13 12 12 10 6 1 4 10 11 10 5 -1 -7 -10 -7 -3 -2 -2 -1 -2 -4 -3 -4 -3 -4
9 9 7 5 5 4 3 1 -1 1 1 3 3 13 13 13 14 14 14 13 9 9 11 13 13 13 12 10 3 0 4 8 11 12 6 0 -4 -6 -8 -7 -5 -4 -4 -4 -3 -3 -3 -3 -3
9 7 8 7 4 1 -1 1 0 -0 1 3 2 13 12 13 13 14 14 14 9 10 12 13 13 13 13 10 3 -0 3 6 10 12 8 3 -2 -4 -5 -6 -6 -5 -5 -4 -3 -3 -3 -2 -2
8 7 6 6 5 2 3 3 1 0 -0 3 6 9 12 12 13 13 14 13 12 13 13 14 13 12 12 10 2 -1 2 6 10 13 10 7 1 -3 -4 -4 -4 -4 -4 -3 -3 -2 -2 -2 -2
8 8 8 3 3 3 5 1 5 5 5 10 8 11 12 10 12 13 14 13 13 14 13 12 12 11 11 8 4 -3 2 5 11 13 11 2 1 -2 -3 -3 -3 -3 -3 -3 -3 -2 -2 -1 -1
7 8 7 6 3 5 4 3 4 5 9 8 8 13 13 11 11 12 13 14 14 15 14 11 13 12 11 10 7 -1 4 6 8 12 7 0 -0 -1 -3 -3 -3 -3 -3 -3 -2 -2 -2 -1 -1
7 9 8 6 5 5 4 4 4 6 7 7 9 12 9 9 8 13 13 13 14 14 13 12 13 12 12 10 10 3 -1 9 12 12 8 0 -2 -1 -1 -3 -2 -1 -2 -2 -2 -2 -1 -1 -1
8 9 7 5 6 5 4 3 3 6 7 12 13 12 13 10 7 7 13 13 14 14 13 13 13 13 13 10 7 8 1 -2 6 8 2 -0 4 -0 -2 -2 -3 -3 -1 -1 -0 0 1 1 1
7 9 7 7 7 4 5 4 4 6 7 7 12 12 12 12 10 7 10 13 13 13 13 13 14 14 13 13 10 7 8 3 -0 -4 -4 4 4 3 -0 -1 -2 -3 -3 -2 0 1 2 3 3
9 7 6 7 7 6 6 5 6 6 5 6 8 10 12 13 11 12 10 12 14 13 13 13 14 13 14 13 13 11 10 8 8 9 4 6 6 5 -2 -1 1 -0 -0 1 2 2 3 7 8
8 8 7 6 8 7 5 6 6 5 5 5 8 9 13 13 13 11 11 11 12 13 13 12 13 14 14 14 14 14 11 11 13 12 12 10 9 3 0 1 3 2 1 2 4 6 9 9 11
7 8 9 7 9 8 7 6 5 5 4 4 5 6 12 13 14 12 12 12 11 13 13 13 13 13 14 13 12 13 12 13 13 13 12 11 9 7 5 4 5 4 3 4 6 8 10 12 11
7 8 7 9 9 9 6 7 6 5 4 4 4 5 4 8 12 13 12 13 13 12 13 13 13 13 13 12 12 12 12 13 12 12 12 11 9 8 7 6 8 10 8 7 8 10 10 11 11
7 7 8 7 7 7 6 8 5 4 4 4 4 4 4 4 7 12 13 13 12 13 13 13 13 13 13 13 13 13 13 13 12 12 12 11 9 8 8 9 10 11 11 11 11 11 11 12 12
6 7 7 6 7 8 5 6 4 3 3 3 4 4 4 4 4 4 9 12 13 12 13 12 12 13 13 12 12 12 13 12 12 12 12 12 12 8 9 10 11 12 12 12 12 12 12 12 11
8 6 6 6 8 6 7 5 3 2 2 2 3 3 3 3 4 4 3 8 11 13 14 14 13 13 13 13 12 13 13 12 12 13 12 13 13 11 10 11 12 13 13 12 12 12 12 12 11
4 5 5 5 6 8 7 6 4 3 2 2 3 3 2 3 3 4 3 4 8 10 11 12 14 13 13 13 12 11 11 13 12 12 12 13 13 13 13 13 13 12 13 12 12 12 12 11 11
4 5 4 4 4 7 6 6 4 3 3 2 3 3 3 2 2 3 4 4 5 6 9 10 11 11 13 13 12 12 11 11 12 13 13 13 13 13 13 13 13 13 12 12 12 12 12 11 11
4 4 5 6 6 6 5 7 6 4 4 3 3 3 3 3 3 3 3 3 3 4 7 8 10 10 11 12 13 13 13 13 13 13 12 13 13 13 13 13 13 13 13 12 12 12 12 11 9
3 2 4 6 8 9 6 7 5 5 5 4 3 3 2 2 1 3 3 3 3 3 3 9 9 10 10 11 12 13 12 11 11 13 12 14 13 12 11 11 12 12 11 6 2 -0 -1 -0 -0
5 1 5 7 6 7 7 5 2 4 6 4 3 3 2 1 1 2 3 2 3 3 3 3 9 9 9 9 10 10 9 10 11 11 12 12 12 11 10 9 3 -0 -2 -3 -4 -4 -4 -3 -2
2 5 5 4 4 5 6 4 2 4 4 2 2 2 2 1 1 1 1 3 3 1 1 1 4 10 10 9 9 9 9 8 8 10 10 10 11 10 3 -2 -3 -4 -4 -4 -5 -4 -4 -3 -2
1 2 7 7 4 5 0 2 1 -2 -3 -3 -3 -3 -2 -1 0 1 1 3 3 2 0 -0 -0 0 7 9 9 9 9 8 7 8 10 11 7 -1 -3 -4 -4 -4 -4 -4 -3 -3 -3 -2 -1
2 1 4 6 6 4 -0 2 -0 -4 -4 -4 -5 -5 -4 -4 -3 -2 3 3 3 4 2 -0 -1 -1 -1 1 5 7 9 9 9 6 3 2 -2 -3 -3 -4 -4 -3 -2 -2 -1 -1 -1 -1 0
2 2 -1 2 0 3 2 -1 -3 -5 -5 -5 -3 -3 -3 -4 -4 -3 -2 3 4 3 3 3 2 1 -0 -0 -1 -0 1 2 2 -1 -2 -2 -2 -3 -3 -2 -2 -1 -0 -0 0 -0 -0 -0 2
2 -1 3 2 1 2 2 -0 -1 -3 -1 -2 -2 -2 -2 -3 -3 -4 -4 1 3 3 3 3 3 1 0 0 -0 -1 -1 -1 -2 -2 -2 -2 -2 -2 -2 -1 -1 -0 -0 0 1 1 1 1 4
3 3 3 2 3 5 1 -1 -5 -3 -2 -2 -2 -2 -2 -2 -2 -3 -3 -4 -4 0 2 2 2 2 0 1 1 0 1 1 0 -0 -2 -2 -2 -1 -1 -1 -0 -1 -1 -0 1 2 2 3 4
3 3 2 4 3 2 2 -1 -5 -3 -3 -2 -2 -3 -2 -1 -1 -2 -2 -2 -3 -2 -0 1 3 3 2 1 1 1 0 2 2 2 3 2 1 -0 0 -0 -0 -1 -1 -0 1 2 2 3 5

GFSSGP_850_dewp_066.txt.gz
Dewpoint
9 7 6 8 7 7 7 5 3 5 6 2 5 7 12 12 12 11 14 11 12 9 11 11 11 12 13 12 10 6 12 14 9 -3 -9 -12 -3 6 12 14 12 9 3 -3 -6 -5 -6 0 5
9 6 9 8 8 7 4 2 1 5 7 5 6 11 13 13 13 15 15 14 14 8 10 10 12 13 12 11 8 5 14 13 1 -2 -11 -12 -9 -6 4 8 6 -0 -3 -5 -5 -4 -5 -1 4
9 8 7 8 8 7 4 -1 -1 4 4 6 5 11 13 13 14 15 15 15 12 9 9 11 12 12 12 10 5 5 11 6 4 -2 -9 -11 -6 -5 -4 -4 -3 -4 -5 -5 -4 -4 -4 -3 -1
9 9 8 7 8 4 2 0 0 5 7 5 8 12 13 14 14 14 15 14 10 10 10 12 12 12 10 4 2 6 11 10 8 -1 -6 -9 -9 -6 -5 -5 -5 -5 -5 -4 -3 -3 -3 -3 -2
7 8 8 8 6 2 1 0 1 5 5 6 4 12 13 15 13 14 15 12 10 11 12 13 12 12 9 4 2 6 11 11 10 1 -3 -6 -7 -7 -6 -5 -5 -5 -4 -3 -3 -2 -2 -2 -2
8 7 8 8 6 2 1 -1 2 1 3 4 4 10 12 14 15 15 14 12 11 13 14 14 13 12 9 4 2 5 8 12 12 5 1 -4 -4 -5 -6 -5 -5 -4 -3 -3 -2 -2 -1 -1 -1
8 9 7 5 4 3 2 -1 4 5 6 9 7 8 11 14 14 15 14 13 10 13 13 14 13 12 10 4 -0 3 6 11 14 9 5 -0 -3 -3 -4 -4 -4 -3 -3 -3 -2 -2 -2 -1 -1
8 9 8 4 4 4 3 -0 4 7 9 8 9 12 13 9 9 14 14 13 13 13 14 13 12 11 9 4 -1 1 5 10 13 10 1 -0 -1 -3 -3 -3 -3 -3 -3 -2 -2 -2 -1 -1 -1
8 9 8 7 3 5 3 4 4 6 7 8 10 10 10 9 12 13 14 14 15 15 13 11 13 12 10 6 1 1 5 7 11 9 2 0 -0 -1 -3 -2 -2 -2 -2 -2 -2 -2 -1 -1 -1
8 9 8 4 4 4 5 3 5 7 11 13 12 10 10 11 11 11 13 14 14 15 14 11 13 12 11 9 4 -0 6 6 10 9 4 -2 -1 -0 0 -2 -3 -1 -1 -1 -1 -0 0 1 1
8 8 7 6 7 6 4 4 5 6 7 11 13 11 10 8 7 6 7 13 14 13 13 11 13 12 12 10 8 4 -0 8 10 8 1 -2 3 1 -1 -0 -1 -3 -2 -0 1 1 1 2 4
8 7 7 7 7 6 5 5 7 6 6 7 11 12 9 9 9 7 6 8 13 14 13 13 13 13 13 13 10 8 7 1 -1 -3 -4 -3 0 2 0 -1 -1 -2 -2 -1 1 3 3 7 8
8 7 8 7 8 8 6 6 6 5 6 7 8 12 13 11 10 8 7 9 7 10 12 13 13 12 13 13 13 13 11 9 7 8 4 3 3 4 0 -1 1 1 0 1 3 4 6 8 9
7 7 7 8 9 8 7 6 5 5 5 8 6 10 12 11 12 12 11 9 8 8 10 13 13 13 13 13 14 13 13 11 11 11 10 11 9 8 5 1 1 3 2 4 5 7 9 10 10
8 8 8 8 8 9 8 7 6 5 5 5 5 7 11 10 11 12 12 13 12 12 11 11 12 12 12 14 13 12 12 12 12 12 12 12 11 9 7 4 4 6 6 6 7 9 10 10 11
7 7 9 5 8 9 8 9 6 5 4 5 5 5 4 8 10 11 12 12 12 10 11 11 9 13 12 13 12 12 12 12 12 12 12 12 12 9 9 8 8 10 11 11 10 10 11 11 11
7 7 8 6 7 8 7 8 5 4 4 4 4 4 4 5 7 8 12 12 12 11 11 10 10 11 13 12 11 12 12 12 12 12 12 12 12 11 9 9 10 11 12 12 12 12 12 11 11
7 7 6 6 7 6 8 8 5 3 3 3 4 4 4 4 4 4 6 11 12 12 12 12 12 13 13 12 13 12 12 12 12 12 12 12 12 12 11 10 11 12 12 12 12 11 11 11 11
4 5 7 6 7 8 8 7 6 3 2 3 2 2 3 4 4 4 3 4 10 11 12 12 12 12 12 12 12 12 12 12 12 12 12 12 12 13 13 12 12 12 12 12 12 12 11 11 11
3 4 5 6 7 6 8 7 5 3 3 3 2 2 2 2 3 3 4 4 5 8 10 11 11 12 12 13 13 12 12 12 13 12 12 11 12 12 12 12 12 12 12 12 12 12 11 11 11
4 3 5 5 6 6 8 8 7 4 3 3 3 2 3 3 2 2 2 3 4 5 5 8 8 9 10 11 11 12 13 12 12 12 12 12 12 12 13 12 12 12 12 12 12 12 12 11 9
6 3 5 5 7 8 7 7 4 5 4 4 3 3 3 3 3 3 3 2 3 3 3 5 8 8 10 10 11 11 11 11 11 11 12 12 12 13 13 13 12 13 13 13 13 12 8 5 -1
3 3 7 7 7 8 8 7 2 4 5 4 3 3 3 3 3 2 1 3 3 3 3 5 7 7 9 10 10 10 10 10 9 10 10 11 12 11 10 9 11 11 11 6 -0 -2 -4 -4 -4
3 5 5 6 7 8 7 6 1 4 5 4 3 3 2 2 2 2 1 2 3 3 3 3 6 7 7 8 9 10 10 10 9 10 10 9 7 7 7 8 9 2 -2 -4 -4 -4 -4 -4 -3
4 4 7 8 8 7 4 4 1 -2 -2 0 -1 -1 0 1 2 1 1 1 3 3 3 2 2 5 6 7 9 9 9 9 9 9 8 7 6 7 8 7 -1 -3 -3 -4 -4 -3 -3 -3 -2
3 2 6 7 6 4 1 3 -0 -4 -5 -5 -4 -4 -4 -4 -3 -1 1 2 2 3 3 2 1 0 1 4 7 9 9 9 7 7 8 9 9 9 4 -2 -2 -2 -3 -3 -2 -2 -2 -1 -1
2 4 0 3 1 3 1 -1 -3 -5 -3 -2 -2 -3 -3 -4 -4 -4 -3 2 3 3 3 1 0 -0 -0 -0 0 4 8 8 7 7 7 8 4 0 -2 -3 -3 -4 -4 -3 -1 -1 -0 0 0
0 -1 2 3 2 4 2 0 0 -2 -1 -2 -2 -2 -2 -2 -3 -3 -4 -2 3 3 3 3 3 2 2 1 1 2 5 5 5 1 -0 -0 -0 -1 -3 -3 -2 -2 -1 -1 -1 -1 -1 -0 1
3 2 2 2 3 3 1 -1 -6 -3 -2 -2 -2 -2 -2 -2 -2 -1 -1 -2 -3 -3 1 3 3 3 3 2 1 1 2 1 -0 0 1 -1 -2 -2 -1 1 0 0 0 -0 -1 -1 -1 -0 2
3 3 1 2 2 2 0 -1 -4 -3 -2 -2 -3 -2 -1 -1 -1 -1 -1 -1 -1 -1 -2 -3 -1 3 3 3 1 1 1 0 0 -0 -1 -1 -1 1 2 1 0 0 0 -1 -1 -1 0 1 4

GFSSGP_850_dewp_069.txt.gz
Dewpoint
9 9 8 7 7 8 7 6 4 8 6 3 7 10 12 12 10 10 14 12 9 12 11 11 11 12 13 10 5 6 13 12 -2 -7 3 13 14 14 14 13 11 6 -3 -7 -7 -4 -0 2 4
9 9 8 9 7 7 6 3 3 9 7 6 6 12 12 13 15 15 16 13 9 11 11 11 12 13 12 9 4 11 14 6 -5 -11 -8 7 12 15 13 12 9 -4 -7 -6 -6 -4 -1 -1 -0
11 9 8 9 9 6 6 1 0 4 5 6 6 11 13 15 16 15 14 14 10 11 12 12 13 12 11 8 7 14 12 -1 -6 -12 -12 -7 4 7 8 3 -4 -6 -6 -5 -5 -4 -2 -2 -2
8 8 8 8 9 6 0 -1 -0 8 7 8 7 9 13 15 15 15 15 15 10 13 13 13 13 12 11 6 6 13 5 0 -6 -10 -8 -6 -6 -6 -6 -5 -6 -6 -5 -4 -4 -3 -2 -2 -1
8 7 9 9 8 3 1 1 5 7 9 7 7 7 13 14 14 14 15 15 11 14 13 12 12 12 9 3 5 11 6 1 -3 -8 -9 -6 -6 -6 -5 -5 -5 -4 -3 -3 -3 -2 -2 -2 -1
8 7 10 9 7 3 1 2 6 5 7 7 8 7 11 14 16 16 15 14 12 13 13 13 12 11 6 2 6 12 11 6 0 -5 -7 -7 -6 -5 -5 -4 -4 -3 -3 -2 -2 -2 -2 -2 -1
8 8 9 8 6 3 1 1 3 4 7 8 6 6 11 11 15 15 14 12 11 12 13 13 12 11 6 2 5 11 13 11 6 -1 -4 -5 -6 -5 -4 -4 -3 -2 -2 -2 -1 -1 -1 -1 -1
8 8 9 8 6 4 1 3 4 4 6 4 4 8 12 11 12 14 13 12 12 13 14 13 13 12 9 3 3 7 12 13 11 5 -1 -3 -3 -4 -4 -4 -3 -3 -2 -2 -1 -1 -1 -1 -0
8 9 9 7 5 3 2 4 5 7 7 8 6 7 8 8 7 12 14 13 13 14 14 14 13 12 9 4 1 5 9 13 12 8 1 -2 -3 -3 -3 -2 -2 -2 -2 -2 -2 -1 -1 -0 -0
7 8 7 5 2 2 4 3 6 8 10 11 10 7 9 6 7 11 13 14 14 14 14 13 11 11 9 5 -0 5 7 12 13 8 4 1 -0 -2 -2 -1 -1 -2 -2 -1 -1 -1 -0 1 1
6 8 6 5 6 7 4 3 5 9 9 10 10 10 8 8 7 8 11 13 14 15 15 13 12 11 10 7 1 6 6 9 11 10 5 2 1 1 1 -1 -2 -1 -0 -0 0 1 2 2 4
7 6 6 5 8 8 5 4 7 6 6 8 11 13 8 7 8 6 7 7 6 12 14 13 13 12 11 10 6 0 7 9 11 11 8 -0 4 4 2 2 -1 -2 -2 -1 2 3 4 7 9
6 6 7 7 8 9 7 6 6 6 7 8 10 13 12 12 11 11 9 9 10 7 13 13 14 13 12 12 10 9 6 1 4 4 0 -2 1 5 4 0 1 1 -1 2 4 5 7 9 9
5 5 7 8 9 9 8 6 5 5 10 7 10 10 10 11 11 11 11 11 10 6 8 7 10 13 12 12 13 13 12 11 7 6 6 4 6 6 7 2 3 3 3 4 6 7 8 9 10
6 7 8 8 9 9 8 8 7 5 10 10 9 11 10 10 9 9 8 7 5 7 8 5 8 13 13 13 10 11 12 13 11 10 10 10 11 9 8 7 4 5 5 5 6 7 9 10 10
6 5 9 7 7 8 8 9 6 5 8 6 8 10 9 10 10 9 8 8 8 7 9 9 8 7 10 12 12 11 11 12 12 11 12 12 12 12 10 9 5 6 9 9 9 10 10 11 11
6 7 8 7 6 8 8 8 6 4 5 5 5 5 6 10 10 10 9 10 11 10 10 11 9 9 7 9 10 9 12 12 12 12 12 12 12 12 11 9 8 9 11 11 12 12 11 11 10
7 6 7 8 7 7 7 7 5 5 4 4 4 4 4 4 8 10 10 10 11 12 11 11 11 9 9 9 9 9 10 12 12 12 12 12 12 12 12 11 10 10 11 11 11 11 11 11 11
5 7 7 7 7 7 7 8 6 6 4 3 3 3 4 4 4 4 5 9 11 12 11 11 11 11 11 12 11 12 12 12 12 12 12 12 12 12 13 13 11 12 12 11 11 11 11 11 11
5 7 7 7 7 6 7 8 7 7 6 3 2 3 2 3 3 3 3 4 10 11 11 11 11 12 11 12 11 12 12 12 12 12 12 12 12 12 11 11 12 11 11 12 11 11 11 11 11
5 6 6 7 7 7 7 8 7 7 5 3 3 3 2 1 1 2 3 3 3 7 10 10 11 11 12 12 12 12 12 12 12 12 12 12 12 11 12 12 12 12 12 12 12 12 11 11 11
5 3 4 7 6 7 7 8 5 6 5 4 3 3 3 3 3 3 2 2 2 2 4 7 8 9 10 10 10 11 11 10 11 10 11 11 11 11 11 11 11 11 11 12 12 11 12 12 10
5 5 4 5 7 7 7 8 4 3 4 4 3 3 3 3 3 3 2 3 2 2 2 3 5 6 9 9 9 10 10 10 10 10 10 10 10 10 11 11 9 10 7 7 7 11 6 -0 -3
4 6 6 6 7 8 7 7 2 3 4 3 2 2 2 2 2 2 2 2 1 2 3 3 4 5 6 7 8 8 9 9 10 10 10 10 9 9 10 9 8 7 6 8 3 -3 -4 -4 -4
4 4 8 7 8 8 6 7 4 -1 -3 1 1 -0 0 1 1 1 2 1 1 2 3 3 3 3 5 6 7 7 8 9 9 10 11 9 10 10 9 8 7 6 8 -1 -3 -3 -3 -3 -2
4 2 5 7 7 6 3 6 -0 -5 -4 -4 -4 -3 -3 -3 -2 0 1 1 1 2 3 3 3 2 3 4 6 7 7 8 9 9 10 9 10 8 8 6 8 4 -2 -2 -3 -3 -2 -1 -2
5 4 1 2 1 4 2 -1 -4 -3 -2 -2 -2 -2 -2 -3 -3 -4 -2 2 3 3 3 2 2 1 1 0 0 1 3 6 8 9 9 8 8 8 7 5 -1 -2 -2 -2 -0 -1 -1 -1 -1
1 -1 3 3 4 3 2 1 1 -2 -1 -2 -1 -1 -1 -1 -1 -1 -2 -3 -0 2 3 3 3 2 2 2 1 1 1 2 7 9 9 8 7 3 -0 -1 0 1 -2 -0 -0 -0 -0 -0 -1
2 2 2 2 3 4 3 -0 -5 -3 -2 -1 -2 -1 -1 -1 -0 -1 -1 -1 -1 -1 -2 -2 -0 2 3 3 3 2 1 3 5 6 6 1 2 3 4 1 -2 -2 -0 1 0 -0 -0 -1 -1
3 3 0 2 2 1 -0 0 -4 -2 -2 -2 -1 -1 -1 -1 -1 -1 -1 -1 -2 -1 -0 -0 -0 -1 0 2 3 3 2 2 2 2 2 1 2 1 -1 -1 -0 1 0 0 -0 -1 -1 -1 1

GFSSGP_850_dewp_072.txt.gz
Dewpoint
10 10 8 7 9 7 7 7 5 6 7 7 6 11 12 12 10 10 15 14 12 11 12 12 10 11 12 9 4 12 13 9 4 11 13 13 13 14 13 12 9 1 -8 -7 -4 -1 0 1 2
8 8 8 8 9 9 7 3 3 7 9 7 6 12 12 14 15 15 14 13 12 11 12 12 11 11 12 7 5 12 13 0 -6 7 14 14 14 13 13 10 3 -8 -7 -6 -2 -1 -1 0 1
8 8 9 9 8 8 6 3 2 6 7 8 7 10 12 14 15 14 14 14 12 11 12 12 12 12 11 4 7 13 10 -5 -10 -1 12 14 14 13 11 8 -6 -7 -6 -4 -2 -2 -2 -1 -1
8 8 8 9 8 6 3 2 4 8 8 8 9 8 10 14 15 15 14 13 12 12 13 12 12 12 10 4 13 13 3 -6 -12 -11 5 10 12 9 5 -5 -7 -5 -4 -4 -2 -1 -1 -1 -1
7 8 9 10 7 6 2 -0 3 7 9 8 8 8 8 9 14 15 15 13 12 12 12 13 13 12 9 5 13 12 -0 -7 -11 -8 -8 -1 3 -3 -6 -6 -5 -4 -3 -3 -3 -2 -1 -1 -0
8 7 10 10 8 5 2 0 1 6 7 7 9 9 8 9 15 15 16 13 12 12 13 13 13 11 9 5 12 9 2 -4 -9 -6 -6 -6 -7 -6 -6 -5 -4 -3 -3 -2 -2 -2 -1 -1 -0
8 9 8 8 8 6 3 2 5 7 8 7 5 8 8 8 13 15 15 13 12 13 13 13 12 10 6 5 12 11 7 1 -6 -8 -5 -5 -5 -5 -5 -4 -3 -2 -2 -2 -1 -1 -1 -1 -0
8 8 8 8 7 7 2 1 3 6 7 6 6 9 8 9 11 15 15 13 11 13 13 13 12 10 5 4 11 13 11 7 1 -4 -6 -6 -4 -4 -4 -3 -2 -2 -1 -1 -1 -1 -1 -1 -0
6 8 7 7 7 5 2 3 4 5 6 5 6 4 6 8 11 11 14 12 12 13 13 13 12 11 6 3 7 12 13 12 8 2 -2 -3 -4 -4 -3 -3 -2 -2 -2 -1 -1 -1 -0 -0 -0
6 7 6 4 4 5 2 3 5 9 8 9 7 7 7 9 10 10 10 14 13 14 14 13 13 12 9 3 3 9 13 13 12 5 1 -2 -2 -2 -2 -2 -1 -1 -1 -1 -1 -1 -0 0 1
5 6 4 5 4 4 3 5 4 9 9 9 7 9 8 7 7 9 8 13 14 14 14 13 13 12 9 4 1 5 9 14 12 7 4 2 1 -2 -2 -1 -1 -1 -1 -1 -0 0 2 2 3
6 4 5 4 4 7 6 5 6 8 6 8 7 7 6 5 7 9 8 7 12 14 14 14 13 12 11 7 1 4 6 11 13 10 6 2 2 2 2 0 -0 -1 0 1 1 3 3 6 8
6 4 4 5 5 6 7 7 7 6 5 7 9 8 6 7 7 7 8 8 9 11 12 14 13 13 12 10 7 1 7 8 9 11 11 6 2 5 4 3 2 0 -1 -0 2 4 5 7 9
4 4 4 6 5 7 8 7 7 6 8 9 10 10 9 7 8 9 9 8 6 8 8 7 10 10 13 12 11 8 5 4 7 11 10 3 0 5 6 4 2 4 2 4 5 5 7 8 9
2 6 6 6 6 7 8 8 8 6 9 8 9 10 9 10 11 10 8 8 8 8 8 8 7 6 8 12 11 11 12 10 10 5 5 6 6 9 9 8 4 5 5 5 6 7 8 9 10
5 5 7 5 7 9 7 9 7 6 10 10 8 9 8 9 9 9 9 7 10 10 9 6 6 8 6 9 11 11 11 10 11 11 11 11 11 12 11 10 9 6 7 7 7 8 9 10 11
6 6 6 6 7 7 7 9 7 5 7 6 7 10 9 9 10 9 10 10 10 8 7 7 7 7 6 10 10 10 11 11 11 10 11 12 12 12 12 11 10 7 8 10 11 11 12 11 11
7 5 6 7 7 7 7 7 6 6 5 6 5 5 8 9 8 7 8 8 7 7 7 8 9 7 9 10 10 9 9 10 10 10 13 12 11 12 12 12 12 10 10 11 12 11 11 11 11
3 5 6 7 7 7 7 6 6 6 6 4 5 4 5 6 9 9 8 9 9 9 10 9 10 8 10 8 8 9 10 9 8 10 13 12 11 11 12 12 12 11 11 12 11 11 11 11 11
4 5 6 6 7 7 7 6 5 7 7 6 5 3 3 4 4 5 5 6 9 9 10 10 11 11 11 9 9 8 7 8 8 10 12 12 11 12 11 12 12 11 12 11 11 11 10 10 10
6 6 6 6 6 6 7 7 6 6 6 5 5 3 3 2 2 3 3 4 4 6 9 10 10 11 11 12 11 11 10 11 11 12 12 12 11 12 11 12 12 11 11 11 11 10 11 10 11
7 4 5 7 6 7 6 9 7 7 7 6 5 3 3 3 1 1 1 2 3 3 3 8 10 10 10 11 11 12 12 11 12 11 11 10 11 11 10 11 11 11 11 10 10 10 11 10 11
6 4 5 6 7 7 7 8 5 5 7 6 5 3 3 3 3 3 3 2 2 2 2 2 4 7 8 8 9 9 9 10 9 8 10 11 11 11 11 10 10 10 10 9 8 7 5 5 8
4 5 6 6 7 7 7 6 3 2 2 3 3 2 2 3 3 3 2 2 2 2 1 2 3 3 7 7 8 8 8 9 9 10 10 8 10 9 10 11 10 10 8 8 8 6 6 3 -3
5 6 8 8 8 8 5 6 5 -3 -4 -2 -2 -2 0 1 1 1 1 2 1 1 1 2 2 3 4 7 7 7 8 8 8 9 9 10 10 9 9 11 11 10 9 8 7 7 -2 -2 -3
4 3 5 7 8 7 6 7 0 -4 -2 -3 -2 -2 -2 -3 -2 2 2 1 2 2 2 3 3 3 2 2 4 7 7 8 7 8 8 8 9 10 10 11 10 8 7 8 1 -2 -3 -3 -2
4 4 1 2 1 6 4 -1 -4 -2 -1 -1 -1 -1 -0 -0 -1 -2 -0 3 3 3 3 3 2 2 2 1 1 1 0 0 1 2 6 8 9 9 9 8 6 7 8 -1 -2 -2 -1 -0 -0
2 -0 2 3 4 5 2 1 1 -1 -0 -1 -1 -0 -0 -0 -0 -1 -1 -1 -1 -1 1 3 3 3 3 3 3 2 2 2 1 1 3 7 8 8 8 8 8 5 -1 -1 -1 -1 -0 0 0
2 2 2 1 2 4 4 0 -3 -3 -1 -1 -1 -0 -0 -1 -1 -1 -1 -1 -2 -2 -2 -2 -3 -2 -1 0 2 3 3 2 2 3 7 9 10 9 6 2 0 -0 -0 -1 -0 1 0 -0 -0
3 2 -1 2 2 0 1 1 -2 -3 -2 -1 -0 0 0 0 -0 -1 -1 -1 -2 -2 -2 -2 -2 -1 -1 -2 -2 -0 2 3 2 2 4 6 6 3 2 1 2 0 -1 1 1 -0 0 -1 -1

GFSSGP_850_dewp_078.txt.gz
Dewpoint
9 10 10 10 7 5 5 4 3 3 5 5 7 7 7 10 7 11 15 15 14 15 15 12 13 11 11 9 6 9 8 11 8 2 7 8 9 10 13 13 9 -7 -6 0 2 1 1 2 3
9 9 10 9 8 5 4 2 4 2 3 6 7 10 11 11 14 15 14 14 16 15 16 15 13 10 9 8 3 9 8 13 12 4 9 9 11 12 13 11 -3 -6 -2 1 1 1 2 3 3
9 8 8 9 7 6 3 1 2 1 5 7 8 9 12 12 15 15 14 14 15 15 15 16 12 10 10 6 8 9 7 12 14 12 11 12 14 13 12 3 -7 -3 -0 1 1 2 2 2 2
8 8 8 9 5 3 2 -1 1 1 5 8 7 9 11 11 13 14 15 14 15 15 16 14 12 11 10 5 12 12 6 8 14 14 14 14 14 12 6 -6 -6 -1 1 1 2 1 1 1 1
8 7 7 7 5 2 0 -0 -0 1 1 5 9 8 10 10 9 13 15 14 15 15 15 13 12 12 10 7 12 12 -2 2 14 14 14 14 13 10 -2 -7 -4 0 1 1 1 2 2 1 0
5 4 5 6 2 1 1 1 1 1 1 1 5 6 10 9 8 9 14 15 15 15 15 14 13 12 8 9 12 13 -2 -6 14 14 14 14 13 8 -7 -6 -3 0 1 1 1 1 0 0 0
5 4 3 1 1 1 1 1 2 2 1 1 3 6 5 9 7 9 11 15 14 15 14 14 13 12 8 10 13 11 -2 -10 9 15 14 14 11 5 -6 -4 -4 -2 0 -0 -0 -0 0 0 0
5 4 4 1 1 1 -1 1 3 3 2 1 3 6 5 8 7 9 9 13 15 14 14 14 14 13 11 13 13 9 -2 -9 -8 12 14 13 6 -2 -5 -3 -3 -3 -2 -1 -1 -1 -0 -0 -0
4 6 5 1 0 -0 -2 2 2 3 2 2 4 5 5 7 5 7 9 9 11 13 14 14 14 14 13 13 12 8 3 -5 -3 -1 9 5 4 -3 -3 -2 -2 -2 -1 -1 -1 -0 -0 -0 -0
3 4 2 -2 -2 -2 -2 2 2 3 3 3 5 5 7 6 5 5 6 9 10 11 14 14 14 14 13 13 12 11 8 4 2 4 8 11 11 10 8 -1 -1 -0 0 0 0 -0 0 0 0
-1 3 -1 -1 -1 -1 -2 1 1 3 3 2 3 5 11 10 10 9 9 8 9 9 10 13 13 13 11 9 12 12 11 12 10 7 2 10 7 -1 -1 0 0 1 0 0 0 0 0 1 1
4 -0 -2 -1 -0 1 1 0 2 3 1 2 4 7 9 12 11 8 8 7 6 8 11 14 13 12 8 6 13 13 12 11 11 4 -1 -2 -2 -2 -2 -1 -1 -1 -0 -0 -0 2 1 1 2
1 0 -0 -2 1 2 2 2 2 2 3 1 3 6 10 11 11 10 7 6 6 9 9 12 13 12 10 4 7 12 13 12 11 9 4 2 -0 -1 -1 -0 -0 -0 -0 0 0 1 3 5 9
-1 0 0 0 1 2 2 3 3 3 2 3 3 5 9 11 11 10 7 6 6 6 8 11 14 13 12 6 3 5 10 12 13 12 7 6 4 4 3 3 2 3 1 1 3 8 10 10 10
2 3 1 0 0 3 1 4 5 4 4 3 4 5 8 11 11 9 8 7 7 8 8 8 12 13 12 11 7 2 4 6 10 13 13 12 11 6 7 9 8 6 4 2 2 6 8 11 11
3 2 5 1 0 -0 3 4 1 3 5 4 4 5 7 10 11 10 7 7 7 6 7 9 11 12 12 11 12 8 5 7 8 8 10 11 13 11 5 8 8 9 5 6 4 8 10 10 11
4 6 5 1 -2 0 3 5 2 4 6 4 3 5 7 10 11 10 7 7 6 8 10 9 9 9 10 9 9 12 11 11 10 9 8 7 6 6 7 11 11 10 8 7 6 8 10 10 11
7 4 3 2 0 1 3 4 6 6 5 5 5 7 6 7 10 10 7 8 7 8 9 9 9 10 9 9 9 10 11 11 11 11 10 10 11 11 11 12 12 12 10 8 8 9 9 11 11
4 6 6 1 3 3 6 5 5 5 6 6 7 7 8 9 11 11 8 8 8 8 8 8 7 8 8 8 9 9 9 9 8 10 9 9 10 11 11 11 12 12 12 10 7 10 11 11 10
5 6 7 6 5 4 6 6 4 4 6 6 6 7 9 9 9 9 11 10 8 9 10 10 10 10 10 9 8 9 9 10 9 10 9 9 9 9 10 11 11 12 12 11 10 11 12 10 10
5 6 6 7 6 5 6 7 6 5 6 7 6 6 7 8 9 8 9 9 10 10 10 10 11 10 9 7 8 8 10 10 9 10 10 11 10 9 9 9 11 12 12 12 11 10 10 11 10
6 4 5 5 7 9 6 8 6 5 7 7 6 6 6 6 6 8 9 9 9 9 9 10 10 10 10 10 10 9 9 10 10 10 10 10 11 11 10 9 10 11 12 12 12 11 11 10 10
5 5 5 5 5 7 7 9 6 6 8 7 7 7 6 5 5 5 4 4 5 5 5 7 9 10 10 11 11 10 10 10 10 8 8 10 11 9 9 9 10 11 12 12 11 11 10 11 10
5 4 5 5 5 9 8 8 6 4 1 5 4 5 5 6 4 3 3 2 2 3 3 3 3 7 10 9 10 10 10 10 9 10 10 9 9 8 9 9 10 9 10 10 10 11 11 10 8
6 5 8 8 9 9 7 6 5 -0 -1 0 3 2 4 3 4 3 3 3 3 2 2 2 2 3 4 9 9 8 9 9 9 9 8 9 9 8 8 9 10 10 8 8 10 11 10 9 9
5 4 5 6 9 9 3 7 5 -1 0 3 3 3 2 3 2 4 3 3 3 3 3 3 3 4 4 5 6 7 8 9 9 9 9 9 9 9 9 9 10 10 10 10 11 10 9 9 8
4 4 1 6 6 5 5 2 0 -0 1 2 3 3 2 1 1 1 1 1 2 3 3 3 3 2 2 2 2 2 2 2 2 3 4 5 6 8 9 9 10 10 11 10 8 8 8 8 7
1 -1 4 5 7 7 5 2 3 2 1 0 1 1 1 1 -0 -0 -1 -1 -1 -1 -1 -1 -1 -0 1 2 3 3 3 3 3 3 2 2 2 3 7 9 10 11 10 9 9 8 8 6 2
2 2 1 1 3 3 4 3 -1 1 0 0 0 0 -0 -1 -1 -1 -2 -2 -2 -2 -2 -2 -3 -2 -2 -1 -1 -2 -2 -2 0 2 2 2 3 4 6 10 11 10 7 7 8 8 6 1 -0
3 2 -1 2 2 1 0 1 -2 -2 -0 0 0 -1 -2 -3 -3 -4 -4 -4 -4 -4 -4 -3 -3 -3 -3 -3 -3 -2 -1 -1 -1 -1 1 2 3 6 9 10 10 9 9 9 9 5 0 0 -0

GFSSGP_850_dewp_081.txt.gz
Dewpoint
9 10 9 10 8 5 5 4 1 0 -1 0 4 5 5 4 9 12 15 14 14 14 15 14 13 12 11 10 9 3 9 10 4 6 9 10 9 11 10 12 8 -8 9 14 8 2 5 3 1
10 9 9 7 7 6 3 -0 1 -1 0 1 6 8 8 8 13 15 15 14 14 14 14 15 13 13 10 10 7 8 8 12 -0 7 7 9 8 12 13 12 -1 -4 9 11 1 3 4 3 2
9 9 7 5 6 6 2 -1 -1 -1 0 3 6 9 10 10 14 15 15 15 13 14 14 15 13 13 10 8 4 10 10 13 2 8 8 9 11 11 13 9 -6 3 12 2 3 3 3 2 2
6 8 7 5 3 2 1 -2 -3 -2 -0 2 6 6 11 13 13 14 15 15 14 15 14 14 13 11 10 8 4 9 10 14 10 9 9 11 13 13 12 -2 -5 1 2 3 4 4 3 3 2
5 4 4 3 3 1 -2 -2 -3 -2 -1 2 4 7 9 12 11 13 15 15 14 15 15 15 13 11 10 7 9 9 7 13 13 11 12 14 14 12 7 -7 -2 1 2 3 3 3 2 1 1
4 2 3 3 1 -1 -2 -2 -2 -3 -1 -1 2 5 6 11 9 11 13 14 15 14 14 15 13 12 11 7 11 11 3 12 14 14 14 14 13 8 -2 -6 -0 2 2 2 2 2 1 0 0
4 2 0 -1 -2 -3 -3 -3 -2 -2 -2 -1 -1 1 4 10 8 9 10 14 15 15 15 14 13 13 11 9 12 13 1 5 14 15 15 14 13 7 -6 -4 1 2 1 1 1 1 0 1 -0
2 2 1 -1 -2 -2 -5 -4 -4 -3 -1 -1 -1 1 2 9 6 6 9 10 13 14 14 14 14 14 12 11 12 13 2 -5 14 14 14 14 13 7 -6 -4 1 2 2 1 0 0 1 0 0
2 5 4 0 -1 -3 -6 -5 -4 -3 -1 -0 0 -0 2 6 8 6 8 8 9 12 13 14 14 14 14 13 13 12 2 -7 11 14 14 14 12 3 -4 -3 -2 0 0 -0 -0 -0 0 0 0
1 3 1 -3 -4 -4 -5 -5 -5 -2 -1 1 1 1 2 8 8 8 10 9 7 8 8 12 13 14 14 12 14 9 1 -5 2 13 14 13 10 10 10 -0 -1 -2 -1 -1 -0 -0 -0 0 1
-1 0 -4 -4 -4 -4 -3 -4 -4 -2 -0 -0 1 1 3 9 12 12 10 9 8 7 7 8 10 12 13 12 13 13 8 9 11 11 10 12 11 11 11 3 -0 -0 0 0 0 0 0 0 6
2 -1 -1 -4 -5 -3 -1 -1 -3 -3 -2 -1 0 1 5 9 10 11 10 7 5 7 6 6 7 9 13 12 13 13 11 10 10 11 11 11 11 11 11 9 3 4 1 5 1 3 5 6 6
-3 -3 -3 -2 -1 -3 -2 -1 -1 -2 -1 -1 1 2 4 7 10 11 11 8 6 5 7 7 7 11 13 11 12 12 12 12 11 10 10 11 11 8 10 9 9 7 5 7 7 7 7 7 8
-4 -4 -3 -3 -3 -1 -2 -2 -1 -0 -2 -1 1 1 3 4 9 10 11 9 6 6 6 7 9 12 13 10 12 12 12 13 12 12 10 10 9 5 8 9 8 5 5 4 7 7 8 8 10
-2 -0 -1 -2 -1 -1 -0 1 -0 -1 -0 1 -0 2 2 4 9 10 10 9 7 6 8 9 7 11 12 11 11 12 13 13 12 12 12 12 11 5 3 5 3 4 9 8 8 8 9 10 10
-0 0 3 -1 -1 -0 0 4 -2 -2 -0 1 2 2 2 2 7 10 11 10 7 7 6 7 6 9 12 9 8 11 13 13 13 12 12 8 7 7 5 7 11 11 11 10 8 9 10 11 11
1 4 2 1 -1 -0 1 2 -2 -3 -2 1 2 3 2 4 8 8 11 10 10 7 8 8 9 8 10 11 11 7 5 8 11 11 11 12 11 12 11 8 11 12 12 11 9 10 10 10 10
3 6 4 2 0 0 1 1 1 4 4 0 3 2 3 7 7 8 10 9 10 8 9 9 8 9 10 11 10 11 10 9 9 8 11 9 9 11 7 7 12 12 12 11 11 10 10 10 10
3 5 6 5 -0 -0 1 1 -0 4 5 5 2 2 5 7 7 6 10 8 8 9 10 10 10 9 8 10 10 10 11 11 11 11 11 12 11 12 12 12 12 12 12 12 11 11 10 10 10
3 5 6 4 1 2 -1 3 -0 4 4 5 6 4 6 10 7 10 10 10 9 10 10 10 10 10 9 9 10 9 10 10 11 11 11 10 9 9 10 11 11 12 12 12 12 10 10 10 11
5 4 5 6 5 3 4 7 6 3 3 5 6 7 9 9 9 8 9 10 10 9 10 10 10 10 9 10 9 9 10 10 10 10 10 11 10 11 11 10 10 10 10 11 12 12 10 11 11
5 3 5 6 5 8 4 8 6 4 4 7 6 7 8 9 8 8 7 10 9 7 8 9 10 10 7 8 8 10 10 10 10 10 10 10 10 10 10 10 11 10 10 9 9 9 12 11 10
7 4 5 5 8 7 6 6 6 5 7 8 8 8 7 7 8 8 9 9 9 10 9 9 8 8 8 9 6 7 9 8 8 8 9 9 8 8 8 9 11 10 9 8 9 9 10 12 11
4 5 6 6 8 9 8 7 7 6 5 4 5 5 5 5 7 6 6 5 5 8 7 8 7 10 10 10 10 10 10 10 10 9 7 7 7 7 8 6 6 10 8 7 7 8 10 10 11
6 6 9 10 10 9 7 5 7 5 2 2 5 5 5 5 5 6 6 5 4 4 4 4 4 8 8 10 10 10 10 10 10 10 8 9 8 7 7 7 8 9 8 7 6 9 9 10 9
7 4 8 10 10 8 5 7 6 4 4 4 3 4 4 4 4 4 4 5 4 4 5 6 5 5 6 7 9 8 8 9 9 10 10 10 9 9 8 8 9 8 9 9 9 10 9 10 10
4 5 1 4 2 5 6 6 4 3 3 3 3 3 2 3 3 3 3 2 3 3 3 3 3 3 3 3 4 5 6 8 9 9 9 10 10 10 9 8 9 9 9 10 11 10 11 10 9
2 -1 5 5 7 7 5 5 5 5 4 3 3 3 3 1 1 1 0 1 1 1 0 0 0 1 1 2 3 3 2 2 2 2 3 3 4 7 6 7 9 10 10 10 11 10 10 9 8
3 1 -0 1 3 3 5 4 -0 1 2 2 2 2 2 1 -1 -2 -2 -2 -2 -2 -2 -2 -3 -3 -2 -2 -1 -1 -2 -2 -1 1 3 3 3 4 5 6 8 10 10 10 10 10 9 9 9
2 -0 -1 3 3 1 2 3 -2 -0 -0 -0 -1 -1 -2 -2 -2 -2 -2 -2 -3 -4 -4 -5 -5 -5 -4 -4 -3 -3 -3 -2 -1 -1 -1 -0 1 2 3 6 8 10 10 10 10 8 8 8 6

GFSSGP_850_dewp_084.txt.gz
Dewpoint
6 8 9 8 10 8 7 7 4 4 2 -2 -1 2 6 8 13 15 14 14 14 14 15 14 13 11 10 9 10 8 2 2 5 9 10 10 10 11 11 12 5 -3 2 7 12 12 12 2 -1
8 8 8 8 9 8 6 2 2 1 -0 -1 1 6 7 13 14 15 15 13 14 15 14 14 13 12 11 10 9 4 6 8 4 7 9 9 10 10 10 12 -2 13 13 3 4 5 4 1 1
4 8 8 8 8 8 6 1 -1 -2 -1 -1 7 8 9 13 14 15 14 14 14 15 14 13 14 13 11 11 8 4 9 11 4 7 9 9 10 12 13 11 2 13 13 1 2 2 3 2 0
6 6 7 9 5 4 4 2 0 -2 -3 -1 4 7 11 12 13 12 14 14 14 16 15 13 14 14 11 11 7 8 9 12 2 10 9 10 10 11 13 6 0 13 3 1 2 2 2 1 0
5 5 6 5 4 2 -0 0 -0 -1 -3 -1 0 7 9 11 10 9 13 14 15 15 14 13 14 13 10 9 5 9 9 13 5 9 9 10 12 12 12 -2 2 3 2 3 7 2 2 1 1
5 3 6 5 2 -1 -1 -1 -2 -2 -3 -3 1 2 7 8 6 10 11 13 14 14 14 14 14 13 10 9 6 10 8 13 8 10 10 13 13 14 10 -4 -1 1 2 3 3 2 1 1 1
6 5 4 2 1 -1 -3 -3 -3 -3 -3 -3 -1 3 5 9 7 6 9 11 12 13 14 14 14 12 12 10 10 11 7 11 14 10 12 14 14 13 5 2 0 2 3 4 3 2 0 -0 0
2 3 5 3 1 -2 -5 -5 -5 -4 -4 -3 -3 0 2 3 5 7 7 9 11 12 14 14 15 13 13 11 10 13 4 6 14 14 14 15 13 7 -2 2 2 2 3 3 2 1 1 0 -0
1 5 5 3 0 -1 -4 -5 -6 -6 -4 -4 -3 -2 -1 5 8 7 10 9 10 9 13 12 11 13 13 11 11 13 12 -2 14 15 14 14 14 8 -4 -0 2 2 2 2 1 1 1 0 -0
1 3 3 -1 -2 -3 -4 -5 -5 -6 -5 -4 -2 -1 -0 6 7 8 8 7 10 9 8 11 10 9 11 11 11 13 11 -2 12 14 14 14 13 8 -4 -0 1 2 2 0 0 -0 -0 -0 -0
0 2 -1 -3 -4 -4 -4 -4 -5 -3 -3 -4 -2 -1 -0 1 6 8 7 5 6 9 8 8 8 7 9 10 13 13 10 -2 -1 14 13 13 12 6 0 0 -2 -1 -1 -1 -1 -0 -0 0 1
2 -0 -1 -1 -2 -3 -4 -4 -3 -2 -2 -3 -3 -2 -0 4 7 9 9 8 7 7 8 7 5 6 7 9 9 13 8 -3 -1 7 13 13 11 11 9 5 -1 -2 -1 -0 0 0 0 1 4
-3 -2 -4 -4 -3 -3 -2 -2 -3 -2 -2 -2 -2 -2 1 4 6 7 9 10 9 8 6 6 7 6 7 9 9 13 9 6 10 10 8 12 11 11 11 6 -0 -0 1 1 4 3 5 5 4
-3 -3 -3 -4 -4 -3 -2 -2 -2 -4 -2 -1 -1 -1 -0 1 3 5 9 8 8 7 6 7 8 8 7 8 10 12 11 10 9 11 11 11 11 11 10 9 4 4 4 3 5 4 6 6 7
-2 -0 -1 -2 -3 -2 -3 -0 0 -2 -3 -2 -1 -1 -1 1 2 6 8 8 8 8 7 7 10 9 7 8 12 12 11 12 10 10 10 10 9 6 6 8 6 3 3 2 3 6 7 8 9
1 1 2 -1 -2 -2 -2 2 -1 -0 -1 -3 -2 -0 1 -0 2 7 8 10 9 9 8 8 8 8 9 10 11 11 11 11 11 9 8 11 10 5 4 3 3 3 4 6 6 6 8 9 10
2 3 2 1 -2 -1 -1 1 -1 -2 -2 -3 -2 -0 1 2 2 3 9 8 10 10 8 8 9 9 9 7 10 11 12 11 11 12 10 10 8 7 6 8 10 12 11 11 9 8 8 9 10
2 3 4 5 1 2 1 1 -1 -1 1 3 -2 -1 2 3 5 7 8 7 10 10 9 8 9 8 9 8 7 8 9 11 11 12 12 13 11 11 11 10 9 12 11 11 11 9 9 10 10
1 2 3 2 1 4 4 2 -0 1 4 5 5 5 2 3 6 7 7 9 8 10 10 9 9 8 9 10 9 9 7 7 10 8 10 11 11 11 12 9 8 11 11 12 11 11 10 10 9
4 3 4 3 2 4 5 2 0 1 4 4 6 5 6 7 8 8 7 8 9 9 10 10 9 9 7 10 10 11 10 9 9 10 12 11 11 11 12 12 12 12 11 12 12 12 11 10 10
4 4 5 5 5 4 3 3 2 3 3 3 5 6 6 7 9 8 10 9 8 10 10 10 10 10 10 11 10 10 10 10 11 11 11 10 11 10 9 10 9 9 10 10 11 12 11 10 10
6 3 4 5 5 6 4 5 4 4 4 4 6 7 8 9 9 7 6 6 9 9 10 10 10 10 10 10 10 10 10 10 10 10 10 10 10 10 10 9 10 9 9 9 9 10 9 10 10
5 4 4 6 7 6 6 8 6 5 6 4 7 8 8 8 9 8 8 9 8 8 9 8 10 10 8 8 9 9 9 9 10 9 10 10 9 10 8 8 8 8 7 7 6 9 8 9 9
4 5 6 6 7 7 7 7 7 6 5 4 5 6 6 6 8 8 8 7 8 9 10 10 9 8 7 7 8 9 8 8 7 8 8 8 9 8 8 7 8 8 8 7 7 9 8 8 9
5 7 9 8 9 8 7 5 6 5 4 4 5 5 5 6 6 6 7 6 6 6 6 6 7 8 10 10 10 10 10 10 8 7 8 8 8 7 8 7 7 5 8 9 9 8 9 10 9
6 7 8 9 9 8 5 7 6 4 4 4 4 4 4 5 5 6 6 5 5 6 6 7 8 9 8 9 10 9 8 8 8 9 10 9 8 9 8 7 6 6 8 7 7 8 9 10 9
5 7 4 9 5 8 7 6 5 4 4 4 4 4 3 4 4 3 3 4 3 4 4 4 4 4 4 4 5 6 8 9 8 8 8 9 9 9 9 9 8 8 8 8 8 10 10 10 9
3 1 6 8 10 9 7 7 8 6 5 4 3 3 3 2 2 1 2 2 2 1 1 1 1 1 2 2 2 3 3 3 3 5 7 9 9 9 9 10 9 8 8 9 10 10 9 9 10
3 2 1 1 3 6 7 7 2 6 5 4 3 2 -0 0 -1 -2 -2 -2 -2 -1 -2 -2 -3 -3 -3 -3 -2 -2 -2 -1 -0 1 2 3 3 3 3 4 4 5 7 8 10 10 10 10 10
3 0 -1 5 3 3 4 4 -0 1 0 -0 -1 -1 -2 -2 -2 -2 -2 -3 -3 -4 -5 -5 -5 -6 -6 -6 -6 -6 -5 -4 -4 -3 -1 -1 -1 -0 1 2 3 4 7 9 10 10 10 10 9

GFSSGP_850_dewp_087.txt.gz
Dewpoint
3 6 8 7 9 9 10 9 6 6 3 2 -0 1 9 13 13 12 14 14 14 14 14 10 8 8 8 8 8 8 8 9 9 10 9 9 9 10 14 11 -0 -7 2 13 12 11 2 -2 -4
1 8 8 8 9 10 9 5 4 2 1 0 -0 6 9 14 14 14 13 14 15 15 14 12 10 9 9 9 10 9 7 6 9 10 9 8 10 11 13 10 -5 -1 7 12 10 4 0 -1 -4
1 8 8 8 9 9 7 3 2 -0 -0 -1 4 7 10 14 15 14 13 14 14 16 15 13 13 11 11 10 10 7 3 5 5 9 9 9 10 11 10 8 11 9 6 6 2 1 1 1 -1
5 6 7 9 8 6 5 3 2 1 -0 -1 3 10 11 12 12 12 13 14 14 15 15 13 13 12 12 11 10 5 9 10 8 8 9 9 11 12 12 6 13 13 2 0 1 1 1 0 0
6 6 7 7 6 4 2 1 1 1 -0 -1 -2 8 12 11 9 9 11 12 14 15 15 14 13 14 12 11 9 5 9 12 2 9 10 9 11 13 14 7 12 11 1 2 2 1 1 0 -0
5 5 6 7 4 1 -1 -2 -2 -1 -2 -3 -3 8 10 8 9 9 12 11 13 15 15 14 14 14 12 11 10 7 9 13 2 11 10 10 11 13 14 6 12 1 2 6 3 2 1 1 1
6 6 6 4 3 1 -1 -3 -3 -3 -3 -3 -3 1 9 7 7 6 9 10 11 12 14 15 15 14 13 11 10 9 8 12 6 10 10 10 12 14 13 5 9 5 3 3 2 1 0 1 1
3 3 5 5 5 3 -2 -4 -5 -5 -5 -5 -4 -2 5 6 7 7 6 8 10 12 13 14 15 14 13 13 12 12 10 8 13 10 11 12 13 14 12 0 8 4 3 2 1 1 -0 -0 0
-0 4 5 4 3 2 -2 -3 -4 -4 -5 -5 -6 -4 -0 2 6 7 6 6 7 9 10 12 14 14 13 13 13 12 13 3 12 12 11 14 14 14 10 6 9 4 3 2 2 1 0 0 -0
0 3 3 1 -0 -0 -3 -3 -4 -4 -4 -3 -3 -5 -1 2 5 8 7 6 6 7 8 9 11 12 12 11 10 12 13 12 7 14 13 15 14 11 7 4 4 4 3 2 1 0 0 0 -0
1 2 -0 -0 -1 -1 -2 -3 -3 -4 -2 -2 -2 -2 1 1 6 6 4 4 7 8 8 7 8 9 6 10 10 9 10 12 7 12 14 14 14 12 0 0 3 2 3 1 0 -0 -0 -0 -0
2 1 0 -0 -2 -1 -2 -3 -3 -2 -3 -4 -3 -2 -1 3 6 6 7 7 7 8 8 10 9 6 8 8 7 7 8 11 9 12 14 14 14 11 -3 -3 1 2 2 0 -0 -0 -0 0 1
-1 -0 -1 -2 -3 -3 -4 -3 -3 -3 -2 -2 -4 -2 -1 1 3 5 6 8 6 6 7 8 6 7 6 4 7 7 8 9 11 8 13 13 13 9 -0 -2 -1 -0 -0 -1 -0 0 -0 0 1
-2 -1 -1 -2 -3 -3 -3 -3 -3 -2 -3 -2 -3 -3 -2 -1 2 2 3 4 7 7 8 7 7 7 7 8 6 8 9 11 10 4 12 13 12 8 4 3 -0 -2 -1 -0 1 1 2 3 4
-1 1 -0 -2 -1 -1 -2 -1 -2 -3 -2 -3 -1 -4 -3 -1 -0 -0 2 3 6 7 8 7 7 7 8 9 9 8 9 12 7 3 8 12 12 11 8 7 1 -0 1 2 1 3 4 5 7
0 1 2 -1 -1 -1 -1 1 -4 -4 -2 -2 -2 -2 -3 -2 -0 1 3 6 4 7 8 7 7 8 8 9 9 8 12 10 10 11 11 11 12 11 10 6 5 4 4 4 3 4 6 8 9
2 0 2 0 -1 0 1 1 -2 -3 -3 -1 -2 -2 -4 -3 -1 1 1 3 7 8 7 8 7 8 9 10 10 8 11 11 11 10 11 11 11 11 9 7 6 5 4 5 6 7 7 8 9
-0 1 2 2 0 0 2 4 2 -2 -1 -2 -3 -2 -3 -3 0 3 3 7 8 8 8 10 8 8 9 9 11 6 10 12 12 10 10 9 8 6 6 7 8 10 11 11 10 8 7 7 8
1 2 2 1 -0 2 4 4 3 -1 -0 3 1 2 -2 0 3 7 7 6 7 8 8 8 9 9 9 9 11 11 9 11 12 11 9 10 10 8 8 10 11 11 12 11 10 10 9 8 9
3 4 3 2 1 4 5 5 4 0 1 2 4 4 4 5 5 6 6 6 7 8 9 9 8 9 10 9 8 9 9 9 11 11 11 11 10 11 11 11 10 10 11 11 12 11 11 11 10
3 5 4 3 2 4 4 5 3 1 3 4 4 4 5 5 4 5 7 7 9 10 9 9 9 10 10 10 9 10 9 9 10 9 10 11 10 9 9 9 9 9 10 10 11 11 11 11 11
6 4 5 5 6 5 4 2 3 4 4 4 7 7 4 6 8 7 8 8 8 9 9 9 10 11 10 9 10 11 11 10 10 10 10 9 10 10 10 10 10 9 9 9 9 9 9 9 9
6 4 5 5 6 7 5 7 6 4 5 4 6 8 7 7 8 8 8 9 8 8 8 10 10 10 10 9 10 10 10 11 10 10 10 10 10 10 10 9 9 9 9 9 9 9 7 6 6
4 6 5 6 7 7 3 6 6 5 5 4 5 6 6 7 7 8 8 8 8 9 9 9 9 9 10 10 8 9 9 10 9 9 9 8 8 8 7 7 8 8 9 8 8 9 10 9 9
5 6 8 8 7 8 6 5 5 5 4 4 5 5 5 6 6 7 7 8 8 7 8 8 8 9 9 8 9 9 9 8 7 7 8 7 7 6 7 8 8 8 9 8 9 9 9 10 9
7 7 7 9 8 8 5 6 6 4 4 4 4 4 5 5 5 5 6 6 6 6 6 8 8 8 8 8 10 10 9 9 8 8 7 7 7 7 8 8 8 8 8 8 7 9 9 9 10
5 7 6 8 6 8 7 6 4 3 4 4 4 4 3 4 3 4 4 4 4 4 4 4 5 5 5 5 5 6 8 10 9 8 9 9 9 9 9 9 9 9 9 9 9 10 8 8 9
3 2 5 7 9 9 8 7 7 5 4 4 3 3 3 2 2 3 2 3 2 1 1 0 1 1 1 1 1 2 2 3 5 6 8 9 9 8 9 10 10 10 10 10 10 9 9 10 10
4 3 2 2 4 6 6 7 6 5 4 4 2 2 2 1 1 -0 -1 -2 -2 -3 -3 -4 -4 -4 -4 -4 -3 -3 -3 -2 -1 -0 1 2 2 3 3 3 3 3 3 4 5 9 10 10 10
2 3 -0 4 3 3 4 6 3 3 2 1 1 -1 -1 -0 -2 -2 -3 -3 -4 -4 -4 -5 -5 -6 -6 -7 -7 -7 -7 -6 -5 -4 -4 -3 -2 -2 -2 -2 -1 0 1 3 5 9 9 10 10

GFSSGP_850_dewp_090.txt.gz
Dewpoint
-3 5 8 8 9 8 10 9 7 7 4 2 2 1 3 12 12 10 15 15 14 14 11 8 8 7 7 7 8 9 10 10 9 10 8 7 9 7 13 10 -6 7 12 13 13 4 -3 -4 -5
4 9 7 8 8 9 8 7 7 4 2 1 -0 2 11 14 14 14 14 14 15 14 13 9 7 6 7 7 8 8 9 10 9 10 9 8 11 10 13 10 -6 5 12 12 11 0 -3 -4 -3
5 8 6 8 7 8 7 4 4 3 1 0 -0 5 11 14 14 14 13 14 16 15 14 11 7 8 8 8 9 9 8 8 9 9 10 9 11 11 13 10 -5 -0 12 14 8 0 -2 -3 1
7 7 7 9 8 6 5 4 2 1 0 -0 -1 3 11 13 13 12 11 13 15 15 15 13 11 10 10 10 10 9 5 3 3 9 9 10 11 13 11 7 9 12 12 13 3 1 0 -2 1
5 6 5 7 7 6 3 2 1 -0 -1 -1 -2 -0 9 11 12 12 10 11 13 15 15 14 14 13 11 11 11 7 6 9 8 7 8 10 10 12 11 11 12 10 10 3 11 2 0 0 1
6 5 6 7 4 2 -1 -2 -2 -2 -2 -2 -4 3 7 9 12 14 12 12 11 13 15 15 14 14 13 12 12 7 8 11 12 7 9 10 10 13 12 11 13 6 2 2 3 1 0 -0 1
5 5 5 5 4 2 -0 -2 -4 -4 -4 -5 -5 -3 -0 -0 11 11 10 11 12 13 14 14 14 14 14 12 12 10 10 10 13 1 9 11 11 13 14 12 13 5 3 3 2 1 0 0 1
4 4 5 5 5 4 0 -1 -2 -3 -4 -4 -5 -3 -2 1 8 9 9 8 9 10 12 12 14 14 13 12 12 10 11 10 12 7 11 11 12 13 14 12 12 11 13 11 3 1 1 1 1
0 4 5 4 4 3 -1 -2 -3 -3 -4 -4 -4 -2 7 5 6 9 9 8 8 9 10 12 12 14 13 11 11 10 13 9 9 11 11 11 11 13 14 11 9 11 12 6 2 1 -0 1 1
-0 3 3 2 1 0 -1 -1 -2 -3 -3 -4 -4 -4 -2 1 7 9 7 7 7 8 8 9 10 11 13 12 11 9 13 13 8 11 11 11 11 14 14 11 9 9 3 3 4 1 0 -0 -0
1 2 0 -1 -2 -1 0 -1 -2 -2 -2 -3 -3 -2 -4 -2 5 7 9 7 5 7 8 9 10 10 11 11 12 11 9 11 9 10 12 12 12 14 14 10 10 4 4 3 3 1 1 0 -0
2 1 1 0 -0 -0 -1 -2 -2 -3 -3 -3 -2 -2 -2 -3 5 7 5 8 7 7 7 7 7 8 9 8 9 9 9 9 7 8 12 13 13 14 14 8 5 3 3 2 1 0 0 -0 -0
-1 -1 -1 -2 -2 -3 -4 -3 -3 -3 -4 -3 -3 -4 -3 -3 -2 4 7 5 5 7 7 7 7 7 8 6 4 4 4 5 8 6 10 12 13 14 13 8 0 2 2 2 0 0 -0 -0 0
-1 -0 -1 -1 -2 -2 -2 -3 -3 -4 -5 -5 -5 -5 -4 -2 -3 4 5 3 3 3 4 6 7 7 6 6 5 6 8 7 8 6 6 11 10 13 13 8 1 3 2 1 -0 -0 0 -0 0
-1 -0 -0 -2 -2 -1 -3 -1 -1 -4 -5 -5 -4 -3 -3 -4 -3 -3 -1 2 2 4 5 7 7 7 6 6 7 8 9 8 7 6 7 9 11 12 12 2 2 2 3 0 -0 1 2 3 4
-1 -0 2 -1 -2 -2 -1 1 -2 -3 -3 -5 -4 -3 -2 -4 -3 -4 -1 2 3 4 3 3 6 7 6 7 8 9 9 10 6 8 9 9 10 12 11 5 3 -0 -1 -0 1 4 4 4 5
1 0 1 1 -2 -1 1 2 0 -1 0 -3 -4 -5 -4 -2 -4 -6 -1 3 4 5 6 6 6 6 6 8 9 9 9 11 8 12 12 9 8 12 11 10 7 2 1 2 2 4 4 5 6
-0 1 1 2 0 -1 0 1 -0 -0 2 1 -2 -0 -0 -4 -3 -5 -2 2 4 5 7 7 6 7 7 8 9 10 9 10 9 10 8 6 7 9 11 11 9 5 5 5 5 4 5 6 7
-0 1 2 1 -1 1 2 2 2 1 2 -0 -1 0 1 -3 -1 -3 3 5 6 5 7 7 8 8 8 8 9 10 10 10 9 9 8 10 10 11 11 11 9 7 6 4 5 7 7 7 7
2 3 3 2 1 3 4 4 2 2 1 0 1 2 3 6 3 5 5 6 6 6 8 8 8 9 9 8 8 9 10 10 11 9 8 7 6 10 11 10 8 8 8 9 10 10 9 8 8
2 3 3 4 3 2 3 3 3 2 2 4 4 5 4 3 4 4 5 6 7 7 10 11 10 10 10 8 8 9 10 11 12 12 11 11 10 9 9 7 7 10 10 10 10 10 10 10 10
5 2 5 6 6 5 4 2 4 4 4 4 6 7 7 8 6 5 4 7 9 9 9 9 9 10 10 10 9 10 10 10 10 11 10 9 8 8 8 8 9 11 10 9 9 10 9 9 9
4 4 6 5 5 5 5 6 3 3 4 4 4 6 6 7 8 8 8 2 8 9 9 9 10 10 10 8 10 10 10 10 9 10 10 10 11 10 10 10 10 10 10 10 10 10 9 9 9
3 5 6 6 6 6 2 4 5 5 5 4 4 5 6 7 7 7 8 8 8 8 9 9 9 9 9 10 9 10 10 10 10 11 11 10 9 10 10 10 10 10 10 10 9 9 9 9 9
5 6 7 7 6 7 6 6 5 4 3 4 5 5 5 5 5 5 6 7 7 8 8 8 9 9 9 9 9 9 9 10 9 9 9 9 9 9 8 8 8 8 9 9 9 8 8 9 9
7 6 7 8 8 6 6 6 6 4 4 5 4 4 4 4 4 4 5 6 6 6 7 7 7 8 8 8 9 7 7 9 9 9 10 9 9 8 8 8 9 9 9 9 9 8 8 9 9
6 7 6 8 6 6 7 6 4 3 4 3 4 3 3 3 3 3 4 4 4 4 4 5 5 5 5 5 4 5 8 8 6 7 7 9 10 9 9 9 9 9 9 9 9 8 8 9 9
5 3 7 7 8 8 7 7 7 5 4 3 3 3 2 2 2 2 3 3 2 2 1 -0 -0 0 0 0 1 1 2 3 7 8 8 8 8 8 8 10 10 10 9 9 9 9 10 10 9
4 5 3 2 5 8 6 7 5 4 3 3 2 3 2 2 1 2 1 1 -1 -3 -4 -4 -5 -5 -5 -5 -4 -4 -3 -2 -1 0 1 2 3 3 4 4 4 4 5 6 8 10 10 9 9
2 3 1 4 3 3 3 5 4 4 3 2 1 1 1 1 -0 -1 -1 -2 -3 -3 -4 -4 -5 -5 -5 -5 -6 -6 -6 -6 -7 -7 -6 -4 -3 -2 -1 -1 -0 0 1 1 3 8 9 8 8

GFSSGP_850_dewp_093.txt.gz
Dewpoint
-3 3 8 9 9 7 9 7 7 7 5 1 0 0 0 2 7 9 13 14 14 14 11 12 11 11 11 11 10 9 9 9 9 9 9 10 9 9 13 10 -1 10 13 14 12 -2 -3 -4 -2
6 8 7 7 7 8 5 6 7 5 3 1 -0 2 10 12 14 12 13 14 14 14 10 8 9 10 9 10 11 10 10 10 9 9 8 8 9 8 14 9 2 11 12 13 9 -3 -4 -4 -3
7 8 5 7 6 7 5 4 5 2 1 0 -0 -0 10 13 14 13 13 14 14 14 12 9 8 8 7 8 9 10 10 10 10 9 9 9 11 10 11 9 0 11 12 13 6 -2 -4 -3 0
8 7 6 6 7 6 5 3 3 1 -0 -1 -2 -1 1 10 14 14 13 13 14 15 13 10 8 7 7 7 8 8 9 8 9 9 10 9 11 13 13 10 -3 10 13 12 5 -2 -4 -1 2
6 5 4 7 7 6 4 3 2 -1 -1 -2 -3 -2 -1 5 12 13 12 14 14 14 14 12 8 8 9 10 10 10 8 5 4 6 9 10 10 12 14 10 -0 1 13 12 2 0 -2 1 2
4 4 4 4 4 2 0 -1 -2 -3 -3 -4 -4 -4 2 3 5 9 11 13 13 14 15 13 13 12 11 11 11 10 7 8 8 6 8 8 10 11 13 10 11 12 12 13 2 1 -0 -0 2
4 3 3 5 5 3 0 -2 -3 -3 -4 -4 -5 -4 -4 2 7 11 10 11 12 13 14 14 14 14 13 12 12 10 9 11 12 11 8 9 11 11 12 12 13 12 12 9 8 1 0 0 1
4 4 6 4 5 3 0 -1 -1 -4 -4 -4 -4 -3 5 -1 6 11 10 10 10 11 12 13 14 14 14 13 12 10 9 11 11 13 5 10 11 11 13 12 13 9 5 9 11 1 0 0 1
2 4 4 4 4 2 -1 -1 -2 -2 -3 -3 -4 -3 -3 -3 4 12 11 10 9 10 9 11 11 12 13 13 12 10 9 10 10 12 7 11 12 11 13 13 12 3 8 5 5 2 1 1 1
1 3 3 2 1 0 -1 -0 -1 -1 -2 -2 -3 -4 -4 -4 -3 2 11 10 12 10 10 10 10 11 11 11 11 10 8 9 9 12 10 12 11 12 13 13 13 3 12 12 7 3 1 1 1
0 2 0 -0 -1 -1 1 -1 -1 -2 -1 -3 -3 -3 -4 -4 -3 1 5 10 10 11 11 11 10 9 10 10 11 10 9 11 9 8 9 12 12 12 13 13 13 11 13 13 10 3 1 0 0
2 1 1 1 -0 -1 -0 -1 -3 -3 -3 -3 -4 -4 -4 -4 -4 -2 1 7 9 8 10 10 10 11 11 10 10 11 10 10 9 7 7 7 12 12 13 14 14 11 12 10 6 3 1 0 0
-2 -1 -1 -1 -2 -2 -2 -2 -3 -3 -4 -4 -5 -4 -4 -5 -4 -3 -2 6 9 8 6 6 7 7 8 9 8 8 7 6 5 8 7 8 8 12 13 14 13 10 11 8 6 3 1 1 0
-1 -0 -1 -2 -2 -2 -1 -3 -3 -4 -5 -6 -6 -5 -5 -5 -6 -5 -3 6 8 5 6 6 6 4 5 6 7 6 5 4 4 7 6 3 6 9 13 13 13 11 5 6 5 3 0 0 0
-1 -1 -1 -2 -3 -2 -3 -2 -1 -5 -6 -5 -4 -4 -4 -6 -7 -6 -4 -3 1 2 4 5 5 6 6 7 6 6 5 5 5 4 6 6 6 6 10 12 13 6 3 8 4 3 1 0 0
-0 -1 1 -2 -2 -2 -3 -2 -4 -4 -4 -2 -2 -2 -1 -3 -4 -6 -6 -4 -3 0 3 5 5 6 6 6 6 6 7 6 7 7 7 8 6 6 8 10 12 10 10 9 6 2 1 0 0
-1 0 1 0 -2 -1 0 2 -1 -2 -2 -1 -0 1 -2 -4 -5 -5 -5 -5 -4 1 4 5 5 5 6 7 6 6 7 8 8 9 9 8 6 6 6 10 12 8 4 8 7 1 1 1 2
-3 -1 0 1 -1 -1 -0 -1 -2 -1 -1 1 1 2 -0 -2 -2 -5 -5 -6 -2 2 4 7 7 6 7 7 7 7 7 7 9 9 9 10 9 8 10 11 10 8 8 5 6 2 2 4 4
-3 -0 1 0 -1 0 1 1 0 -0 1 2 2 0 -1 0 -0 -3 -3 -4 4 6 6 7 7 6 7 8 8 7 7 7 9 9 10 11 12 12 11 10 11 9 8 6 2 4 6 5 5
1 2 2 1 0 3 3 3 1 0 1 2 1 2 3 5 5 2 -0 3 5 5 6 6 7 7 8 9 9 8 8 8 9 10 10 11 11 11 10 10 10 10 4 4 6 7 7 5 6
2 3 2 2 3 3 4 4 2 2 3 5 6 6 7 6 8 6 6 5 5 6 6 6 6 6 8 10 9 9 9 10 9 10 10 10 9 8 9 8 9 10 7 7 8 7 6 6 7
4 1 2 3 6 4 3 2 1 3 4 3 5 6 6 6 7 8 8 7 7 6 6 7 9 10 10 9 9 10 10 9 9 9 11 10 10 10 8 9 9 9 10 9 7 7 9 10 9
3 3 4 5 6 5 4 3 2 3 3 4 5 5 6 7 6 7 8 7 7 9 8 9 9 9 9 8 9 9 9 10 10 10 11 11 9 8 9 7 8 8 8 9 6 7 8 9 10
2 4 5 6 6 6 2 2 1 5 4 4 4 5 5 5 6 7 7 7 8 8 9 9 9 9 9 9 10 9 9 10 10 10 11 11 10 9 10 10 9 9 8 8 8 9 9 9 10
4 5 4 6 6 5 6 4 3 4 3 4 5 5 4 4 5 5 6 6 7 7 8 8 8 9 9 9 8 9 9 10 10 9 10 10 10 10 9 8 8 8 9 10 10 10 10 10 10
5 6 7 7 7 6 6 7 5 3 3 4 4 4 3 3 3 3 4 4 5 6 6 7 7 7 7 8 8 8 7 9 9 9 9 10 9 9 9 9 8 8 9 8 9 9 9 9 9
7 7 6 8 6 5 6 6 4 4 3 3 3 3 2 3 3 3 3 5 5 5 6 6 6 6 5 5 6 6 8 8 8 8 8 9 9 9 9 9 7 9 9 9 8 8 9 9 9
6 5 7 7 8 8 7 7 7 5 4 2 2 2 2 2 3 3 3 3 2 0 -0 -0 -0 -0 0 -1 -0 0 1 2 6 8 8 9 9 9 9 8 9 9 10 10 9 9 9 9 9
6 6 6 5 7 8 6 6 5 4 3 2 2 2 2 2 2 2 2 -1 -1 -2 -3 -3 -4 -4 -5 -5 -6 -6 -6 -5 -3 -2 -1 1 2 2 3 4 6 7 5 7 9 9 8 9 10
1 3 2 4 3 3 3 6 4 4 3 3 2 2 2 2 2 0 -1 -1 -2 -3 -4 -4 -5 -5 -4 -4 -5 -5 -6 -6 -6 -6 -7 -7 -6 -5 -4 -2 -1 0 0 1 1 3 5 6 7

GFSSGP_850_dewp_096.txt.gz
Dewpoint
-8 5 9 9 6 6 8 5 7 6 5 2 1 0 0 0 2 5 12 14 14 14 14 14 11 13 12 11 11 9 9 9 8 7 8 9 9 9 10 11 1 4 12 14 11 2 -2 2 0
-0 6 8 6 7 4 -1 6 7 5 3 1 -0 -0 8 10 11 13 13 14 14 14 13 13 11 12 12 11 10 10 10 10 9 9 9 9 9 8 12 9 5 10 13 13 5 -3 -4 -3 -0
6 7 5 5 5 5 1 4 4 2 1 0 -1 -2 7 12 13 13 13 14 14 14 11 11 11 10 11 10 11 10 10 10 10 9 8 9 10 9 12 9 8 11 13 13 2 -4 -4 -3 -3
8 5 6 5 6 5 4 3 3 1 -1 -3 -3 -2 -3 10 13 14 14 14 14 14 12 10 10 10 9 9 9 9 10 10 10 10 10 10 11 11 9 11 6 11 13 13 3 -3 -4 -2 1
7 5 4 5 5 5 4 4 1 -2 -2 -3 -4 -4 -3 7 6 13 13 14 15 15 13 11 10 9 8 8 8 8 9 8 9 10 10 10 10 12 14 10 3 11 13 12 6 -3 -3 -0 1
3 2 -1 2 4 3 1 0 -2 -3 -3 -4 -4 -5 -1 -0 -1 4 12 12 12 14 14 13 12 9 8 8 9 9 9 8 7 8 8 9 10 11 13 13 3 11 11 12 6 -2 -2 0 1
3 -1 -1 3 4 3 1 -2 -3 -3 -3 -4 -4 -4 -4 -2 1 7 12 12 11 11 13 14 12 11 10 11 11 11 10 8 6 6 8 9 9 11 11 12 8 6 8 12 3 0 -1 0 1
4 1 5 4 3 1 -0 -2 -2 -3 -3 -3 -4 -3 1 -3 -2 5 11 12 11 11 11 13 13 13 12 12 12 12 10 8 9 11 10 9 10 11 11 12 12 13 13 13 7 2 0 -0 1
2 2 3 2 4 2 -1 -1 -2 -2 -2 -3 -3 -3 -3 -4 -4 -2 8 11 12 11 11 10 10 12 12 13 13 12 11 8 9 10 13 9 10 11 12 13 13 13 11 12 13 4 0 0 1
1 0 1 1 1 1 -1 -0 -1 -1 -2 -2 -3 -5 -4 -4 -4 -3 1 7 10 11 11 11 10 11 10 11 11 12 11 8 8 9 11 3 8 12 12 13 12 12 10 8 13 10 1 0 1
0 1 0 -0 -0 -0 0 -0 -1 -2 -1 -4 -3 -3 -4 -5 -5 -4 -2 -1 5 11 12 11 11 11 10 10 10 12 11 9 8 8 11 9 10 11 12 13 12 13 12 12 11 11 4 1 1
2 1 0 1 -1 -2 -1 -1 -2 -2 -2 -3 -4 -4 -4 -5 -5 -5 -4 -3 0 8 10 11 10 9 10 11 11 11 11 10 9 8 8 7 8 7 11 13 13 13 13 10 12 10 4 2 1
-2 -1 -1 -2 -2 -3 -3 -2 -2 -3 -4 -6 -5 -5 -5 -6 -7 -7 -5 -5 -2 6 9 9 9 8 7 9 10 10 11 11 8 10 9 5 7 7 7 10 12 13 12 11 12 12 6 2 1
-1 -1 -2 -3 -4 -4 -3 -4 -4 -5 -7 -7 -8 -8 -8 -7 -6 -10 -8 -5 -4 5 9 9 9 7 7 7 7 7 9 9 9 7 5 5 8 8 7 7 10 12 12 12 11 11 9 4 1
-2 -2 -2 -3 -4 -3 -4 -4 -1 -8 -6 -5 -5 -4 -3 -3 -3 -3 -10 -8 -5 -2 3 6 8 8 7 6 6 7 7 6 5 5 4 4 8 8 8 6 7 9 13 12 10 11 8 6 3
-1 -2 -1 -5 -2 -2 -3 -1 -4 -3 -1 -2 -3 -3 -2 -0 -0 -1 -5 -12 -7 -4 -2 -1 1 5 6 7 7 7 6 6 6 6 6 5 4 5 6 9 9 8 9 13 11 8 9 6 3
-2 -2 0 -0 -2 -1 -1 1 -1 -1 -2 -3 -2 -2 -0 0 -2 -3 -4 -13 -8 -4 -3 -1 2 5 5 6 7 7 7 6 7 7 7 7 6 5 6 8 10 11 9 10 8 7 8 6 3
-4 -2 -1 0 -2 -2 -1 -1 -2 -2 -2 -1 -1 0 0 0 -2 -2 -3 -7 -12 -6 -4 0 3 6 7 7 8 8 8 7 7 7 8 9 8 8 9 8 9 11 11 11 8 7 6 5 4
-3 -1 0 -0 -1 0 1 1 0 -0 0 1 1 0 2 1 1 2 1 -5 -6 -6 -2 2 4 7 7 7 8 8 7 7 8 8 8 9 9 9 10 10 10 11 11 11 9 8 9 8 4
1 2 1 0 -0 1 3 3 2 1 1 2 5 5 6 6 6 7 1 -3 -3 1 6 5 6 6 7 8 8 9 9 8 8 8 8 8 9 9 10 11 10 11 10 10 7 7 6 5 4
1 2 2 2 1 2 3 2 -1 2 3 3 5 6 6 6 6 6 7 9 4 3 4 5 6 7 7 7 8 9 9 8 8 8 8 8 9 9 9 12 11 12 11 8 5 6 7 6 4
3 0 1 3 5 5 1 4 -0 2 3 2 5 5 6 6 6 6 6 8 7 5 6 6 6 5 5 6 7 9 9 9 10 8 7 9 10 9 9 10 11 11 11 8 7 5 3 5 5
2 1 3 3 5 6 4 4 1 2 3 2 3 4 5 6 6 6 6 6 6 8 8 8 9 8 8 7 9 9 9 9 8 8 10 9 9 9 9 10 10 9 9 10 9 5 4 6 8
1 3 4 4 6 6 2 4 0 4 4 4 4 4 4 4 5 5 6 6 6 7 7 8 7 8 9 9 9 9 9 9 9 10 10 10 11 11 11 10 9 10 10 10 10 9 8 6 7
4 6 5 3 4 4 5 4 1 3 3 4 4 4 3 3 4 4 5 5 5 6 7 7 8 8 9 8 8 9 9 8 9 8 9 9 10 10 10 9 9 8 8 8 8 8 8 8 8
6 6 6 4 7 6 6 7 5 3 4 4 4 3 3 3 3 3 3 4 5 4 4 5 6 6 7 7 8 8 8 8 8 8 8 8 9 8 10 9 9 9 9 9 9 9 9 8 9
7 7 6 7 7 7 5 6 5 4 3 2 2 2 2 2 2 2 2 3 3 3 3 4 4 4 2 2 4 4 7 8 8 8 8 8 8 9 9 9 9 8 8 7 7 7 7 8 9
6 5 8 7 7 8 7 6 7 5 4 2 2 1 2 2 2 2 1 1 1 0 -0 0 -1 -3 -4 -5 -5 -4 -3 -1 1 4 6 7 7 8 8 8 8 9 8 9 9 9 9 9 9
6 5 6 6 7 8 7 7 6 5 3 3 2 2 2 2 2 1 1 -0 -1 -2 -3 -4 -4 -4 -4 -5 -5 -5 -5 -6 -6 -6 -5 -5 -3 -2 1 3 3 5 7 7 5 8 9 9 9
1 2 2 3 3 3 3 5 4 4 3 2 2 2 2 2 1 1 -0 -2 -3 -4 -4 -5 -5 -6 -6 -6 -6 -7 -7 -7 -7 -6 -6 -6 -6 -6 -6 -6 -5 -3 -1 0 1 2 4 8 8

GFSSGP_850_dewp_099.txt.gz
Dewpoint
-4 7 9 7 3 5 4 2 7 6 5 2 1 0 0 0 2 6 13 15 14 15 14 15 11 11 10 11 11 10 10 9 8 7 8 12 12 10 10 10 1 2 11 12 14 8 12 1 1
-2 8 8 6 4 -3 -5 5 6 6 2 1 0 -0 7 8 13 14 14 14 15 15 15 15 12 13 12 12 11 10 9 8 8 8 7 8 12 9 9 10 2 7 12 13 9 -1 1 -1 -1
6 8 5 5 6 -0 -2 4 4 3 -0 -2 -2 -2 5 12 11 14 14 14 15 14 14 14 13 13 13 11 10 10 9 9 9 8 8 10 12 9 11 10 5 11 13 12 4 -3 -4 -1 -3
7 7 4 5 4 3 2 3 3 -0 -2 -4 -3 -2 4 4 2 7 13 14 15 14 14 12 12 12 12 11 10 10 10 10 9 10 9 10 12 9 10 11 11 11 11 13 6 -4 -3 -2 -2
6 1 3 3 3 4 4 3 2 -2 -2 -4 -4 -4 -4 6 -1 2 10 14 14 15 14 13 13 12 11 11 11 10 10 10 10 10 10 10 11 11 11 11 10 10 12 13 9 -3 -4 -2 1
2 -1 -1 -2 1 2 1 2 -0 -3 -3 -4 -4 -4 -4 1 -3 2 8 12 12 14 15 13 13 13 11 10 10 10 9 9 10 10 10 9 10 11 12 12 9 10 12 12 12 -2 -3 -0 2
1 -4 -5 -2 1 2 1 -1 -3 -3 -3 -4 -4 -4 -4 -3 -3 -0 7 12 12 11 13 14 13 12 10 9 9 9 9 9 9 9 9 8 9 11 11 13 10 9 10 12 11 1 -3 0 1
2 0 4 3 2 -1 -0 -1 -2 -3 -3 -3 -4 -3 -1 -3 -4 -3 -0 9 11 12 12 12 14 12 10 9 10 10 10 10 9 6 5 9 9 10 11 12 13 9 9 10 10 2 -2 1 2
2 0 0 1 3 0 -1 -1 -2 -2 -2 -3 -3 -3 -3 -4 -4 -4 -3 4 10 11 12 12 13 13 13 13 12 11 11 11 10 8 10 10 8 10 11 12 12 11 11 11 12 4 0 1 2
0 -3 -3 0 1 1 -1 0 -0 -1 -2 -3 -5 -9 -9 -8 -6 -5 -5 -2 2 7 12 12 11 12 11 12 11 12 12 12 10 7 9 11 12 8 10 11 12 12 13 13 11 11 5 1 1
0 -0 -0 -0 0 -1 -0 -1 -1 -1 -1 -3 -4 -4 -5 -6 -9 -8 -6 -5 -3 2 8 10 12 11 11 11 11 11 11 12 10 9 8 11 7 4 9 11 12 13 13 13 12 12 11 3 1
1 1 0 0 -1 -2 -2 -2 -2 -3 -3 -6 -7 -5 -5 -6 -8 -8 -8 -7 -5 -2 5 10 11 12 12 11 11 10 10 11 10 9 7 8 8 8 9 9 11 12 12 12 12 11 12 9 2
-1 -1 -1 -2 -3 -3 -3 -2 -3 -3 -7 -8 -7 -6 -7 -8 -10 -13 -14 -12 -8 -4 0 6 9 11 10 10 10 10 9 11 11 10 8 9 9 8 8 8 10 9 11 12 12 11 11 10 7
-2 -1 -2 -4 -4 -4 -3 -3 -4 -7 -10 -8 -7 -6 -6 -4 -4 -4 -6 -12 -13 -7 -4 4 9 9 9 10 10 9 10 11 11 10 9 10 10 9 9 8 9 11 10 10 11 12 11 12 8
-2 -3 -3 -4 -4 -2 -4 -5 -2 -8 -4 -3 -3 -3 -4 -4 -4 -4 -3 -6 -12 -12 -6 -2 8 9 9 8 8 8 9 11 11 11 10 7 5 4 5 8 8 9 11 11 11 12 12 11 12
-1 -3 -3 -6 -2 -3 -3 -1 -6 -6 -2 -2 -3 -3 -2 -2 -2 -1 -2 -3 -7 -15 -9 -4 -1 1 6 8 8 8 7 8 8 7 6 6 6 6 5 5 8 8 9 12 12 12 12 11 7
-3 -2 -1 -2 -3 -2 -1 0 -2 -2 -2 -2 -2 -2 -0 -1 -1 -2 -3 -4 -8 -10 -12 -6 -3 -3 -0 2 6 7 8 8 7 6 6 6 7 7 7 6 6 8 8 10 10 12 13 10 8
-2 -1 -1 -0 -2 -1 0 0 -1 -1 -1 -1 -1 0 2 3 2 1 -0 -1 -3 -7 -10 -9 -5 -4 1 4 7 8 7 7 7 7 6 6 7 7 8 8 8 8 9 9 11 10 10 11 8
-3 -0 1 -0 -2 -0 1 1 1 0 1 1 3 4 5 6 5 5 5 2 -0 -3 -6 -8 -5 -2 4 6 7 7 5 6 7 7 7 7 7 8 8 9 9 9 10 10 11 10 11 12 8
1 1 1 0 -1 1 2 2 1 1 2 4 4 5 5 5 5 5 6 6 1 -1 -4 -3 0 3 5 7 6 7 7 7 7 8 8 8 8 8 8 9 10 10 10 10 9 10 11 11 7
1 1 1 2 1 2 2 3 -0 1 2 2 4 4 6 5 6 5 6 6 4 7 8 4 5 5 6 6 6 6 7 8 8 8 8 8 8 8 8 9 10 10 11 11 9 10 11 11 8
2 -0 1 2 4 6 3 6 1 1 2 1 3 4 5 5 5 6 6 6 6 7 5 4 5 5 5 5 6 6 7 10 9 8 8 7 7 7 7 9 10 10 11 11 10 10 11 10 8
2 0 2 3 5 6 5 5 2 2 2 3 4 4 4 4 5 5 5 6 6 7 6 5 6 6 6 6 8 8 9 9 8 8 9 10 9 9 9 9 9 10 10 10 10 10 9 9 8
1 3 4 5 6 6 2 4 2 4 4 3 4 4 3 4 4 4 4 5 6 6 6 7 7 7 7 8 8 9 9 9 9 8 8 8 9 9 9 10 9 10 10 10 10 9 8 8 7
3 6 4 3 5 5 3 4 3 3 2 3 4 4 3 3 3 3 3 3 4 5 6 6 7 7 7 8 8 8 9 9 9 8 8 8 8 10 10 11 10 10 10 10 10 10 10 7 7
6 6 5 5 6 5 5 5 5 3 4 4 3 3 3 2 2 2 2 2 3 3 3 4 4 3 5 5 6 8 8 8 8 8 8 9 9 8 9 9 9 9 9 9 9 9 9 8 7
6 6 5 7 5 7 5 6 5 4 3 2 1 2 2 2 2 1 2 2 2 3 2 2 1 1 0 2 1 -1 1 3 4 7 7 8 8 8 8 9 9 9 9 9 9 9 9 8 7
5 4 7 7 7 7 6 6 7 5 4 2 1 1 1 1 1 1 1 1 1 1 2 3 2 -1 -3 -4 -4 -4 -3 -4 -6 -5 -4 -1 2 6 8 8 8 8 8 8 9 8 9 9 8
6 5 5 6 7 7 7 6 5 4 3 3 2 2 1 1 1 1 0 -0 -1 -1 -2 -2 -3 -3 -6 -7 -7 -7 -7 -6 -6 -6 -6 -6 -5 -5 -5 -2 -1 1 3 5 7 6 7 7 9
1 2 2 4 3 3 3 4 3 3 3 2 3 2 2 2 1 -0 -1 -2 -4 -6 -6 -7 -8 -10 -12 -14 -16 -17 -18 -18 -19 -19 -19 -19 -17 -13 -10 -7 -6 -6 -5 -3 -1 0 1 2 3

GFSSGP_850_dewp_102.txt.gz
Dewpoint
3 6 8 7 1 -0 -5 -3 3 4 3 2 2 1 0 0 2 7 15 15 15 15 16 15 12 11 12 11 9 9 9 9 10 10 13 13 13 12 11 10 0 6 12 13 13 13 13 10 5
3 8 8 4 -1 -6 -7 1 4 4 2 1 0 -0 3 6 13 14 15 14 14 15 15 16 12 12 11 11 11 10 10 9 8 7 9 12 12 11 10 9 3 6 12 12 11 11 8 0 3
6 8 5 1 -4 -6 -4 2 3 2 -1 -1 -0 -1 5 9 8 10 13 13 15 15 15 15 14 12 12 12 12 11 10 8 8 9 8 9 14 9 9 10 4 7 12 13 11 3 -3 -1 -0
8 6 2 1 -4 -0 -1 2 2 1 -1 -3 -2 -1 6 5 5 4 5 13 14 15 15 15 14 13 14 13 12 11 9 9 9 9 8 10 13 10 13 13 6 10 12 13 11 -2 -3 -0 -3
7 3 -1 -3 -3 -0 1 2 2 -1 -2 -3 -4 -2 0 5 2 1 5 12 14 15 15 14 14 13 13 13 12 11 10 10 10 10 11 11 11 11 10 12 12 11 12 13 12 -3 -3 -0 -1
2 -2 -5 -5 -5 -2 -2 0 0 -1 -3 -3 -4 -3 -1 3 -3 -2 4 11 12 13 14 14 13 13 12 12 12 11 11 11 11 11 11 10 10 11 11 12 11 11 11 13 13 1 -3 -2 1
-3 -7 -8 -7 -5 -4 -2 -2 -4 -4 -4 -4 -3 -4 -2 1 -4 -4 -2 7 12 12 13 14 14 13 13 12 11 11 10 10 11 10 10 10 10 11 11 12 12 11 11 12 12 11 -3 -2 2
-1 -6 -4 -4 -4 -4 -1 -1 -2 -3 -4 -3 -4 -6 -4 -0 -4 -4 -4 -2 8 12 11 12 13 14 13 11 9 9 9 9 9 9 9 9 9 9 11 11 13 12 11 11 11 11 4 -1 3
-2 -8 -6 -4 -2 -2 -1 -2 -2 -2 -3 -4 -4 -4 -4 -4 -5 -5 -5 -5 1 7 12 12 12 13 14 13 11 10 10 11 11 11 8 8 8 12 10 10 12 13 11 10 10 10 7 -1 3
-4 -7 -7 -2 -1 -1 -1 -1 -2 -4 -6 -6 -7 -7 -7 -5 -5 -6 -8 -7 -5 0 6 11 12 12 13 13 13 13 12 12 12 11 8 9 10 13 13 13 11 12 12 10 12 11 8 2 9
-0 -4 -3 -1 -0 -0 -2 -3 -3 -4 -5 -6 -7 -9 -8 -6 -6 -6 -8 -8 -8 -4 -0 3 11 12 12 13 12 12 11 11 11 12 9 9 10 9 8 13 11 11 12 12 12 12 12 10 9
-2 -1 -1 -0 -0 -1 -3 -4 -5 -6 -7 -8 -8 -8 -7 -6 -5 -5 -6 -11 -12 -8 -4 -1 5 10 11 12 12 12 11 11 10 11 10 8 9 9 9 12 13 13 13 12 13 13 13 12 11
-3 -1 -1 -2 -2 -3 -4 -5 -6 -7 -8 -8 -7 -6 -6 -5 -6 -6 -5 -8 -16 -14 -8 -3 0 8 11 12 12 12 11 11 12 11 9 7 8 8 8 9 13 13 13 13 11 12 12 12 13
-3 -3 -4 -4 -5 -5 -5 -6 -5 -9 -7 -7 -5 -5 -5 -4 -4 -3 -3 -4 -5 -12 -14 -7 -3 6 10 11 11 11 11 12 12 11 10 9 9 10 11 10 9 10 13 13 13 12 13 12 12
-2 -5 -6 -5 -4 -4 -3 -4 -4 -7 -5 -3 -3 -3 -3 -3 -3 -2 -2 -2 -2 -4 -10 -14 -5 3 9 10 10 11 11 11 11 11 11 11 11 10 9 6 6 7 9 13 13 13 12 12 11
-4 -5 -5 -6 -3 -2 -2 -4 -6 -7 -2 -2 -2 -2 -2 -2 -1 -0 -0 -1 -0 -3 -5 -10 -10 -2 6 9 9 10 10 10 10 11 11 11 10 9 6 6 6 5 10 9 11 12 12 12 12
-5 0 -3 -3 -3 -2 -1 -0 -3 -2 -1 -1 -0 -1 -1 0 2 3 4 2 -2 -4 -2 -7 -9 -7 -2 3 6 8 9 9 8 7 8 9 7 6 6 7 8 8 7 7 9 10 11 12 12
0 1 -1 -1 -3 -2 0 0 -2 -1 -0 1 2 3 4 5 6 6 6 6 4 0 -2 -5 -7 -9 -5 -3 -2 1 4 7 7 7 7 7 6 6 7 8 8 10 11 10 10 13 12 12 11
-1 0 1 -1 -2 0 1 1 0 -1 1 2 3 4 4 5 5 6 6 6 7 4 1 -1 -7 -6 -5 -4 -1 2 5 6 6 6 7 7 7 7 7 8 8 8 10 11 11 11 10 11 12
0 1 2 -0 -1 1 1 2 0 -0 2 2 3 4 5 6 5 6 5 4 6 7 7 4 1 -4 -0 1 6 7 7 7 6 6 6 6 7 7 8 8 7 8 10 11 11 10 10 10 12
1 1 1 3 1 1 2 2 1 0 2 1 2 4 4 5 6 6 5 5 6 6 6 5 7 9 9 9 8 7 6 5 5 5 5 5 7 8 8 7 7 7 9 10 10 10 10 11 11
3 -1 0 2 4 5 2 6 2 0 1 1 2 3 4 4 5 5 5 5 6 6 6 7 8 8 7 5 6 6 6 8 8 6 8 8 9 10 9 7 7 7 9 10 10 10 11 11 11
2 -1 1 2 4 5 3 6 2 0 1 1 1 3 3 4 3 4 5 5 5 6 6 6 7 5 5 5 5 6 7 8 8 9 8 9 8 8 10 10 10 10 10 10 10 10 11 11 11
-0 2 3 3 4 7 3 4 3 2 3 2 2 4 4 3 2 3 3 4 4 5 6 6 7 6 7 7 6 8 8 9 9 9 9 9 8 9 10 10 10 10 10 10 9 10 10 10 10
3 4 6 6 6 7 2 4 3 2 4 4 4 3 3 2 2 2 2 3 3 4 5 5 6 6 7 7 7 7 8 8 8 8 8 9 8 7 8 9 10 10 10 10 10 10 10 10 10
4 6 7 7 6 6 3 6 5 4 4 3 2 2 2 2 2 2 2 2 2 2 3 3 2 3 3 3 3 4 6 6 6 8 7 8 8 8 8 9 9 9 9 9 9 9 9 9 9
6 7 5 7 4 7 5 6 5 4 3 2 2 2 1 1 1 2 2 2 3 3 3 3 2 1 0 1 3 2 1 -2 -3 -2 -2 1 4 7 8 7 8 8 8 9 9 9 9 9 8
4 4 6 7 8 6 5 6 7 5 4 3 2 1 1 1 1 1 1 2 2 2 3 2 1 -3 -1 -1 -4 -3 0 2 -1 -5 -5 -6 -5 -5 -1 4 4 5 7 7 8 8 8 9 8
5 5 4 4 5 6 5 5 5 5 3 3 2 1 1 1 1 1 1 0 -1 -1 -2 -2 -4 -6 -10 -11 -13 -14 -13 -9 -11 -13 -16 -17 -16 -14 -10 -7 -5 -4 -2 2 3 5 6 7 7
1 2 0 4 5 3 3 3 3 3 3 3 3 2 1 2 1 0 -1 -2 -6 -7 -9 -10 -11 -14 -17 -18 -18 -19 -19 -19 -19 -19 -19 -19 -19 -18 -20 -20 -20 -20 -17 -12 -7 -4 -3 -1 1

GFSSGP_850_dewp_105.txt.gz
Dewpoint
3 7 8 6 3 -1 -2 -5 -2 -1 1 0 1 0 -0 0 1 10 14 14 15 15 16 16 14 12 11 10 11 12 12 12 12 14 14 13 13 12 12 10 4 5 12 13 12 13 13 13 7
6 8 7 3 4 -2 -5 -2 0 1 1 0 -0 -0 0 6 10 12 14 13 14 14 16 16 15 12 12 12 9 9 10 10 10 11 13 13 11 12 11 10 4 7 12 13 12 13 12 11 3
8 8 4 1 -4 -3 -1 -1 3 1 -1 -0 -1 -1 4 7 6 8 10 13 14 15 16 16 16 13 12 12 12 11 10 10 9 8 8 10 12 12 9 9 7 6 12 12 12 9 7 1 2
7 6 2 1 -4 -1 -1 -0 1 0 -1 -1 -1 -1 5 5 5 5 8 12 13 15 16 15 15 15 13 13 12 12 11 10 9 9 9 9 12 13 11 11 10 6 11 13 13 3 -1 0 0
7 3 -0 -3 -3 -2 -1 0 -0 -2 -2 -2 -2 -1 2 2 2 1 4 10 13 14 15 16 14 14 13 14 13 12 11 10 10 10 11 12 11 12 11 12 12 6 11 13 13 7 -2 -1 -2
2 -0 -2 -2 -4 -3 -3 -1 -1 -3 -3 -4 -3 -3 0 2 0 -3 -0 5 13 12 14 15 14 14 13 13 13 12 12 11 11 10 10 10 10 10 11 11 12 11 11 12 13 10 -3 -1 -2
-1 -4 -6 -6 -6 -5 -4 -3 -5 -5 -5 -5 -4 -4 1 4 -1 -3 -2 -1 6 13 13 14 15 14 13 13 12 12 11 11 11 10 10 10 10 10 10 11 12 12 11 11 12 13 3 -3 -1
-2 -6 -6 -7 -6 -4 -2 -3 -3 -4 -6 -4 -5 -8 -7 -0 -3 -2 -1 -3 -2 7 12 12 14 15 14 14 12 11 10 10 10 9 10 10 10 9 9 10 11 12 11 11 12 12 12 -0 -1
-1 -5 -6 -5 -6 -2 -3 -4 -3 -3 -4 -6 -6 -6 -6 -6 -7 -4 -3 -4 -2 -2 6 11 13 14 14 14 14 11 9 9 9 10 10 10 8 7 9 9 11 11 12 11 11 11 10 9 -0
-6 -6 -6 -4 -3 -3 -3 -3 -4 -5 -7 -8 -8 -8 -8 -8 -7 -5 -4 -3 -2 -5 -3 3 10 13 14 14 14 14 13 11 11 11 12 11 10 13 13 13 12 11 12 12 11 10 10 11 1
-4 -4 -4 -2 -2 -2 -4 -5 -6 -5 -6 -8 -9 -9 -9 -8 -7 -6 -6 -4 -3 -5 -8 -4 3 9 13 14 14 14 14 13 12 12 12 11 13 13 13 14 13 12 12 12 11 11 12 11 6
-3 -3 -4 -2 -1 -3 -5 -6 -7 -8 -9 -9 -9 -8 -8 -8 -7 -6 -5 -5 -5 -5 -13 -9 -4 2 10 12 14 13 13 12 11 10 12 10 9 10 12 13 12 12 13 12 13 12 13 12 12
-5 -3 -3 -3 -3 -5 -6 -7 -7 -8 -9 -9 -9 -8 -7 -7 -7 -6 -6 -5 -4 -4 -4 -9 -9 -3 2 9 11 14 13 13 12 9 9 11 9 9 8 10 12 13 12 13 13 13 13 13 13
-3 -4 -5 -6 -6 -6 -6 -8 -7 -9 -8 -6 -5 -5 -5 -4 -4 -4 -4 -4 -4 -4 -4 -3 -3 -9 -3 4 10 11 13 12 12 12 12 11 8 8 8 9 9 9 13 13 12 12 12 13 12
-4 -5 -6 -6 -6 -5 -4 -3 -4 -7 -8 -4 -3 -3 -3 -3 -2 -3 -2 -1 -2 -2 -1 -1 -0 -3 -4 0 8 11 13 13 12 12 12 12 11 11 10 11 10 10 8 10 12 13 12 12 12
-5 -5 -4 -6 -4 -3 -2 -5 -6 -7 -3 -3 -2 -2 -1 -1 -1 -0 1 1 1 -0 -0 -0 -0 -0 -1 1 6 11 12 13 13 12 12 12 12 11 11 11 10 10 11 12 11 10 12 12 11
-5 3 -3 -3 -4 -3 -1 -2 -4 -3 -2 -2 -1 0 2 3 4 4 5 5 6 5 4 2 0 -0 -0 1 7 11 12 13 12 11 12 12 11 11 10 10 9 10 11 10 10 11 11 11 11
0 -0 -2 -2 -2 -2 -1 -0 -2 -3 -2 -1 0 2 3 3 3 4 5 6 6 6 6 6 4 1 -1 1 4 8 11 12 11 11 11 11 10 10 10 10 10 10 11 11 10 11 10 11 10
-2 -2 -1 -1 -2 1 1 1 -1 -2 -1 1 1 1 3 4 5 6 6 7 7 7 7 7 5 3 0 -1 3 7 8 9 11 11 9 9 9 9 10 10 10 10 10 10 10 11 11 10 10
-1 -0 2 -1 -1 0 1 2 -0 -1 -0 1 2 2 3 4 5 5 5 6 5 6 5 4 7 5 1 0 7 8 9 10 11 11 9 8 7 6 9 10 10 9 10 10 10 10 10 11 11
-0 -0 0 3 1 1 2 2 1 -0 1 1 1 2 3 3 4 5 4 5 5 6 5 6 6 6 6 6 7 8 10 9 9 8 6 7 7 8 9 8 9 9 10 9 9 10 10 11 11
2 -2 0 2 3 6 1 6 2 0 -0 1 0 1 3 3 4 4 4 4 4 5 5 6 6 6 6 8 8 8 8 9 10 10 10 9 10 8 8 10 10 10 9 10 10 9 10 10 11
2 -0 1 2 3 4 3 6 2 -0 -0 0 1 3 3 4 3 3 3 3 4 4 4 4 5 6 6 7 6 5 6 9 9 9 9 8 8 8 7 7 8 9 10 10 9 9 10 10 11
-0 2 3 2 3 6 3 4 2 2 2 3 3 3 3 3 2 3 3 3 3 3 4 4 5 6 6 7 6 5 6 8 8 8 8 9 9 8 7 9 9 9 10 10 10 10 10 11 10
2 4 7 7 7 7 2 3 2 1 4 3 3 3 3 2 2 2 2 2 2 3 2 2 3 5 5 5 7 6 7 7 8 8 7 8 8 8 8 8 8 8 8 10 10 10 10 10 10
4 5 7 7 7 6 3 6 5 3 3 3 3 2 2 2 2 2 2 3 3 3 2 1 1 2 2 2 3 2 2 4 5 5 3 5 4 7 8 8 7 6 8 8 9 9 10 10 10
5 7 4 7 4 6 5 4 4 4 3 1 2 2 2 1 1 2 2 3 3 3 3 2 2 3 -0 -2 1 3 3 3 1 1 -3 -5 -5 -5 -1 2 4 4 4 5 6 7 7 8 9
2 3 7 7 7 7 6 6 7 6 6 3 2 2 1 1 1 2 2 2 2 2 2 1 -1 -1 1 1 -5 -4 -2 -1 -3 -11 -17 -17 -16 -14 -15 -11 -8 -4 1 1 3 4 5 6 7
4 4 3 3 4 7 5 6 4 4 4 4 2 2 2 1 2 2 2 0 1 -1 -2 -3 -7 -11 -14 -14 -15 -15 -13 -13 -14 -15 -16 -17 -17 -17 -14 -15 -17 -15 -13 -13 -7 -3 1 0 1
1 2 -0 3 5 3 3 3 3 3 2 3 3 3 2 2 2 2 1 -1 -4 -8 -10 -9 -11 -15 -16 -16 -16 -15 -15 -16 -16 -16 -16 -15 -14 -15 -15 -14 -13 -15 -15 -13 -14 -15 -17 -16 -17

GFSSGP_850_dewp_108.txt.gz
Dewpoint
4 5 8 7 7 4 3 -2 -2 1 -0 0 0 0 0 9 12 15 14 13 14 15 15 15 15 13 11 12 13 13 12 13 13 12 14 13 13 12 12 10 6 4 12 13 13 14 13 12 6
6 7 8 6 7 3 -0 -1 1 2 1 0 -1 -0 -0 9 7 11 11 12 13 15 16 16 15 13 12 11 12 12 12 12 11 12 12 12 12 12 12 10 7 5 13 13 12 12 12 11 4
7 8 7 7 1 2 3 0 3 -0 -1 -0 -1 -0 6 6 6 6 7 12 13 14 15 15 15 15 12 12 11 10 10 10 10 12 11 10 11 12 12 10 8 4 12 13 12 11 10 6 0
7 7 5 4 2 0 1 2 1 -0 -1 -2 -1 5 6 4 4 3 4 10 13 15 15 15 15 15 14 12 12 12 11 11 10 9 9 9 9 12 13 10 9 4 10 12 12 11 3 2 0
7 5 3 -0 -0 -1 1 -0 -1 -1 -1 -2 -3 -1 5 1 2 -1 1 6 12 13 15 15 15 15 14 13 13 13 13 11 10 9 10 9 9 11 12 11 12 10 7 12 13 13 1 -1 0
5 2 3 3 -1 -1 -1 -2 -2 -3 -3 -4 -3 -3 4 2 1 -1 -3 -0 7 12 14 15 15 14 14 13 13 13 13 12 10 10 9 9 10 10 10 11 10 12 8 11 12 12 6 -3 -1
5 1 -1 -3 -1 -3 -2 -4 -5 -5 -5 -4 -4 -4 4 2 -2 -3 -3 -3 -2 5 11 14 15 15 14 13 12 12 12 12 11 11 10 10 10 10 10 10 11 11 11 11 12 12 12 -1 -2
1 -2 -5 -7 -5 0 -2 -3 -3 -4 -4 -5 -5 -6 -3 -4 -6 -7 -5 -4 -4 -4 3 10 13 14 14 14 14 13 12 11 11 11 10 10 10 10 10 9 9 10 11 11 11 11 12 11 -1
-2 -0 -2 -4 -5 -1 -3 -4 -3 -4 -5 -6 -6 -6 -7 -8 -8 -7 -7 -9 -8 -6 -5 1 9 12 14 14 14 14 13 11 10 9 9 9 10 10 8 8 8 9 11 11 11 11 12 10 9
-3 -2 -0 -3 -2 -2 -3 -4 -5 -6 -6 -7 -7 -8 -8 -9 -9 -8 -7 -7 -7 -10 -10 -7 -2 7 11 13 13 13 14 11 10 10 11 11 11 9 9 12 12 12 10 11 12 11 11 10 9
-4 0 -3 -2 -1 -3 -5 -6 -6 -5 -5 -7 -9 -9 -9 -8 -8 -7 -7 -6 -5 -6 -10 -13 -10 -5 4 9 13 13 13 14 13 13 13 13 13 13 13 13 13 13 12 11 11 12 11 10 11
-3 -3 -4 -2 -1 -3 -4 -6 -7 -8 -8 -9 -9 -9 -9 -8 -8 -7 -7 -6 -6 -6 -6 -8 -13 -13 -6 1 8 12 13 13 13 12 12 12 12 12 13 12 13 12 12 11 11 12 12 11 11
-4 -3 -3 -3 -3 -5 -6 -7 -7 -8 -9 -9 -9 -7 -6 -6 -5 -4 -4 -3 -4 -4 -3 -4 -4 -7 -10 -4 0 7 12 13 13 12 11 10 12 10 9 13 13 13 13 13 12 12 12 12 12
-3 -3 -5 -6 -6 -7 -6 -6 -8 -9 -8 -6 -4 -3 -3 -3 -3 -2 -2 -3 -2 -1 -2 -2 -3 -2 -2 -6 1 1 9 13 12 13 12 10 10 11 9 9 10 12 13 13 13 12 12 12 12
-5 -4 -4 -5 -6 -5 -4 -2 -3 -7 -8 -6 -3 -3 -2 -1 -1 -1 -1 1 3 3 1 -0 -1 -0 -1 -2 -2 4 3 11 12 11 12 12 11 11 9 8 8 8 9 10 10 12 12 12 12
-4 -5 -2 -4 -4 -3 -2 -3 -4 -8 -5 -3 -2 -1 1 2 3 4 4 5 6 6 6 5 3 1 -0 -0 -2 1 4 12 12 12 11 11 12 12 12 11 10 8 9 9 8 7 10 11 12
-4 5 -2 -1 -4 -3 -1 -0 -4 -4 -3 -2 -1 1 2 3 4 5 5 5 6 6 6 6 6 6 2 -0 -2 -1 5 9 12 11 12 11 11 11 11 11 11 10 10 9 7 7 9 10 9
2 0 -2 -3 -1 -2 -0 -1 -2 -2 -3 -2 -0 1 2 3 4 5 5 4 4 4 4 3 6 7 5 2 -0 -3 4 8 11 11 11 11 11 11 11 10 10 10 9 9 9 9 7 8 8
-2 -3 0 -1 -2 0 1 1 -0 -2 -2 -1 1 1 2 3 4 4 5 5 4 4 4 3 4 4 7 4 1 -0 2 7 9 10 10 10 9 9 9 10 10 10 10 10 10 10 10 8 7
-1 -1 2 1 -1 0 1 2 1 -0 0 1 1 2 3 3 3 3 3 4 4 5 4 3 4 3 5 6 3 -1 4 6 7 8 10 10 9 8 9 10 10 10 9 9 9 9 9 9 10
-0 0 1 3 2 1 2 3 1 -0 1 2 1 2 3 3 3 3 4 3 4 4 5 4 5 5 4 4 5 4 5 5 6 7 8 9 9 8 9 8 9 8 9 9 9 9 10 10 10
3 -1 0 2 4 5 2 5 3 2 1 1 1 2 3 3 3 3 3 3 3 4 5 4 5 5 5 5 4 5 8 6 6 8 9 10 9 8 10 9 9 9 8 9 9 9 9 9 10
3 1 2 3 3 4 4 4 4 0 1 1 3 4 3 2 3 3 2 3 3 4 4 4 4 5 6 6 6 6 7 6 7 8 6 8 8 8 9 8 8 7 8 8 8 9 9 10 10
-0 2 3 2 3 5 4 4 4 3 3 3 3 3 3 2 2 2 2 3 3 3 3 4 4 4 4 5 6 6 7 5 5 5 7 7 8 8 8 8 8 8 8 8 7 9 9 9 9
1 3 6 7 7 5 4 4 3 3 4 3 3 3 3 3 2 2 2 3 2 2 2 2 2 2 2 3 4 5 6 6 7 6 5 6 7 7 7 7 7 7 6 6 6 7 8 9 10
4 5 7 5 7 7 3 5 4 4 3 3 2 2 3 2 2 2 2 3 3 3 2 2 2 -1 -1 1 2 2 1 3 4 2 1 1 1 -1 -2 3 2 2 3 5 5 5 6 6 7
5 7 4 5 4 5 4 4 5 4 3 2 2 2 2 2 2 2 2 3 3 3 2 1 1 3 2 1 -3 -4 -2 -1 -2 -2 -3 -0 2 -9 -12 -11 -10 -9 -8 -5 0 1 4 5 5
3 2 6 6 8 7 6 6 7 6 4 3 2 2 1 2 1 2 3 3 2 2 0 -2 -4 -5 -4 -5 -6 -6 -6 -8 -9 -13 -11 -12 -15 -15 -15 -13 -13 -14 -13 -11 -12 -8 -2 3 5
4 4 3 3 4 6 6 6 4 5 3 3 1 1 1 2 2 3 2 2 0 -3 -8 -9 -11 -15 -14 -16 -15 -15 -15 -15 -15 -14 -13 -13 -12 -12 -13 -14 -14 -14 -13 -14 -12 -12 -12 -11 -8
1 2 1 3 6 4 3 4 3 3 2 2 2 2 2 2 2 3 1 -1 -3 -5 -8 -11 -13 -13 -15 -15 -14 -15 -15 -14 -14 -14 -14 -14 -15 -16 -17 -18 -20 -22 -22 -21 -20 -20 -18 -16 -14

GFSSGP_850_dewp_111.txt.gz
Dewpoint
1 8 8 7 4 4 4 -1 -1 0 1 -0 0 5 8 8 13 15 13 13 13 14 14 15 15 14 11 12 13 13 13 13 13 13 12 12 12 11 12 10 6 6 12 12 13 13 12 9 4
4 7 8 7 6 2 -1 1 3 1 0 -2 -1 0 6 7 10 8 11 11 12 14 14 15 15 15 11 11 12 12 12 12 12 12 11 11 12 11 11 10 8 4 13 14 12 12 12 11 4
7 8 8 7 3 3 3 3 0 -1 -1 -1 -1 5 6 5 5 5 7 12 12 15 15 15 15 15 13 12 11 10 11 11 10 10 8 9 10 11 12 10 9 5 12 13 12 12 12 11 6
7 7 6 4 3 0 3 1 -1 -1 -2 -2 -0 6 3 3 4 1 3 6 11 14 14 14 15 15 15 13 12 12 11 10 10 10 8 8 8 11 12 9 9 6 9 12 12 12 4 2 0
7 7 3 -1 -1 2 0 -1 -2 -1 -2 -3 -2 3 2 2 1 -2 -2 0 4 12 15 14 15 15 15 14 13 12 12 12 11 10 9 9 9 9 11 10 11 11 5 10 12 12 11 -1 -1
6 3 3 2 -0 -0 -3 -4 -3 -3 -4 -4 -3 1 2 1 -0 -2 -2 -3 -3 5 13 14 14 14 14 14 13 14 13 13 11 10 10 10 10 11 10 10 9 10 9 8 11 12 12 2 -3
5 0 -0 -1 -0 -1 -2 -4 -4 -4 -4 -4 -4 -3 1 -2 -5 -5 -5 -4 -4 -4 3 12 14 14 14 14 13 13 13 13 12 11 11 10 10 10 10 10 10 10 10 10 11 11 11 11 -2
-0 -3 -4 -7 -3 1 -3 -3 -4 -3 -4 -6 -6 -6 3 -7 -8 -8 -8 -10 -8 -6 -5 -2 9 14 14 14 14 13 12 12 12 12 12 11 11 10 10 10 9 9 10 11 11 11 10 11 10
-4 -2 -2 -0 -1 -1 -3 -3 -4 -4 -6 -6 -6 -7 -7 -8 -8 -8 -9 -11 -11 -11 -9 -7 -5 5 12 13 13 13 13 12 12 11 10 10 10 10 10 10 8 8 8 10 11 11 11 11 11
-3 -1 -1 -1 -2 -2 -3 -5 -6 -6 -6 -6 -7 -8 -8 -9 -9 -9 -10 -10 -9 -10 -11 -11 -10 -7 -1 8 13 13 13 13 12 10 10 9 10 10 11 9 10 12 10 9 11 11 11 11 11
-4 -1 -2 0 -2 -4 -5 -5 -6 -5 -6 -7 -9 -9 -9 -9 -10 -11 -8 -7 -7 -7 -9 -9 -11 -12 -12 -6 4 12 13 13 13 12 11 11 11 12 11 11 12 13 13 12 10 9 11 11 11
-3 -3 -2 -2 -3 -4 -4 -6 -7 -7 -8 -8 -9 -9 -9 -9 -7 -5 -4 -3 -3 -3 -3 -3 -4 -5 -8 -10 -8 1 11 12 12 13 13 13 12 12 12 13 14 14 13 13 12 11 10 10 11
-4 -3 -3 -3 -5 -6 -6 -7 -6 -8 -9 -9 -8 -4 -3 -3 -3 -3 -2 -2 -2 -2 -2 -2 -2 -3 -4 -5 -7 -7 -1 9 12 13 13 13 12 11 12 12 13 13 13 13 13 12 12 12 11
-2 -3 -4 -6 -6 -6 -6 -6 -6 -9 -8 -8 -5 -3 -3 -2 -1 -1 -1 2 4 5 5 4 2 0 -1 -1 -3 -7 -5 -1 10 12 12 12 11 10 11 10 10 12 13 13 13 12 12 12 12
-6 -5 -5 -5 -5 -5 -4 -4 -3 -9 -7 -5 -2 -2 -0 2 4 5 5 5 5 5 5 4 4 3 2 1 -1 -3 -6 -4 0 11 12 12 12 11 10 10 9 11 11 12 12 11 11 11 11
-4 -5 -3 -5 -5 -3 -3 -10 -4 -7 -5 -3 -2 1 2 4 5 5 5 5 5 3 2 2 2 3 4 4 1 0 -2 -5 -1 3 11 11 11 11 10 11 10 8 8 9 10 9 9 9 12
-4 2 -2 -2 -4 -2 -2 -3 -4 -7 -4 -3 -1 1 2 3 4 4 4 5 4 3 2 2 2 1 2 4 4 3 1 -2 -1 4 10 11 11 11 11 11 10 11 11 10 9 9 8 7 7
-1 -1 -2 -3 -1 -2 -1 -0 -2 -3 -2 -2 -0 1 2 3 3 4 3 2 2 2 2 2 2 2 0 0 4 4 2 -1 0 4 7 10 10 10 11 11 10 8 10 10 10 9 8 8 7
-3 -2 -0 -1 -1 -1 0 1 0 -1 -1 -0 1 2 2 2 3 2 2 1 1 2 2 3 3 2 2 1 5 5 2 0 -1 4 7 9 9 10 11 11 11 9 9 9 10 10 10 9 9
-1 -1 2 1 0 0 1 2 1 0 1 1 1 2 3 3 3 2 1 1 2 3 4 4 4 3 4 3 3 4 5 1 5 5 6 7 10 10 10 9 9 9 9 10 9 9 9 9 9
-0 0 2 2 2 2 2 2 1 1 1 1 1 3 3 3 2 2 3 2 3 3 4 4 4 4 5 4 4 3 4 3 5 6 6 8 9 9 10 9 9 8 7 7 6 7 8 8 8
2 0 1 3 2 3 1 2 2 1 2 2 3 3 3 3 2 3 2 2 2 3 3 4 3 4 5 5 5 5 5 6 7 5 7 8 9 9 8 7 6 8 8 8 8 8 8 7 7
3 1 2 3 3 2 2 2 2 2 2 3 4 3 3 2 2 2 2 2 2 2 2 3 4 4 5 5 6 6 6 7 7 8 8 7 8 7 8 7 7 8 8 7 7 7 7 7 7
0 2 3 2 3 3 2 3 3 2 1 3 3 3 3 2 2 2 2 2 2 2 2 2 2 3 3 4 5 5 6 6 7 6 6 6 7 7 7 7 7 7 7 7 6 6 6 6 7
1 2 2 2 3 3 3 4 2 2 3 3 3 3 2 3 2 1 1 2 2 2 2 1 1 0 1 2 1 2 4 4 3 2 3 4 4 4 3 3 2 1 1 0 2 4 5 5 5
4 4 2 2 4 3 3 3 2 3 3 3 2 2 1 2 1 1 1 3 3 2 1 1 2 2 1 -2 -3 -1 -1 -2 -2 -0 1 0 -2 -7 -8 -6 -6 -8 -9 -9 -9 -9 -5 1 4
4 6 4 3 3 2 2 2 3 3 3 2 2 1 1 1 1 1 2 3 3 3 1 -1 -2 -1 -0 -0 -2 -6 -8 -8 -11 -11 -10 -11 -10 -10 -9 -7 -6 -8 -13 -13 -12 -12 -12 -12 -8
4 3 5 5 4 5 3 4 5 5 4 3 2 2 1 1 2 2 2 3 2 2 -2 -6 -10 -12 -12 -14 -15 -15 -15 -15 -14 -13 -12 -13 -13 -12 -11 -12 -13 -15 -15 -15 -15 -15 -13 -12 -10
4 4 3 2 4 5 5 4 4 3 3 3 2 1 1 2 2 2 2 2 0 -3 -8 -11 -13 -15 -15 -15 -15 -15 -15 -14 -13 -13 -14 -14 -15 -16 -18 -20 -23 -26 -28 -28 -28 -26 -25 -25 -21
2 2 2 3 5 4 3 3 3 2 2 2 2 1 1 2 2 2 2 0 -2 -2 -5 -9 -11 -12 -13 -13 -13 -13 -13 -13 -13 -14 -15 -16 -19 -23 -25 -26 -26 -27 -28 -28 -28 -26 -26 -29 -28

GFSSGP_850_dewp_114.txt.gz
Dewpoint
6 7 7 5 1 3 3 -1 0 1 1 -0 8 9 8 9 13 13 11 12 12 13 13 14 15 14 13 13 13 13 13 13 13 12 12 12 12 11 11 9 6 7 11 12 14 13 12 7 2
7 7 6 6 4 -1 -0 2 2 1 -0 -0 3 7 7 6 8 9 11 11 12 13 13 14 15 15 13 12 12 13 12 12 12 12 11 11 12 11 11 10 8 5 13 13 12 12 12 10 5
7 7 7 3 3 3 5 2 -0 -1 -2 -1 3 6 5 4 5 5 8 9 11 14 14 13 14 15 14 12 11 12 11 11 11 10 11 12 11 12 12 10 9 5 11 13 12 12 11 9 5
7 7 6 4 1 2 3 1 -1 -1 -2 -2 3 5 3 4 3 0 2 3 6 13 14 14 14 14 15 14 12 11 10 10 10 10 9 9 9 9 12 10 9 7 8 13 12 11 9 0 -0
6 5 2 1 1 2 -2 -2 -2 -1 -3 -3 -0 5 2 1 -0 -2 -2 -3 -0 11 14 14 13 14 14 15 14 12 12 12 11 10 9 8 9 9 10 11 11 10 6 9 12 12 12 2 -1
5 2 2 1 2 -0 -3 -4 -4 -4 -4 -4 -1 4 1 -2 -4 -4 -5 -4 -3 -2 11 13 13 13 14 14 14 13 13 13 12 12 11 10 10 10 10 10 10 10 11 7 9 12 12 12 -1
2 0 2 0 -0 -1 -3 -3 -3 -4 -4 -4 -5 3 0 -6 -7 -7 -7 -7 -9 -5 -4 7 13 14 13 14 14 13 13 13 13 12 12 11 11 10 11 10 10 10 10 10 8 11 11 11 9
-1 -3 -5 -3 -1 -0 -3 -3 -4 -4 -4 -5 -6 0 2 -6 -7 -7 -8 -9 -11 -11 -8 -5 -1 10 13 13 14 14 13 12 12 12 12 11 11 11 10 11 10 10 9 10 11 10 11 10 11
-4 -2 -1 -0 -0 -1 -3 -3 -4 -5 -6 -7 -7 -7 -8 -8 -8 -9 -9 -10 -12 -12 -12 -11 -9 -6 3 11 13 13 13 13 13 12 12 11 10 10 10 10 10 10 9 9 10 11 11 11 11
-3 0 -0 -1 -2 -2 -4 -5 -6 -7 -6 -7 -8 -9 -9 -9 -9 -9 -11 -11 -9 -9 -9 -9 -12 -12 -11 -7 4 13 13 13 13 13 11 10 10 9 9 10 10 9 10 9 9 11 11 11 11
-3 -0 -1 0 -3 -4 -5 -6 -6 -6 -7 -8 -9 -9 -9 -9 -10 -11 -8 -4 -3 -3 -4 -4 -5 -6 -8 -11 -11 -3 10 13 12 13 13 11 10 9 10 11 11 10 12 13 12 10 11 11 11
-2 -2 -2 -1 -5 -5 -5 -6 -8 -7 -8 -8 -9 -9 -8 -7 -4 -3 -3 -2 -2 -2 -3 -3 -4 -4 -4 -6 -8 -10 -8 5 13 12 12 13 13 13 12 12 12 11 12 13 13 13 12 12 12
-3 -3 -2 -3 -6 -6 -6 -7 -7 -8 -10 -9 -9 -3 -3 -3 -3 -2 -1 -1 -1 -1 1 1 0 -2 -4 -7 -6 -6 -8 -10 -1 11 12 12 12 13 13 12 12 13 12 13 13 12 12 11 11
-3 -3 -4 -6 -6 -7 -6 -6 -6 -9 -9 -9 -4 -3 -2 -0 0 1 1 3 4 4 3 2 0 0 -1 -3 -4 -5 -6 -5 -9 -5 10 11 12 12 12 12 12 12 12 12 12 12 12 12 12
-5 -5 -5 -6 -6 -5 -5 -6 -4 -9 -8 -7 -3 -1 2 2 4 4 5 5 5 4 3 1 -0 -1 -2 -2 -2 -3 -4 -5 -3 -5 -6 10 11 12 12 12 11 11 10 11 11 12 12 11 10
-5 -5 -5 -5 -5 -3 -5 -13 -5 -8 -7 -6 -1 2 3 4 4 5 5 5 4 4 2 1 1 1 0 -1 -2 -1 -1 -1 -4 -3 -4 -4 9 12 11 12 11 11 9 11 11 12 11 10 9
-4 -2 -3 -3 -4 -2 -3 -6 -4 -7 -5 -4 -2 2 3 3 4 3 3 1 0 -0 0 1 1 1 1 0 -1 -2 1 2 0 -3 -3 -3 2 10 11 11 12 11 10 10 10 9 10 9 9
-3 -1 -2 -3 -2 -2 -1 -1 -2 -5 -4 -2 -2 2 3 3 3 3 2 1 0 0 1 2 2 2 1 2 1 1 0 4 3 1 -2 -0 4 8 10 11 11 11 11 10 11 10 10 10 9
-3 -1 -1 -1 -1 -1 -0 -0 -1 -2 -1 -1 0 2 3 3 3 3 2 0 0 1 1 3 2 3 2 3 2 2 2 3 3 1 -1 2 5 7 9 10 10 10 11 10 10 10 10 9 10
-2 -0 2 1 0 1 1 2 1 0 0 -1 1 2 3 3 2 2 2 1 1 2 3 3 3 3 3 4 3 3 4 4 5 4 6 6 7 7 8 9 10 10 10 10 9 8 9 8 8
0 1 2 1 2 1 1 -0 1 1 1 1 2 3 3 3 2 2 1 1 2 2 2 3 3 3 3 4 5 4 5 4 4 3 5 5 6 8 8 9 9 9 9 9 9 7 6 6 5
2 1 1 3 2 0 0 -1 0 1 2 2 3 3 3 3 2 2 2 2 2 2 2 2 3 3 3 3 4 5 6 5 5 6 6 7 6 7 7 8 8 8 7 7 8 7 7 7 6
2 1 2 2 3 1 2 1 1 1 2 2 3 3 3 3 2 2 1 1 2 2 1 2 2 3 3 3 4 5 5 5 5 6 6 7 7 6 5 6 7 7 7 7 7 7 6 6 6
0 2 2 2 1 1 1 2 3 2 1 2 3 3 3 2 2 2 1 1 2 1 1 1 1 1 2 2 2 3 4 3 3 3 5 5 6 6 6 6 6 6 5 4 3 3 4 5 5
1 0 -0 0 4 1 2 3 3 -0 2 2 3 3 2 2 2 1 1 1 2 2 2 2 1 -0 -1 -0 0 -0 -2 -1 -1 -0 -1 -4 -4 -1 0 -0 1 -3 -7 -8 -9 -10 -10 -9 -4
4 1 0 1 4 2 2 4 2 2 3 3 2 2 2 1 2 1 1 2 2 2 1 -1 -1 0 1 -0 -4 -5 -5 -6 -7 -9 -10 -10 -9 -7 -7 -4 -3 -3 -3 -9 -13 -13 -12 -12 -12
3 3 3 2 2 3 1 1 1 3 3 3 2 2 2 1 1 1 1 2 3 3 1 -2 -7 -10 -6 -10 -14 -15 -15 -15 -13 -13 -12 -12 -12 -12 -12 -12 -11 -11 -11 -12 -13 -15 -16 -17 -15
3 2 4 3 4 5 2 3 4 3 3 3 2 2 2 1 1 2 1 2 2 2 -0 -9 -11 -14 -14 -15 -15 -14 -14 -14 -13 -13 -13 -14 -15 -16 -17 -20 -23 -25 -27 -27 -27 -28 -27 -26 -27
4 4 3 2 3 3 4 2 1 2 1 2 2 2 1 1 1 1 2 2 2 1 -5 -9 -11 -13 -13 -13 -13 -13 -13 -12 -13 -13 -15 -16 -19 -24 -28 -29 -29 -29 -29 -29 -29 -28 -26 -26 -27
2 3 2 2 3 3 2 3 -1 1 2 2 1 1 1 1 1 2 2 2 1 -3 -3 -4 -8 -10 -11 -11 -11 -11 -11 -11 -12 -14 -16 -19 -25 -27 -27 -27 -27 -26 -25 -23 -23 -23 -23 -24 -26

GFSSGP_850_dewp_117.txt.gz
Dewpoint
6 8 7 4 -1 -0 -0 -0 1 2 1 7 8 9 10 9 11 10 11 12 12 12 12 14 14 15 13 12 13 13 13 13 13 13 12 11 12 11 11 10 6 8 10 12 14 13 7 4 8
7 7 5 5 -2 -2 0 1 2 0 2 3 6 7 6 7 8 10 11 10 11 12 13 13 14 15 14 12 12 12 12 12 12 12 11 11 12 11 10 10 9 5 11 11 13 13 12 9 4
7 6 5 2 2 -1 4 2 -0 -1 -1 -1 5 5 4 4 5 7 6 5 8 13 13 13 14 14 14 12 12 12 12 12 12 11 11 11 11 11 12 11 9 7 7 12 13 12 12 11 9
7 5 4 1 2 2 3 0 -1 -1 -2 1 4 5 3 3 1 1 -1 -0 8 14 14 13 13 14 14 14 13 12 10 11 11 11 11 10 9 9 9 12 9 8 6 12 12 12 11 5 4
6 3 0 2 3 1 -3 -3 -2 -2 -3 1 2 3 2 -0 -2 -3 -3 -3 -3 11 13 13 13 14 14 15 14 13 12 12 11 11 11 10 9 10 9 11 11 9 8 7 12 12 12 11 1
4 1 0 2 3 -1 -3 -4 -4 -4 -4 -4 2 3 1 -3 -5 -6 -6 -7 -8 -4 8 12 12 13 13 13 13 13 13 12 12 12 12 11 10 10 10 10 10 10 11 10 7 10 12 12 10
2 1 1 1 1 -1 -3 -3 -4 -4 -4 -5 -4 3 -0 -5 -6 -6 -7 -8 -9 -12 -8 -1 10 13 13 13 13 14 13 13 13 13 13 12 10 10 10 10 10 10 10 10 11 8 11 12 11
-2 -3 -5 -2 0 -0 -3 -3 -4 -4 -5 -6 -6 2 1 -5 -5 -7 -8 -9 -10 -12 -13 -12 -6 1 11 12 13 14 14 13 13 12 12 12 11 11 10 10 10 10 10 9 10 11 10 11 11
-5 -1 -1 -1 -1 -1 -3 -3 -4 -5 -6 -7 -7 -5 -7 -7 -8 -9 -9 -9 -11 -12 -11 -11 -12 -11 -7 3 10 12 13 13 13 13 13 12 12 11 11 11 11 10 10 10 9 9 11 11 12
-3 -0 -0 -1 -3 -3 -5 -5 -6 -7 -6 -7 -8 -9 -9 -9 -9 -10 -9 -8 -7 -7 -7 -8 -9 -10 -12 -11 -9 -0 10 12 13 13 13 13 12 11 11 10 10 10 10 10 8 9 9 11 12
-2 -0 -0 -1 -4 -4 -5 -6 -6 -7 -7 -8 -9 -9 -9 -7 -6 -6 -5 -4 -4 -3 -4 -4 -5 -6 -7 -9 -11 -11 -8 2 12 12 12 12 13 12 11 10 10 10 11 10 10 10 9 10 12
-2 -2 -1 -2 -4 -5 -6 -7 -8 -7 -8 -8 -9 -8 -4 -4 -4 -4 -4 -3 -3 -2 -2 -1 -1 -2 -3 -5 -7 -9 -11 -11 -5 7 11 11 12 12 12 13 12 12 12 11 12 12 12 12 12
-2 -2 -2 -4 -7 -7 -7 -8 -8 -9 -9 -8 -9 -4 -3 -3 -3 -2 -2 -1 -0 1 1 1 -0 -2 -3 -4 -4 -5 -6 -8 -10 -10 -1 9 10 11 11 12 13 13 12 12 12 12 12 12 11
-3 -3 -4 -6 -6 -6 -7 -6 -6 -10 -10 -10 -5 -3 -3 -2 -1 0 1 2 3 2 2 1 -1 -1 -2 -3 -4 -5 -5 -5 -6 -7 -10 -8 7 10 10 11 12 12 12 12 11 12 12 12 12
-5 -4 -5 -5 -6 -4 -4 -8 -5 -9 -8 -6 -4 -1 -1 0 2 2 3 3 4 3 1 -0 -2 -2 -2 -3 -3 -4 -4 -3 -2 -3 -4 -7 -8 6 9 10 12 12 12 12 11 11 12 11 11
-6 -6 -6 -5 -5 -3 -8 -14 -8 -8 -8 -7 -2 1 3 3 3 3 3 3 2 -1 -2 -2 -1 -1 -1 -1 -2 -3 -4 -5 -3 -0 1 -1 -4 -5 3 8 12 11 12 11 11 10 11 11 11
-5 -4 -4 -3 -4 -2 -4 -9 -5 -7 -8 -4 -3 2 4 3 3 3 3 1 0 -1 -1 -1 -0 0 0 0 -0 1 0 -0 0 1 2 1 -3 -4 0 5 9 11 11 11 11 11 12 11 11
-4 -0 -3 -3 -2 -3 -2 -1 -3 -5 -6 -5 -4 1 4 4 3 3 2 1 1 -0 0 0 2 2 2 2 2 1 1 0 3 4 2 2 -1 -1 2 5 8 9 11 11 11 11 11 11 10
-4 -2 -2 -1 -1 -1 -1 -0 -1 -3 -3 -3 -2 -0 3 4 3 3 2 1 1 0 1 1 2 2 3 3 3 3 4 3 5 6 4 5 6 5 4 5 7 9 9 10 11 10 11 10 10
-2 -1 1 1 -0 1 1 2 0 -0 -0 -1 -1 1 3 3 3 2 2 1 1 1 1 2 3 3 3 2 3 4 5 6 6 6 4 6 6 5 7 7 7 9 9 9 9 10 10 10 10
1 1 2 -0 1 1 1 -3 0 1 1 1 0 2 3 3 3 2 2 1 1 1 1 2 3 2 2 2 3 3 5 5 5 5 6 6 6 6 6 6 7 7 8 8 8 7 7 7 7
1 0 2 2 0 -2 -0 -2 -2 1 2 2 3 3 3 3 2 2 2 1 1 2 1 2 2 2 2 2 3 4 4 4 5 6 6 5 6 6 6 6 7 7 7 6 5 7 6 5 6
1 1 2 2 2 1 1 1 0 1 2 2 2 3 3 3 3 2 1 1 1 1 1 1 1 2 2 1 2 3 4 3 4 4 5 5 5 6 5 5 5 6 6 6 7 7 7 6 6
0 2 0 2 1 -0 0 2 2 1 1 0 2 3 3 3 2 2 1 1 1 1 2 1 -1 -1 -1 -1 -0 -1 -1 0 1 1 0 -0 -1 -2 -3 -4 -4 -8 -7 -6 -5 -3 -3 -3 -2
0 0 -2 -3 1 -1 1 3 2 -1 -1 0 1 3 3 2 2 2 1 1 2 2 2 2 1 1 -1 -3 -5 -5 -3 -4 -3 -3 -4 -4 -4 -4 -5 -6 -6 -5 -6 -8 -9 -11 -11 -11 -12
3 0 -1 -6 3 2 1 4 2 -0 2 2 2 2 2 2 1 1 1 1 2 2 1 -2 -4 -2 -4 -7 -13 -14 -14 -13 -11 -11 -11 -10 -9 -11 -12 -12 -12 -12 -12 -13 -14 -16 -17 -17 -17
2 2 1 1 1 4 1 0 -0 2 2 2 2 2 2 1 1 1 0 1 2 2 1 -4 -10 -13 -13 -15 -14 -14 -14 -14 -14 -13 -13 -14 -15 -16 -17 -19 -22 -25 -28 -29 -29 -30 -29 -27 -27
2 2 2 2 3 5 1 1 3 2 2 2 2 2 2 2 1 1 0 1 2 2 1 -6 -11 -13 -14 -14 -14 -13 -13 -12 -12 -13 -14 -15 -17 -21 -26 -29 -30 -30 -31 -30 -30 -29 -27 -25 -25
4 3 3 1 1 3 4 0 -1 1 1 0 1 1 1 1 0 1 1 1 2 2 1 -7 -10 -12 -12 -12 -12 -11 -11 -11 -12 -13 -14 -16 -21 -27 -28 -29 -29 -29 -28 -26 -25 -24 -23 -23 -24
2 2 2 2 2 2 2 2 -3 1 -0 1 -0 -1 -1 -0 -0 1 1 1 1 0 -4 -4 -6 -9 -10 -11 -11 -10 -9 -9 -10 -12 -14 -17 -25 -27 -29 -29 -28 -26 -23 -22 -22 -22 -21 -21 -21

GFSSGP_850_dewp_120.txt.gz
Dewpoint
4 6 5 2 -5 -3 -1 -1 1 1 7 9 7 9 10 9 9 8 12 12 12 12 12 13 14 14 13 12 13 13 13 13 13 13 12 12 12 11 10 10 7 6 10 12 14 14 5 3 6
7 6 4 2 -4 -5 -1 -0 2 0 6 6 6 6 7 7 8 10 11 9 11 12 12 12 13 14 14 12 12 13 13 12 12 12 12 11 11 11 10 10 8 6 8 11 13 14 12 10 6
7 6 3 2 -3 -6 3 2 -1 -2 4 0 5 4 4 4 5 7 4 5 9 13 13 13 13 14 14 13 11 11 12 12 12 12 11 11 10 11 11 12 10 8 6 9 12 13 13 12 11
7 5 2 -1 2 2 2 0 -1 -1 -2 3 4 4 3 3 1 1 -2 -2 9 14 13 13 13 13 13 14 14 13 11 11 11 11 11 11 10 10 10 10 12 8 8 6 12 13 12 11 4
6 3 1 3 3 0 -3 -3 -3 -3 -1 2 2 2 1 -1 -2 -3 -5 -5 -4 9 12 12 12 12 13 13 14 14 13 12 12 11 11 11 10 9 9 9 10 10 9 7 9 12 12 12 10
3 -1 1 4 3 -2 -3 -4 -4 -4 -4 -2 3 2 1 -3 -4 -5 -7 -7 -9 -9 -2 11 11 12 12 12 13 14 13 13 13 12 12 12 11 10 10 10 10 9 9 10 10 8 11 12 12
1 -0 0 2 1 -1 -3 -3 -4 -4 -4 -5 1 2 -1 -4 -5 -6 -7 -8 -9 -10 -13 -9 4 11 11 11 13 13 14 14 13 13 13 13 12 12 11 10 10 10 10 9 10 10 9 9 12
-2 -3 -0 -0 1 1 -3 -3 -4 -5 -5 -6 -2 1 -1 -5 -5 -7 -8 -9 -9 -10 -12 -14 -13 -6 3 11 11 12 13 14 13 13 13 13 13 12 12 11 11 11 11 11 10 9 10 10 10
-5 -2 0 -0 -0 -1 -3 -4 -5 -5 -6 -7 -5 -2 -4 -7 -8 -9 -9 -9 -9 -9 -9 -10 -11 -12 -12 -8 1 10 11 11 12 13 13 13 13 12 12 12 11 11 11 10 10 10 9 10 11
-3 -1 -1 -2 -3 -3 -4 -5 -6 -6 -7 -8 -8 -8 -8 -9 -9 -8 -8 -8 -7 -7 -6 -6 -6 -7 -9 -10 -12 -10 -5 7 11 11 12 12 12 13 12 12 11 11 11 10 10 10 9 9 10
-2 -1 -1 -2 -4 -5 -6 -6 -6 -7 -7 -8 -9 -9 -8 -6 -6 -6 -6 -5 -4 -4 -3 -4 -3 -2 -4 -6 -8 -10 -12 -11 -7 5 10 11 11 11 12 13 12 11 10 10 11 11 9 10 10
-1 -1 -2 -2 -4 -6 -7 -7 -8 -7 -8 -8 -9 -7 -5 -5 -5 -4 -3 -2 -1 -1 1 1 -1 -4 -5 -5 -5 -6 -8 -10 -12 -12 -9 5 10 10 11 11 12 12 13 12 12 12 11 12 12
-1 -2 -3 -6 -7 -7 -8 -8 -9 -10 -8 -8 -9 -5 -4 -4 -3 -2 -1 0 1 1 0 -0 -2 -4 -4 -5 -5 -5 -5 -6 -7 -7 -9 -9 -8 6 9 9 10 11 11 12 13 12 12 12 12
-2 -3 -5 -7 -6 -6 -9 -7 -7 -10 -11 -9 -8 -4 -3 -2 -1 0 1 2 2 1 -1 -3 -4 -4 -4 -4 -4 -4 -4 -5 -5 -4 -4 -6 -6 -7 -5 6 8 9 10 11 12 12 12 12 12
-6 -5 -5 -5 -6 -4 -4 -9 -7 -9 -9 -7 -5 -3 -2 -0 1 2 2 2 2 0 -2 -2 -2 -3 -3 -3 -4 -4 -3 -4 -5 -6 -5 -2 -1 -3 -5 -7 4 8 9 11 12 12 12 11 11
-6 -7 -7 -5 -5 -3 -9 -16 -8 -9 -8 -6 -3 -1 0 2 3 3 3 2 1 -1 -0 -1 -1 -2 -1 -2 -2 -2 -2 -2 -3 -3 -2 -2 1 1 -2 -4 -5 -0 8 9 11 12 11 11 10
-5 -4 -4 -4 -4 -3 -4 -11 -7 -7 -8 -6 -3 0 2 3 3 3 2 2 0 0 0 -0 -1 -0 0 -0 -1 -0 -0 -1 -2 -0 3 2 1 2 -0 -1 -1 2 5 8 10 11 11 11 11
-5 -2 -4 -3 -3 -3 -2 -2 -4 -5 -7 -7 -4 -3 3 3 3 3 2 2 1 1 -0 -0 0 1 1 2 2 2 3 1 2 3 3 3 4 4 5 4 2 3 5 8 9 7 10 11 11
-3 -3 -2 -1 -2 -0 -1 -1 -2 -3 -3 -3 -6 -5 0 3 3 3 2 2 1 0 0 0 2 2 2 2 2 2 3 5 5 3 4 3 5 5 5 5 7 7 8 8 9 8 9 10 10
-3 -2 1 1 -0 1 1 1 -1 -1 -1 -2 -3 -4 -2 3 3 3 2 2 1 1 1 1 2 2 2 2 3 3 4 5 5 5 5 5 6 5 5 5 6 7 7 8 8 8 7 8 8
1 -0 1 -1 0 0 -0 -4 -4 1 1 1 0 -0 -1 2 3 3 2 2 1 1 1 1 2 2 2 2 3 3 4 4 4 5 5 5 5 5 4 5 5 4 5 6 6 6 6 6 6
-0 1 2 2 -1 -4 -1 -2 -6 -1 1 2 2 1 2 3 3 2 2 1 1 1 1 1 2 2 1 2 2 2 2 3 3 4 5 5 5 5 5 5 5 6 6 6 6 6 6 7 6
1 1 2 1 2 -0 0 -1 -3 1 1 1 2 2 2 3 3 2 2 1 1 1 1 1 0 0 1 1 0 1 2 1 1 1 1 1 0 0 0 -0 -1 0 2 -0 1 2 4 3 3
0 1 -1 -0 -0 -1 -1 1 0 -0 0 -0 1 1 2 2 3 3 2 1 1 1 2 1 -0 -0 -1 -2 -2 -2 -1 -1 -2 -2 -2 -2 -3 -3 -4 -4 -4 -3 -3 -2 -2 -7 -8 -8 -10
-0 -0 -3 -4 -0 -1 0 3 1 -1 -2 -1 -0 1 2 2 3 2 1 1 1 1 2 2 1 1 -0 -3 -9 -11 -11 -9 -7 -6 -6 -7 -8 -9 -12 -13 -14 -13 -13 -13 -12 -11 -11 -12 -14
2 -0 -3 -10 0 2 1 4 2 -1 1 1 2 2 2 3 2 1 1 0 1 1 1 -3 -5 -3 -6 -11 -14 -15 -14 -14 -14 -14 -14 -14 -14 -15 -17 -20 -23 -25 -27 -28 -28 -28 -28 -28 -28
2 2 0 1 1 4 -0 -1 -2 -1 1 2 2 2 2 2 1 1 1 0 1 2 1 -2 -9 -12 -13 -14 -14 -13 -14 -13 -12 -13 -13 -14 -16 -18 -22 -27 -28 -28 -27 -26 -26 -25 -25 -25 -26
1 1 2 0 1 3 0 0 1 0 2 1 2 2 2 2 1 1 0 0 1 2 2 -1 -10 -12 -13 -13 -12 -12 -11 -11 -11 -12 -13 -15 -17 -21 -27 -29 -30 -30 -29 -28 -26 -24 -23 -23 -23
4 3 2 1 1 2 3 -2 -2 -0 0 -1 -1 -0 0 0 -0 -1 -0 -0 1 2 1 -1 -7 -11 -11 -11 -11 -10 -10 -9 -10 -11 -12 -14 -17 -23 -29 -31 -31 -31 -29 -26 -24 -24 -23 -23 -22
1 2 1 2 1 2 2 2 -4 -1 -1 -1 -1 -2 -2 -2 -1 -1 -0 0 1 1 0 -2 -6 -7 -8 -9 -9 -9 -9 -9 -9 -9 -11 -13 -17 -24 -28 -29 -29 -25 -23 -22 -22 -22 -21 -20 -20

GFSSGP_850_dewp_123.txt.gz
Dewpoint
-2 1 2 1 -3 -3 -0 -0 0 2 9 9 7 9 9 8 9 10 12 12 12 12 12 13 13 14 14 12 12 12 13 13 13 13 12 12 11 11 10 10 8 6 10 12 14 14 6 4 6
5 5 3 -0 -2 -4 -1 -0 2 1 8 7 7 7 7 8 9 11 9 9 11 12 12 12 13 14 14 13 12 12 12 12 12 12 12 11 10 11 10 10 9 8 6 11 12 14 13 10 8
6 5 1 -0 -4 -6 2 2 0 0 5 3 4 4 5 5 6 5 3 8 12 13 13 13 13 14 14 13 13 11 12 12 12 12 11 11 10 10 10 9 11 8 7 6 10 13 13 12 11
7 3 0 -1 -0 1 2 0 -1 -1 1 4 4 4 3 3 2 -0 -2 -1 13 13 12 12 13 13 13 13 14 13 12 11 11 11 11 11 10 9 9 9 9 10 7 6 6 12 13 12 11
5 2 2 3 3 1 -2 -3 -2 -3 1 3 2 3 1 -0 -1 -3 -5 -6 -4 8 12 11 11 12 12 12 13 13 14 13 12 12 11 12 11 11 10 9 9 9 10 9 7 9 12 12 11
3 -2 2 4 3 -2 -3 -4 -4 -3 -3 1 2 2 1 -2 -4 -6 -7 -8 -9 -10 -8 5 11 11 11 11 12 13 13 14 13 13 13 12 12 12 11 10 10 10 10 10 10 10 8 10 11
2 0 2 3 1 -1 -3 -4 -4 -4 -4 -3 2 1 -0 -3 -5 -7 -8 -8 -9 -10 -11 -14 -9 5 10 11 11 12 12 13 13 13 13 13 13 13 12 12 11 11 11 11 11 10 10 10 9
-1 -0 2 1 1 1 -3 -4 -4 -5 -5 -3 -0 0 -1 -4 -5 -7 -8 -9 -9 -9 -10 -13 -14 -14 -7 1 10 11 11 11 12 13 13 13 12 13 13 12 12 11 11 11 11 11 10 10 10
-5 1 3 2 1 -1 -3 -4 -5 -6 -6 -7 -1 -2 -3 -4 -6 -9 -9 -8 -8 -8 -8 -8 -9 -10 -12 -13 -10 -5 3 10 10 10 12 12 13 13 13 12 12 12 11 11 11 11 11 10 10
-3 0 1 -2 -2 -2 -4 -5 -6 -6 -8 -8 -6 -6 -7 -8 -9 -9 -8 -8 -7 -7 -6 -6 -6 -7 -7 -8 -10 -12 -13 -10 -4 7 11 11 10 12 12 12 12 12 11 11 10 10 10 11 10
-2 -1 -1 -2 -4 -4 -6 -6 -7 -7 -6 -8 -8 -8 -9 -8 -7 -7 -6 -6 -4 -4 -2 -2 -3 -4 -6 -7 -8 -9 -9 -11 -13 -12 -8 5 9 10 10 11 11 12 12 11 10 10 10 11 11
0 -1 -2 -3 -5 -6 -6 -7 -7 -8 -8 -8 -9 -9 -7 -6 -5 -5 -3 -2 -2 -1 -0 -1 -3 -5 -6 -6 -6 -6 -7 -8 -9 -9 -10 -12 -11 -2 9 9 9 11 11 11 12 12 12 12 12
-1 -2 -5 -6 -7 -7 -8 -8 -9 -8 -8 -9 -8 -6 -5 -5 -4 -2 -1 0 1 1 -1 -3 -4 -5 -6 -5 -5 -5 -5 -6 -7 -7 -7 -7 -8 -9 -11 -7 5 8 9 9 10 11 11 12 12
-2 -5 -6 -7 -6 -6 -9 -8 -8 -11 -8 -8 -8 -5 -4 -3 -2 -1 1 1 1 0 -2 -3 -2 -3 -3 -3 -4 -4 -5 -5 -5 -5 -6 -6 -5 -4 -5 -6 -8 -8 3 8 7 9 10 11 12
-6 -5 -6 -5 -6 -4 -5 -10 -9 -10 -10 -9 -8 -4 -2 -1 -0 1 1 1 1 -0 -1 -1 -1 -1 -2 -2 -2 -2 -3 -4 -4 -4 -4 -4 -3 -3 -2 -1 -2 -5 -7 -5 7 8 6 10 10
-6 -7 -6 -5 -5 -3 -11 -11 -8 -9 -8 -7 -4 -2 -1 0 0 1 2 1 1 0 -0 -0 -1 -1 -1 -0 -0 -1 -1 -2 -3 -4 -3 -1 -0 0 1 0 -1 -2 -3 -4 -4 6 8 8 9
-4 -2 -5 -4 -4 -3 -6 -11 -10 -6 -8 -6 -3 -1 0 1 1 2 2 2 1 1 0 -1 -1 -0 0 0 1 1 1 0 -1 -3 -1 1 1 2 3 3 2 1 -2 2 5 7 8 8 9
-3 -2 -4 -4 -3 -3 -3 -3 -5 -6 -7 -7 -5 -3 -0 1 2 2 2 2 1 1 0 -0 -1 1 1 1 2 1 1 1 -1 -2 -1 1 2 3 3 4 5 6 5 7 7 8 8 9 9
-3 -5 -2 -1 -1 -0 -2 -1 -2 -5 -4 -5 -6 -6 -3 -2 1 2 2 2 1 1 0 -0 -1 1 2 2 1 2 3 3 3 2 3 4 4 4 4 4 4 4 5 6 6 6 6 8 9
-3 -2 1 1 -0 0 1 1 -1 -2 -2 -4 -4 -5 -5 -5 -0 2 2 2 1 1 0 0 0 2 2 2 3 3 4 4 4 4 4 4 4 5 4 3 3 4 4 4 6 6 5 5 6
1 -1 -1 -2 -0 -1 -0 -3 -7 -1 0 0 -0 -1 -2 -4 -3 2 2 2 2 1 1 0 1 2 2 2 2 3 3 4 4 3 4 4 5 4 5 4 4 4 5 4 4 5 6 6 6
1 1 1 1 -2 -3 -2 0 -6 -4 -0 1 1 0 -0 -1 -0 2 2 2 2 1 1 1 1 1 1 1 2 2 1 1 1 1 1 2 1 0 0 0 -0 0 1 1 1 -1 2 3 4
2 1 1 1 1 -1 -1 1 -3 -1 -1 -1 0 1 0 0 2 2 2 2 2 1 1 1 1 1 1 0 -0 0 0 0 -1 -1 -2 -3 -3 -3 -3 -3 -3 -2 -2 -1 -0 -2 -5 -6 -8
1 -0 -2 -1 -0 -0 -0 0 -1 -2 -1 -1 -0 1 1 2 2 2 2 2 2 1 1 1 -0 -0 -1 -1 -2 -2 -2 -2 -2 -3 -4 -4 -5 -7 -10 -13 -14 -14 -13 -11 -11 -9 -10 -11 -12
-0 -1 -1 0 1 1 -0 3 0 -3 -3 -1 -1 -0 1 1 2 2 2 2 1 1 1 2 1 1 -0 -4 -11 -14 -14 -14 -13 -13 -13 -14 -14 -15 -16 -19 -22 -25 -28 -28 -29 -28 -28 -28 -28
2 -1 -1 -3 -2 2 1 4 1 -2 1 -1 -0 1 1 1 2 2 2 1 -0 1 2 0 -1 -1 -6 -10 -14 -14 -14 -14 -13 -13 -13 -14 -15 -17 -20 -25 -29 -30 -31 -31 -31 -31 -32 -31 -31
3 2 -1 1 1 3 -0 -1 -2 -1 -1 1 1 1 1 1 2 2 1 0 -0 1 1 -3 -6 -10 -13 -13 -13 -12 -12 -12 -12 -12 -13 -14 -15 -18 -23 -28 -30 -31 -31 -31 -29 -27 -26 -25 -25
1 0 1 1 1 3 1 0 2 -1 1 0 0 0 0 1 1 1 -0 -0 -0 1 1 -1 -6 -11 -12 -11 -11 -11 -10 -10 -10 -10 -11 -13 -15 -17 -23 -28 -30 -30 -30 -28 -25 -24 -23 -23 -23
3 3 1 1 1 3 2 -2 -2 -1 -1 -1 -1 -2 -2 -1 -1 -1 -1 -1 -1 0 0 -2 -5 -9 -10 -10 -10 -9 -10 -9 -9 -9 -10 -11 -13 -16 -23 -29 -30 -30 -27 -24 -23 -22 -22 -21 -21
1 2 1 1 1 2 2 1 -5 -3 -0 -1 -1 -2 -3 -2 -2 -2 -2 -1 -1 -1 -0 -3 -4 -6 -8 -9 -9 -9 -9 -9 -9 -8 -8 -9 -11 -14 -21 -29 -30 -29 -24 -22 -22 -22 -21 -21 -20

GFSSGP_850_dewp_126.txt.gz
Dewpoint
-8 -5 -2 -0 -6 -7 -4 -2 -1 2 5 7 8 8 9 9 9 12 11 12 12 12 12 13 14 14 15 13 12 13 13 13 13 13 12 12 11 11 10 9 8 6 8 11 13 14 7 4 4
-0 2 1 -2 -7 -9 -5 -1 1 4 8 7 7 8 8 9 9 9 8 10 12 12 12 13 13 14 14 13 12 12 13 13 13 13 12 11 10 10 10 10 10 8 7 8 11 12 14 12 9
4 4 1 -6 -8 -11 -4 0 1 8 5 5 5 6 7 8 6 5 5 10 12 13 13 13 13 14 14 14 13 12 12 12 12 12 12 11 11 10 10 9 9 11 8 7 8 9 12 13 12
7 2 -1 -5 -9 -2 1 0 3 5 2 4 5 5 4 3 3 2 -1 8 12 13 12 12 12 13 13 13 14 13 13 12 11 12 12 12 12 11 10 10 10 10 11 8 7 8 12 13 12
5 2 -3 -3 -0 1 -0 -0 3 1 1 4 3 3 3 2 -1 -3 -5 -5 3 10 11 11 11 12 12 12 12 12 13 14 13 12 12 12 12 12 12 11 10 10 11 11 11 8 11 13 12
3 -1 -5 -3 -0 -0 -2 -2 -1 -0 2 2 2 2 2 0 -2 -6 -7 -8 -9 -10 -8 1 9 11 10 10 11 12 12 13 13 13 13 13 12 12 12 12 11 11 11 11 11 11 10 10 11
1 -1 -4 -2 1 0 -1 -3 -2 -1 -0 1 2 1 1 0 -5 -7 -7 -8 -8 -9 -10 -12 -14 -7 5 10 10 11 11 11 12 13 13 13 13 13 13 13 12 12 11 11 11 11 11 10 11
1 -1 1 -0 0 1 -3 -3 -3 -2 -3 -1 0 -0 0 0 -5 -7 -8 -8 -9 -9 -9 -10 -12 -13 -14 -11 -3 7 10 10 10 11 12 13 13 13 13 12 13 12 12 11 11 11 11 11 10
-5 -0 0 2 0 -0 -3 -3 -4 -5 -4 -6 -3 -2 -1 -2 -5 -8 -9 -8 -7 -7 -8 -8 -9 -9 -10 -12 -13 -14 -11 -7 1 8 10 10 11 12 12 12 13 13 12 12 11 11 11 11 11
-2 -1 1 -1 -1 -1 -3 -3 -5 -6 -6 -5 -4 -4 -3 -4 -7 -9 -8 -7 -7 -6 -6 -5 -5 -6 -7 -8 -9 -10 -11 -12 -13 -11 -6 5 10 10 10 11 11 12 12 12 12 11 11 10 11
-1 -1 -1 -2 -3 -3 -4 -5 -5 -5 -4 -6 -4 -6 -6 -8 -8 -7 -7 -6 -5 -4 -3 -3 -4 -5 -6 -7 -8 -8 -9 -9 -9 -10 -11 -13 -11 -6 7 9 9 10 10 11 12 13 12 13 13
-0 -1 -2 -2 -4 -4 -4 -6 -6 -6 -6 -7 -6 -7 -6 -5 -4 -6 -5 -3 -2 -1 -1 -2 -4 -5 -6 -6 -6 -6 -7 -7 -7 -7 -8 -9 -9 -10 -11 -10 -1 7 9 7 8 10 10 12 12
-1 -3 -4 -5 -5 -6 -7 -7 -7 -7 -8 -8 -7 -7 -4 -2 -5 -5 -3 -1 -0 -0 -1 -3 -3 -2 -3 -3 -4 -5 -5 -6 -6 -6 -6 -6 -6 -6 -6 -6 -5 -1 3 7 9 8 7 8 9
-2 -4 -5 -5 -5 -5 -8 -8 -8 -9 -8 -7 -5 -3 -2 -1 -2 -2 -1 0 1 -0 -1 -2 -1 -1 -2 -2 -2 -2 -3 -3 -4 -5 -5 -4 -4 -5 -5 -3 3 4 4 5 6 8 10 9 6
-5 -4 -6 -5 -5 -4 -6 -9 -9 -9 -8 -7 -5 -2 -0 1 -2 3 0 1 0 0 -1 -1 -1 -2 -2 -2 -1 -1 -2 -2 -3 -4 -3 -3 -2 -2 -2 -2 -1 4 7 7 7 7 6 6 9
-6 -5 -2 -5 -5 -3 -7 -7 -9 -8 -9 -9 -5 -0 2 -0 0 0 1 1 0 0 -0 -1 -1 -2 -2 -1 -0 0 0 -0 -1 -2 -4 -3 -2 -1 0 0 1 0 6 7 7 7 4 4 9
-5 2 -3 -4 -4 -4 -6 -9 -10 -7 -7 -7 -5 -0 2 4 1 0 1 1 1 1 0 -0 -1 -2 -1 0 0 1 2 1 1 -2 -2 -0 0 1 2 3 4 4 5 5 5 7 8 7 9
-2 -1 -5 -4 -3 -3 -4 -7 -8 -6 -7 -8 -7 -3 1 3 3 1 1 1 1 1 1 0 -0 -1 0 1 1 2 5 3 1 -0 2 2 2 3 3 3 3 3 3 4 6 6 7 6 7
-5 -3 -2 -2 -1 -1 -4 -3 -5 -6 -5 -7 -8 -6 -3 2 3 0 1 2 2 1 1 0 -0 -0 1 1 2 3 3 3 3 3 3 4 4 4 4 3 3 4 4 4 4 6 6 7 5
-6 -4 -0 -0 -0 -1 -1 -3 -6 -7 -5 -6 -7 -7 -6 -3 2 -1 0 2 2 2 1 1 0 1 2 2 2 2 3 3 3 4 4 4 4 4 4 3 3 4 4 4 4 4 5 5 6
-2 -5 -2 1 -1 -2 -2 -7 -5 -5 -4 -3 -3 -3 -3 -3 -2 2 -1 1 2 2 1 1 0 1 1 2 2 2 3 3 3 2 2 3 3 2 3 2 0 0 0 1 2 1 2 2 4
-1 0 -1 -1 -3 -2 -2 -0 -6 -7 -5 -1 -0 1 0 1 -0 2 -0 1 2 2 1 1 0 1 1 1 2 2 1 1 0 0 0 -0 -1 -1 -2 -2 -2 -2 -2 -1 -1 -1 -2 -4 -5
1 0 -0 -1 -1 -1 -2 3 -6 -5 -6 -5 -3 1 1 2 2 2 0 2 2 2 1 0 1 1 1 1 0 0 0 -0 -0 -1 -2 -3 -3 -5 -6 -9 -13 -14 -16 -14 -12 -12 -11 -10 -11
-0 -1 -0 -0 0 3 0 -0 -4 -4 -4 -1 -1 -0 2 2 1 2 2 2 2 2 1 1 1 0 -0 -0 -1 -1 -2 -3 -3 -5 -7 -11 -13 -14 -15 -17 -21 -25 -27 -28 -29 -29 -29 -29 -28
-0 1 8 7 10 4 1 2 -4 -3 -3 -2 -0 0 2 2 2 2 2 2 2 2 0 1 1 0 0 -1 -5 -10 -14 -14 -14 -14 -14 -14 -14 -16 -19 -22 -27 -30 -30 -31 -31 -31 -31 -31 -30
1 -0 7 10 1 3 1 4 -1 -2 1 -1 -0 1 1 1 1 2 1 2 2 1 -0 1 1 1 1 -3 -11 -14 -14 -14 -13 -13 -13 -13 -14 -16 -19 -24 -29 -30 -30 -31 -30 -29 -27 -27 -26
2 3 -1 3 2 2 -0 -1 -2 -2 -1 -2 1 2 2 1 1 0 1 1 1 -0 -0 1 0 -2 -5 -9 -11 -13 -13 -13 -12 -11 -11 -12 -13 -15 -18 -24 -29 -30 -31 -30 -27 -24 -23 -23 -23
1 -0 3 3 4 2 2 0 4 3 2 -1 -1 0 1 1 -0 -1 -1 -1 -1 -1 -0 0 -4 -6 -10 -12 -13 -13 -12 -11 -10 -10 -9 -9 -11 -13 -16 -22 -28 -30 -30 -27 -23 -23 -23 -23 -22
2 3 1 1 2 3 -1 -4 -3 -1 -1 -1 -2 -2 -2 -3 -3 -2 -2 -2 -2 -1 -1 -0 -2 -4 -8 -11 -12 -11 -10 -10 -9 -8 -8 -8 -9 -11 -14 -20 -27 -29 -28 -24 -23 -23 -22 -22 -22
1 1 -0 0 2 1 1 -3 -5 -3 -1 -0 -1 -0 -1 -3 -3 -4 -4 -4 -3 -2 -1 -1 -1 -2 -5 -7 -10 -10 -10 -9 -8 -8 -7 -7 -7 -8 -11 -16 -25 -29 -26 -22 -22 -22 -22 -22 -21

GFSSGP_850_dewp_129.txt.gz
Dewpoint
-12 -10 5 1 -5 -7 -6 -5 -4 1 2 4 8 8 8 9 10 13 10 10 11 13 14 13 14 14 15 13 13 13 13 13 13 13 13 12 12 11 11 10 10 8 7 11 13 14 10 4 2
3 5 5 -2 -2 -9 -7 -4 -1 2 6 7 8 8 8 9 10 10 9 9 7 10 12 12 13 14 14 13 12 12 12 13 12 13 13 13 11 10 10 11 11 11 8 7 10 11 13 13 10
8 7 -1 -3 -8 -9 -3 -3 0 6 5 5 6 7 8 8 6 5 6 8 6 9 12 13 13 14 14 14 13 12 12 12 12 12 12 12 12 11 11 10 10 10 11 8 7 8 9 13 13
6 3 0 -4 -9 -2 -1 -3 5 4 4 5 5 5 5 4 4 3 2 4 4 6 12 12 12 13 13 13 13 13 13 12 12 11 12 12 12 12 11 11 10 10 11 11 9 7 8 12 13
7 -2 -6 -6 -9 -1 -2 -1 5 2 3 4 4 4 5 2 1 -1 -2 2 4 11 11 11 11 11 12 12 12 12 12 12 12 14 13 12 11 12 12 12 11 10 10 11 11 10 9 12 13
2 -1 -4 -4 -3 -2 -1 1 2 -0 3 3 3 3 3 1 -1 -3 -3 -7 -7 -7 -5 -2 6 9 10 10 10 11 11 12 12 13 13 13 13 13 12 12 12 11 11 10 11 11 11 10 10
5 -2 -4 -6 -2 -1 -1 -1 -1 -0 1 2 1 1 2 1 -2 -5 -6 -7 -8 -9 -10 -11 -13 -14 -10 1 8 10 10 11 10 10 11 12 13 13 13 13 13 13 12 11 11 11 11 11 10
3 -1 -2 -7 -1 -1 -2 -2 -1 -1 0 2 1 0 1 1 -4 -6 -7 -7 -8 -9 -10 -11 -12 -13 -13 -14 -15 -11 -4 2 7 9 10 10 10 11 13 13 13 13 12 12 12 11 11 11 11
-1 -0 -2 -2 -2 -0 -2 -2 -2 -4 -2 -2 -2 -0 0 -1 -5 -5 -6 -6 -3 -8 -10 -10 -10 -9 -10 -10 -11 -11 -13 -14 -13 -10 -5 4 8 9 12 12 12 12 12 12 12 12 12 11 11
-1 -3 -5 -3 -2 -1 -2 -2 -3 -3 -4 -3 -3 -2 -1 -3 -2 0 2 4 -1 -6 -7 -6 -6 -6 -7 -8 -9 -10 -10 -10 -10 -10 -12 -12 -4 -3 4 8 9 9 10 10 11 11 12 11 11
-2 -2 -0 -2 -2 -2 -2 -3 -4 -4 -3 -3 -3 -3 -3 -3 -2 1 2 -1 -5 -5 -4 -4 -4 -5 -6 -7 -7 -7 -7 -7 -7 -7 -9 -10 -8 -7 -10 -2 2 7 9 9 11 11 12 12 12
-0 -1 -2 -2 -2 -2 -3 -4 -4 -4 -4 -5 -4 -4 -3 -2 -1 2 3 3 -3 -3 -3 -3 -4 -4 -3 -4 -4 -5 -3 -5 -3 -4 -6 -7 -7 -6 -6 -1 2 2 2 5 9 10 10 10 11
-1 -2 -3 -3 -4 -4 -5 -4 -4 -6 -7 -6 -6 -5 -4 -2 1 3 3 -1 -1 -1 -1 -3 -3 -2 -2 -2 -2 -3 -2 2 -1 -4 -5 -5 -1 -1 2 5 5 5 4 3 3 5 8 9 9
-1 -3 -4 -4 -5 -6 -5 -6 -6 -6 -7 -6 -5 -5 -3 -0 1 3 3 4 0 -1 -1 -2 -2 -1 -2 -2 -2 -2 -1 -1 -1 -4 -5 -5 -4 0 3 2 6 7 7 7 7 7 7 7 8
-3 -3 -4 -5 -5 -5 -7 -6 -8 -8 -8 -6 -5 -3 -2 0 2 2 4 1 -0 0 -1 -1 -1 -1 -2 -3 -2 1 2 2 -1 1 -3 -3 -3 -2 -3 -3 1 3 7 7 7 7 7 8 8
-3 -3 0 -5 -5 -4 -5 -1 -9 -9 -8 -8 -6 -4 -0 1 2 3 1 0 -0 -0 0 -0 -1 -1 -2 -3 -1 3 5 0 1 6 2 -1 -0 0 1 3 7 7 7 7 7 7 7 8 8
-3 3 -2 -3 -5 -5 -7 -5 -8 -9 -9 -10 -9 -5 -1 1 3 4 3 1 0 0 0 0 -1 -1 -1 -2 -0 2 5 2 3 5 4 2 3 2 4 2 3 3 7 7 7 8 8 8 7
-2 1 -2 -2 -5 -5 -7 -7 -10 -7 -9 -10 -9 -7 -2 -0 3 3 4 1 -0 0 0 0 -0 -0 -1 -1 1 6 6 2 4 4 3 3 3 3 4 3 3 3 3 4 3 4 7 8 7
-4 -2 -2 -2 -2 -3 -5 -6 -9 -8 -7 -8 -10 -10 -7 -1 1 4 4 1 -0 0 1 1 0 0 -0 1 3 6 3 3 4 4 4 4 4 4 4 3 3 3 3 3 3 3 6 6 5
-4 -3 -1 -1 -2 -2 -4 -4 -7 -9 -8 -7 -8 -10 -10 -6 -1 3 4 2 1 2 1 1 1 0 0 1 1 2 2 3 3 4 4 4 3 3 3 2 1 0 0 1 1 1 1 2 3
-5 -4 -1 3 -2 -3 -4 -6 -8 -10 -10 -9 -7 -8 -8 -8 -5 -0 4 4 4 3 2 1 1 0 0 1 2 2 2 3 3 1 1 1 1 0 -0 -1 -1 -1 -1 -1 -1 -1 -2 -2 1
-2 -3 -3 -3 -3 -2 -4 -0 -7 -9 -5 -5 -5 -4 -4 -3 -3 -3 1 4 4 3 2 1 1 -0 1 1 2 2 3 3 1 -0 -1 -1 -1 -2 -2 -3 -5 -10 -14 -16 -14 -14 -13 -11 -7
1 -3 -3 -5 -3 -3 -4 2 -10 -6 -8 -7 -5 -2 -1 1 1 0 2 3 4 3 1 1 1 -0 1 1 1 0 0 0 -1 -1 -2 -3 -6 -10 -13 -15 -17 -20 -25 -27 -29 -29 -29 -29 -23
-2 -3 -2 -3 -2 3 -1 -2 -6 -5 -5 -2 -2 -3 1 2 2 3 3 4 3 1 1 1 -0 0 0 0 -0 -1 -1 -2 -3 -5 -9 -13 -14 -14 -16 -20 -23 -27 -29 -30 -30 -30 -30 -30 -28
-1 -2 9 9 11 5 0 -0 -7 -4 -3 -2 -1 -1 1 2 3 3 3 2 2 2 2 1 -0 0 0 -0 -1 -2 -8 -13 -13 -14 -13 -13 -14 -15 -17 -20 -25 -29 -30 -30 -30 -29 -27 -25 -24
-0 -0 9 10 2 5 0 2 -0 -2 -1 -1 -1 1 2 2 3 3 3 4 3 2 1 1 -0 1 0 0 -1 -8 -13 -14 -14 -13 -12 -12 -13 -14 -16 -19 -24 -29 -30 -30 -29 -25 -23 -22 -23
-0 2 -1 2 -0 1 1 -1 -3 -2 -1 -2 0 1 2 2 3 3 3 1 1 2 1 -1 -1 0 1 0 -3 -9 -13 -13 -12 -11 -10 -10 -10 -12 -14 -16 -21 -28 -29 -30 -26 -22 -22 -22 -22
1 -1 2 3 6 1 2 -0 4 3 1 -2 -1 -0 -0 1 2 2 2 1 -0 -2 -2 -2 -1 -0 -1 -5 -8 -11 -13 -12 -11 -10 -9 -9 -9 -9 -10 -13 -17 -25 -29 -29 -24 -22 -22 -22 -21
1 1 0 -0 1 4 -4 -0 -4 -1 -1 -1 -3 -2 -2 -1 -1 -1 -3 -4 -4 -3 -2 -2 -1 -1 -3 -5 -9 -11 -11 -11 -10 -9 -8 -8 -8 -8 -8 -10 -13 -20 -28 -28 -22 -22 -22 -21 -21
1 -0 -2 -1 2 -0 0 -2 -6 -3 -1 -1 -3 -5 -4 -2 -1 -1 -1 -0 0 -1 -2 -2 -1 0 -0 -2 -5 -9 -10 -10 -9 -8 -8 -7 -7 -7 -7 -7 -9 -15 -26 -28 -22 -22 -22 -22 -22